ECMWFNIL_850_spd_000.txt.gz
Wind_Speed
29 28 27 27 26 24 23 22 19 18 15 13 11 10 11 10 10 10 11 11 10 9 8 8 9 8 7 7 7 6 6 6 6 7 8 7 7 7 8 8 8 9
31 30 29 28 28 26 24 22 20 17 15 13 11 10 10 9 9 10 10 10 9 8 8 8 8 8 7 7 7 7 7 7 7 8 9 8 8 9 9 9 10 11
32 31 31 30 29 27 24 22 20 17 14 12 11 10 10 9 10 11 10 10 9 8 8 8 8 8 7 7 8 7 8 8 8 8 10 9 9 10 10 10 10 12
33 32 32 31 28 26 25 23 21 18 14 12 11 11 11 10 10 10 10 10 9 8 8 9 9 8 8 8 8 8 9 9 9 10 11 11 10 10 10 10 11 11
34 32 31 30 28 26 25 24 22 18 14 13 13 11 11 10 10 10 10 10 9 8 8 9 9 9 9 9 9 9 9 9 10 10 11 11 10 11 11 11 11 10
35 31 30 29 28 27 25 23 22 19 15 15 14 12 11 10 10 10 9 8 8 8 8 9 10 10 10 10 10 10 10 10 10 11 12 12 11 11 11 11 11 11
37 34 31 30 29 28 27 25 23 21 18 16 14 12 12 11 10 10 9 7 8 9 10 11 11 11 11 11 11 12 11 11 11 12 12 12 11 10 11 11 11 12
40 39 35 32 30 28 27 25 24 23 19 17 15 12 11 10 9 9 8 8 9 10 11 12 12 12 12 12 13 13 13 12 12 12 12 11 11 11 11 11 11 12
42 42 37 32 32 31 28 24 22 21 19 19 16 11 7 8 9 8 8 9 11 12 13 13 14 14 14 15 15 15 15 14 14 13 13 12 12 11 11 11 11 13
45 43 39 35 34 31 26 24 21 19 20 20 16 8 5 9 11 11 12 14 17 18 17 17 17 16 16 17 17 18 18 17 15 14 13 13 13 12 11 11 12 14
43 41 37 35 34 31 28 26 25 23 22 21 19 15 13 17 21 21 22 22 23 22 22 23 21 19 18 18 18 19 19 18 16 14 14 14 14 13 13 13 14 16
34 33 32 30 30 31 31 30 30 29 28 27 27 26 27 30 31 30 29 27 24 23 24 25 24 21 20 19 19 19 20 18 16 15 14 16 15 14 14 14 15 16
35 37 38 34 32 33 34 34 33 32 32 36 38 35 37 42 41 37 36 34 31 30 29 27 25 22 21 21 19 19 20 19 17 15 15 16 16 15 15 15 16 17
39 39 38 37 35 35 34 33 33 31 31 36 41 40 41 46 45 41 40 40 39 39 38 33 28 25 23 22 20 20 20 19 18 17 16 16 16 16 16 16 17 17
32 31 31 32 32 33 32 33 36 36 35 39 42 42 41 43 42 40 41 43 43 42 40 34 29 26 25 23 22 20 20 19 19 18 16 16 16 17 17 17 17 18
29 29 29 28 26 27 36 43 45 45 46 48 47 44 41 41 42 42 42 45 45 39 34 30 27 26 25 23 22 20 19 19 19 17 17 17 17 18 18 18 19 20
31 33 32 31 28 26 34 43 48 50 52 53 52 49 44 41 42 44 43 46 46 36 29 29 29 27 25 24 24 21 19 19 19 18 18 18 18 18 18 19 22 23
29 30 31 32 30 28 29 35 43 50 53 53 52 49 46 42 44 46 45 47 46 37 30 29 29 27 24 24 24 23 20 20 21 20 20 20 21 21 20 21 23 25
25 25 26 26 26 25 25 29 37 44 49 49 45 43 44 45 48 49 46 46 45 38 32 30 27 25 23 22 23 23 22 22 22 21 20 22 22 22 21 23 25 27
21 21 21 21 21 20 22 27 32 37 42 44 43 43 45 47 49 49 47 47 45 39 33 29 26 24 23 23 24 25 24 23 22 20 21 22 23 22 23 25 25 25
20 20 19 18 17 17 20 23 25 28 33 39 42 43 45 46 48 49 47 43 40 37 33 29 26 26 26 25 26 28 28 26 23 22 22 23 24 25 26 26 26 27
20 19 17 15 16 17 19 20 20 23 27 33 38 40 42 44 45 47 45 39 35 34 33 30 28 28 27 25 26 28 29 27 24 24 25 27 28 28 27 27 28 29
18 15 14 15 16 17 18 18 19 20 22 26 31 33 36 38 40 43 41 35 33 33 32 30 31 30 27 25 25 27 28 28 28 27 26 25 25 25 25 26 28 29
14 13 14 17 17 17 17 18 18 19 19 21 24 27 30 32 34 33 30 27 28 30 29 28 28 27 24 24 26 29 30 30 30 28 27 24 21 22 25 28 30 31
13 14 15 17 17 17 17 17 17 17 18 21 24 27 28 27 26 24 21 20 22 25 28 27 25 23 23 24 27 31 32 30 28 26 27 27 23 21 24 28 29 26
15 17 17 18 18 18 17 17 17 17 18 21 23 22 21 20 20 19 19 18 17 20 26 27 23 22 24 24 25 27 27 25 23 19 18 19 20 20 21 24 24 20

ECMWFNIL_850_spd_003.txt.gz
Wind_Speed
28 26 24 23 22 19 18 16 15 14 12 10 8 7 7 7 7 8 8 7 7 8 8 8 9 9 8 7 7 7 6 6 5 5 6 6 7 6 6 6 6 7
28 27 26 25 23 21 20 17 15 14 13 11 8 7 6 6 7 7 7 8 9 9 9 9 8 8 8 8 7 7 7 6 6 7 8 9 9 8 7 7 8 9
29 29 29 28 26 24 21 17 16 15 13 11 8 7 6 6 7 7 8 9 10 10 10 9 9 9 8 9 9 9 8 7 8 8 8 11 11 9 9 9 9 10
30 31 31 29 27 24 22 19 17 16 13 10 9 8 7 6 6 7 8 9 9 10 10 10 10 10 10 10 11 11 11 10 11 9 9 11 12 12 11 10 10 10
32 32 32 31 28 24 22 20 18 16 14 11 11 10 7 4 4 6 7 7 8 9 11 11 11 12 12 12 12 12 12 12 12 11 11 11 11 11 11 11 11 11
32 33 33 32 29 25 22 20 19 18 15 13 13 11 8 7 8 9 9 9 10 11 12 13 15 14 13 13 14 14 14 13 12 11 11 12 12 12 12 12 12 12
31 33 34 32 29 27 24 23 22 21 19 18 17 15 13 14 17 19 19 17 15 14 15 16 18 16 13 13 15 15 15 15 14 13 13 13 14 14 14 13 13 14
31 32 34 32 29 28 27 27 26 26 25 23 21 20 20 23 27 29 29 26 22 20 19 19 20 18 15 14 15 16 16 16 14 14 14 14 15 15 14 14 14 15
33 33 34 33 31 31 31 31 30 30 29 27 26 27 29 31 34 36 35 32 28 26 23 22 22 20 17 16 16 16 17 16 15 14 14 14 14 14 14 14 15 15
35 34 35 35 35 35 35 35 35 34 33 32 33 34 36 36 37 39 41 38 33 30 28 25 23 22 21 20 18 16 17 17 17 16 16 16 16 16 15 15 16 15
35 35 36 37 36 36 37 38 38 36 36 38 40 40 39 39 37 39 43 41 37 33 31 29 26 24 23 23 20 17 17 17 17 17 17 17 17 17 15 15 16 16
35 37 38 39 36 37 40 42 40 38 39 42 43 41 41 40 38 39 42 42 39 35 31 30 28 25 25 24 21 18 18 17 16 17 18 17 17 16 16 17 17 16
36 38 40 40 39 42 44 44 42 42 43 45 45 42 42 41 36 33 37 40 40 38 34 32 31 27 26 25 22 21 20 17 16 17 18 18 17 16 16 17 16 15
38 39 40 42 42 45 46 46 45 46 46 46 45 43 43 43 35 28 30 34 37 39 37 34 32 30 27 25 21 21 21 18 18 19 19 19 18 17 17 17 15 15
39 39 40 44 46 46 48 49 48 48 47 46 45 44 46 48 41 31 28 29 30 35 38 35 33 32 30 25 21 21 21 20 20 21 20 19 18 18 18 16 15 16
39 41 43 47 48 47 48 50 48 47 47 46 45 45 46 50 47 37 31 28 27 32 39 38 35 33 32 29 24 21 21 21 23 23 21 19 17 16 16 16 16 17
44 46 46 46 46 44 45 47 45 44 46 46 46 47 47 50 49 41 35 32 31 33 37 39 37 34 33 33 27 21 20 21 23 24 22 20 18 16 15 16 18 19
48 49 47 44 42 40 40 41 41 41 43 43 45 47 47 49 49 44 39 37 38 38 37 38 37 35 34 33 27 22 19 21 23 24 24 23 20 18 17 18 19 20
48 47 45 42 39 37 37 38 38 39 39 41 44 47 48 49 49 46 42 40 41 40 38 36 33 33 33 32 27 23 21 22 25 26 25 24 23 21 19 19 20 20
43 42 39 38 36 34 35 36 37 37 37 39 43 46 49 50 49 46 44 43 43 41 38 34 28 28 30 30 28 26 23 23 26 28 28 26 24 21 20 21 22 22
36 35 32 30 29 28 30 32 34 34 35 37 42 46 50 50 49 46 44 43 42 39 36 31 25 25 28 29 29 27 24 23 25 28 29 27 24 21 20 22 24 24
32 30 28 26 24 24 26 27 28 30 31 34 39 44 46 47 47 45 43 42 40 37 34 28 24 26 29 29 29 26 23 24 26 27 29 27 24 23 22 23 26 24
31 30 27 24 23 23 24 23 23 25 27 29 34 39 38 37 38 38 37 38 36 33 32 27 23 26 28 27 27 25 24 25 26 26 27 27 26 26 25 24 25 25
28 26 24 23 24 24 23 22 23 24 23 24 28 32 29 25 23 26 30 32 29 26 26 24 22 25 27 26 26 25 24 24 24 24 25 25 26 27 25 23 25 26
22 22 23 25 25 25 23 23 23 22 21 22 24 25 24 20 19 22 26 25 21 19 21 20 19 22 25 25 23 22 22 22 22 21 22 23 23 23 22 22 24 25
20 22 25 26 26 25 23 22 21 18 17 19 19 17 17 18 18 19 18 16 16 17 17 15 15 19 23 21 19 18 18 19 20 20 20 20 21 21 21 21 21 20

ECMWFNIL_850_spd_006.txt.gz
Wind_Speed
30 28 26 25 23 21 23 23 20 20 19 18 18 18 18 17 15 16 17 19 19 15 12 11 10 12 13 11 13 16 13 10 11 8 5 6 6 4 5 6 5 7
30 29 28 26 24 24 24 22 21 21 20 19 19 20 20 19 20 22 23 23 21 15 11 11 10 10 12 12 11 13 14 13 14 13 8 7 8 8 8 7 6 8
30 30 30 28 27 27 26 23 22 22 23 23 22 22 23 22 23 25 24 23 20 16 15 13 12 10 11 13 12 11 11 11 13 14 11 9 10 11 11 10 10 9
32 31 30 29 29 29 28 26 25 24 26 27 26 25 25 25 26 25 23 21 19 18 17 15 13 12 12 13 14 12 11 10 11 12 13 13 12 11 11 11 11 13
34 32 31 30 31 31 31 30 28 28 29 29 28 28 28 28 27 25 22 22 21 21 19 16 15 14 13 13 15 15 13 11 11 12 13 14 13 11 11 9 8 9
35 34 33 32 33 33 34 34 32 31 32 31 30 31 31 30 28 25 25 24 23 22 20 18 17 16 15 14 14 14 13 12 13 13 12 12 12 12 10 9 8 9
35 35 34 34 34 35 36 36 35 35 34 32 33 33 33 31 28 27 28 26 24 22 21 19 19 18 18 16 15 14 12 12 13 13 12 10 11 12 12 12 13 13
36 36 36 36 36 37 38 38 38 38 36 34 34 36 34 31 30 30 30 28 26 23 22 20 20 20 19 18 17 15 14 12 13 14 14 14 14 15 15 16 16 16
37 37 38 37 38 39 40 40 40 40 38 36 37 37 35 31 31 32 31 30 28 25 23 22 21 21 21 19 17 17 16 14 12 13 13 14 16 17 16 16 16 15
39 39 39 39 40 41 41 42 42 41 40 40 40 39 36 33 33 34 33 32 30 28 25 24 23 23 23 21 19 18 17 15 13 13 13 12 13 14 14 13 13 14
42 41 41 41 41 41 42 44 44 44 43 42 41 40 38 36 36 36 36 36 34 30 27 26 25 24 24 23 21 19 18 15 14 14 14 14 13 14 15 14 14 16
44 44 43 43 42 41 43 44 45 45 45 44 43 42 40 38 38 38 38 39 37 32 30 29 27 26 26 25 23 21 19 17 15 15 15 14 13 15 16 15 14 16
45 46 46 45 44 43 44 44 44 44 45 46 46 43 41 41 40 40 41 40 39 35 32 31 29 28 27 26 24 22 20 18 17 16 15 14 13 14 15 14 13 14
46 46 46 46 45 45 44 44 45 45 46 48 48 45 44 45 43 42 42 42 40 37 34 33 31 30 29 27 26 24 21 20 18 16 15 14 14 15 15 15 14 15
45 45 46 46 46 46 46 46 46 48 48 50 49 46 46 47 46 44 44 43 41 39 36 35 34 32 31 29 27 25 22 20 19 17 15 16 16 17 18 17 17 18
45 46 46 46 47 47 47 48 47 48 49 50 50 47 47 48 47 45 44 42 41 40 38 38 37 34 31 29 26 26 24 21 21 19 18 17 17 18 19 18 17 18
45 47 47 47 47 47 46 47 47 48 49 49 49 47 48 48 45 44 43 40 41 42 39 40 41 36 31 29 26 26 24 22 22 21 20 18 18 19 20 18 17 17
47 47 47 47 47 47 46 46 46 47 48 48 48 47 48 47 44 44 43 41 43 46 43 42 43 38 33 31 28 25 23 22 22 21 20 19 19 19 20 19 17 16
48 47 47 46 46 45 45 46 47 48 48 47 47 46 46 45 45 45 43 40 43 46 43 42 43 39 35 33 28 23 21 21 21 21 21 20 19 20 20 19 19 19
49 48 47 45 44 44 46 48 49 48 47 45 45 45 44 44 43 42 40 38 40 41 39 39 39 37 34 31 26 20 18 19 21 21 21 20 21 21 20 20 22 21
50 49 46 45 45 46 47 47 46 45 44 43 42 43 44 43 41 40 38 36 36 36 35 34 33 32 30 27 22 17 15 17 19 21 22 22 22 22 21 21 22 22
49 47 46 47 47 46 45 45 44 44 43 41 40 40 41 42 41 39 38 36 35 35 34 31 28 27 26 24 20 17 16 16 18 21 23 23 23 23 22 21 21 21
47 47 47 46 45 43 43 43 43 42 40 38 37 36 35 35 34 34 34 35 36 35 34 32 29 27 25 23 20 18 17 16 17 20 22 22 23 23 21 21 21 22
47 47 45 43 41 40 40 41 40 39 38 37 36 36 34 30 28 27 29 31 31 32 32 31 29 26 24 21 19 17 16 15 16 19 21 22 23 22 21 20 21 21
46 44 41 39 38 37 35 31 28 28 30 32 33 33 33 31 26 22 21 21 21 22 23 22 21 19 17 15 15 16 15 15 16 19 21 21 21 20 18 17 17 18
41 39 38 37 36 32 27 22 21 22 23 24 24 22 22 24 23 19 18 18 15 14 14 13 14 15 15 14 15 16 16 16 16 18 20 19 17 15 15 15 16 18

ECMWFNIL_850_spd_009.txt.gz
Wind_Speed
34 33 33 32 30 30 30 29 28 26 25 26 27 27 24 22 22 21 20 23 22 22 22 19 15 14 15 16 16 15 13 9 10 12 13 14 15 15 13 13 13 12
34 34 34 33 32 32 33 33 31 28 26 26 26 26 24 22 22 21 21 24 24 23 22 17 13 14 14 16 17 17 15 13 12 11 12 14 16 15 14 15 15 15
36 34 34 34 34 34 35 34 33 29 27 26 26 25 25 23 23 22 22 24 24 23 21 17 14 14 14 16 19 19 18 15 14 12 12 14 16 15 14 16 16 15
37 36 35 35 35 34 35 35 34 31 29 28 27 26 26 26 25 24 24 24 24 24 22 18 16 16 14 15 18 20 19 17 16 15 14 15 15 15 15 16 16 14
38 37 36 36 36 35 35 35 35 33 31 30 29 28 28 28 28 27 26 26 26 25 23 20 18 16 15 15 17 18 19 18 18 18 17 16 16 15 16 17 16 14
40 38 37 38 38 37 37 37 36 34 33 32 32 31 30 29 29 29 28 28 27 26 24 22 19 17 16 16 16 17 18 18 19 20 20 18 17 16 16 16 15 14
43 40 38 38 39 40 39 38 38 36 34 33 33 33 32 30 29 30 30 29 28 28 27 24 21 18 17 17 18 17 17 17 18 20 21 19 19 18 16 14 14 14
45 42 39 38 39 40 41 41 40 37 35 35 35 34 33 32 31 31 31 31 31 30 28 26 23 20 18 18 19 18 17 17 18 20 19 18 19 19 17 14 13 13
46 44 41 40 39 39 41 42 42 39 37 36 36 35 34 34 33 32 32 32 32 31 30 27 25 23 21 20 20 19 18 18 19 19 18 17 17 18 17 15 14 15
47 46 43 42 41 41 41 42 42 41 40 39 38 37 36 35 34 34 33 33 33 33 31 30 28 26 24 22 21 19 19 18 19 19 18 17 16 16 16 16 16 17
49 47 46 44 44 43 43 42 43 42 42 42 42 41 39 37 36 35 35 35 35 35 34 32 30 28 26 24 21 20 19 19 19 19 19 18 17 17 16 17 17 17
50 49 48 46 46 45 44 43 44 44 44 44 44 43 42 40 38 38 37 37 37 36 35 33 31 29 27 25 23 20 19 20 20 19 18 18 18 17 16 16 16 16
51 51 49 47 47 47 45 45 45 45 46 46 45 44 43 42 41 40 39 38 38 37 36 34 32 30 28 26 24 22 21 21 21 21 19 18 18 17 15 14 14 14
52 51 49 48 48 48 47 47 47 47 47 47 46 45 44 44 43 42 40 39 39 38 36 34 33 32 30 29 27 25 23 22 22 22 21 19 18 18 17 16 14 14
53 52 50 49 49 49 49 49 49 48 48 47 46 45 45 44 43 42 41 40 39 38 37 36 35 34 33 32 30 27 25 24 23 23 22 21 19 19 18 17 16 15
54 53 52 51 50 50 50 51 49 48 47 47 46 45 44 44 43 43 42 41 40 39 38 37 36 36 35 34 32 29 27 25 24 24 23 22 21 20 18 18 18 17
54 54 54 53 52 52 51 50 49 48 47 46 45 44 43 43 43 43 42 41 41 39 39 39 38 37 37 36 34 32 28 26 25 24 23 22 21 20 18 18 19 19
54 55 55 55 54 53 52 50 49 48 47 46 45 44 42 41 41 41 41 41 41 40 39 39 39 38 38 37 34 31 28 28 25 23 22 21 21 21 19 19 21 21
55 55 56 56 55 53 52 50 49 48 47 46 45 44 42 41 40 39 38 39 40 39 39 39 38 38 38 36 32 26 25 28 27 23 22 21 21 21 20 20 22 22
56 56 56 56 54 52 51 49 49 49 47 46 45 43 42 40 38 37 36 37 38 37 37 37 37 38 38 36 32 25 22 26 29 26 23 21 21 22 22 22 23 21
58 57 57 56 54 51 50 50 49 48 47 46 44 43 42 41 39 38 37 37 37 37 36 36 37 38 38 36 32 26 21 23 27 27 23 22 23 23 23 23 23 22
60 59 57 56 54 51 50 49 49 48 47 45 43 42 42 41 40 39 38 37 36 36 36 36 36 37 37 34 30 26 21 18 23 25 24 24 25 24 24 24 23 22
61 60 58 55 53 52 50 49 49 48 46 44 42 41 41 40 39 38 35 33 33 35 35 35 35 35 33 30 26 23 18 17 21 22 23 25 26 26 25 24 23 22
62 59 57 55 53 51 50 49 48 47 45 43 42 42 41 39 38 37 33 31 33 34 34 32 31 30 27 24 22 20 17 17 18 20 23 25 27 27 27 25 23 21
61 58 56 54 53 51 49 48 47 45 44 43 43 42 40 38 37 35 32 31 31 30 27 26 26 24 22 21 21 19 18 18 18 19 22 24 25 26 26 23 21 20
59 57 56 55 53 51 49 47 45 43 42 42 42 40 38 36 35 33 30 28 27 24 21 19 19 19 19 20 21 20 18 18 19 20 21 22 23 23 22 20 18 18

ECMWFNIL_850_spd_012.txt.gz
Wind_Speed
44 43 41 39 37 35 33 32 32 31 30 29 29 28 26 24 23 23 25 25 24 23 22 20 18 17 16 15 14 15 15 14 13 13 14 15 16 18 18 17 17 17
44 45 43 41 39 38 35 33 33 33 30 29 28 27 26 25 24 25 25 25 25 25 23 22 20 18 17 16 16 17 17 16 15 14 14 14 15 18 18 17 18 19
45 45 44 43 41 39 37 35 35 33 32 30 28 27 26 26 26 26 26 26 27 27 25 23 21 19 18 17 18 19 19 18 17 15 14 14 16 18 18 18 18 19
44 46 45 43 41 39 37 37 37 35 33 32 30 28 27 27 28 29 28 27 28 29 27 25 23 21 20 19 20 21 21 20 18 16 14 15 18 19 19 19 19 20
43 45 45 44 42 40 38 38 39 37 35 34 32 29 28 29 30 30 30 29 30 30 28 26 24 23 22 21 21 22 22 20 19 18 16 17 18 19 19 19 20 21
42 44 45 44 42 40 40 40 40 39 37 35 34 32 31 31 31 32 31 30 30 31 29 28 26 25 23 22 22 22 22 21 20 20 19 18 19 19 20 20 20 20
41 43 45 45 43 41 41 40 41 40 38 37 35 34 33 33 32 33 33 32 31 31 30 29 27 26 25 24 23 23 23 22 21 21 20 20 20 19 19 19 19 20
40 41 44 45 44 42 41 41 41 42 40 39 38 37 35 34 34 34 34 33 32 32 31 30 29 28 27 26 25 24 24 23 23 22 21 21 21 19 18 18 19 20
41 41 43 45 45 43 42 41 42 43 42 41 40 39 37 36 36 35 35 34 34 33 33 32 31 30 29 27 26 25 25 24 23 22 21 20 20 19 18 19 19 20
42 41 42 45 46 45 44 42 43 43 44 43 41 40 39 38 37 37 36 35 35 35 35 34 33 32 31 29 26 25 24 24 23 21 20 19 19 19 18 19 19 20
44 42 42 44 46 46 46 44 44 45 45 44 44 42 41 40 39 38 38 37 37 37 36 36 35 34 32 30 27 26 24 23 23 21 19 19 19 19 19 19 19 19
46 44 43 44 45 46 47 46 45 46 47 47 46 45 43 42 41 40 40 39 39 38 37 37 36 35 33 30 28 27 24 23 23 21 19 19 19 19 19 19 19 20
47 45 43 43 44 46 47 48 47 47 48 48 48 47 46 44 42 42 41 40 39 38 38 38 37 36 34 32 30 28 26 25 23 20 18 19 20 20 21 20 20 20
49 45 43 43 44 46 48 49 49 49 49 49 49 49 48 46 44 43 42 41 40 38 38 38 38 38 36 34 32 30 28 26 24 20 19 20 21 21 21 21 21 21
50 47 44 44 44 46 48 50 51 50 50 50 50 49 48 47 45 44 43 42 41 40 40 40 40 40 39 37 34 32 30 28 26 22 19 20 21 21 22 22 22 22
51 49 47 45 46 47 48 50 51 51 50 50 49 49 48 47 46 45 44 43 42 42 42 42 42 42 40 38 35 33 31 30 29 24 19 20 22 22 22 23 22 22
52 50 49 48 47 48 49 50 51 50 50 49 48 48 47 47 47 46 45 45 44 43 43 43 43 42 41 39 36 35 33 31 31 27 20 18 21 22 23 24 23 23
52 51 50 49 48 48 49 49 49 49 48 47 47 47 47 47 47 47 46 45 44 44 44 44 44 42 41 40 38 37 36 33 32 30 24 19 20 22 22 23 23 24
51 51 50 49 49 48 48 48 47 47 47 46 46 47 47 47 47 47 46 45 45 44 44 43 43 42 41 40 39 38 37 35 34 33 26 19 19 21 23 23 24 25
50 50 49 49 48 47 47 47 47 46 45 45 46 47 47 47 47 46 46 45 45 44 43 43 42 42 41 40 39 38 38 37 34 32 26 20 18 20 23 25 25 26
50 50 49 48 47 46 46 46 46 45 45 45 47 48 48 47 47 46 45 45 44 43 42 41 41 41 40 39 38 38 39 38 35 33 31 29 26 24 25 27 27 27
51 49 49 48 46 46 45 45 46 46 46 46 47 48 48 47 47 46 45 44 43 41 41 40 40 40 39 38 37 37 38 38 37 35 34 34 33 29 27 29 29 28
52 50 49 48 47 46 46 46 46 46 46 47 48 49 49 48 47 46 44 44 42 41 40 39 39 39 37 36 35 35 37 38 37 36 34 31 28 25 27 29 29 27
53 51 50 49 48 48 47 47 47 46 47 48 49 50 50 49 47 46 44 44 42 41 40 39 39 38 35 33 32 33 35 35 34 34 32 27 23 24 27 29 27 26
54 53 52 51 50 49 49 48 47 46 47 48 49 50 50 48 47 45 45 44 42 41 40 38 38 35 31 30 29 30 30 30 30 29 28 25 23 25 27 27 26 26
54 54 53 53 52 51 50 49 47 46 47 48 49 49 49 48 47 46 45 44 42 41 39 37 35 32 27 25 25 25 24 25 26 26 25 24 24 25 26 26 25 25

ECMWFNIL_850_spd_015.txt.gz
Wind_Speed
48 46 45 44 43 41 38 36 35 35 34 32 30 29 28 27 26 25 25 25 24 23 23 23 21 20 19 18 17 16 15 13 13 12 11 12 14 15 17 18 17 17
48 46 45 45 44 43 40 37 36 35 34 32 30 29 28 27 26 25 25 25 24 23 23 23 22 21 21 20 18 16 15 14 14 13 12 13 14 15 16 17 18 19
48 46 45 45 44 43 43 40 37 36 35 33 31 30 29 28 26 25 26 25 24 23 23 24 23 22 22 21 18 16 15 15 14 13 14 14 15 16 16 17 19 21
48 46 45 44 43 42 42 42 40 38 36 35 33 32 30 28 26 26 27 26 24 23 23 24 24 23 22 22 19 17 17 16 14 15 16 16 16 17 16 17 19 21
48 46 45 44 43 42 42 43 43 41 38 37 35 33 32 30 27 27 28 28 26 24 24 25 25 24 23 22 21 18 18 18 17 17 19 18 17 18 17 17 19 21
48 46 44 43 43 42 42 42 42 41 41 39 36 35 33 31 29 28 28 28 27 26 25 26 26 25 24 23 22 21 20 19 19 20 21 20 19 18 18 19 21 22
49 46 44 44 43 42 42 42 41 41 41 40 38 37 35 33 31 29 29 28 27 27 27 27 27 26 25 24 24 23 22 21 21 22 22 22 21 20 19 20 22 23
48 46 44 44 44 42 41 41 42 41 40 40 40 39 37 35 33 31 30 29 28 28 29 29 28 27 26 26 26 25 24 22 22 23 24 24 24 23 22 22 23 23
47 46 44 44 44 42 41 41 42 41 40 39 39 39 39 37 35 32 31 30 29 29 30 30 30 29 28 27 27 26 25 24 24 24 25 25 25 25 24 23 24 23
47 46 45 45 44 42 40 41 41 41 40 39 38 38 39 39 37 35 33 32 31 30 31 32 32 31 29 29 29 28 26 25 24 25 25 26 26 25 25 25 25 24
48 47 46 45 44 42 40 40 41 41 40 39 38 38 39 39 39 37 35 34 33 33 32 33 34 33 32 31 30 29 27 26 26 26 26 26 26 25 25 25 25 24
49 48 47 45 44 42 40 40 41 42 40 38 38 38 38 40 40 39 37 36 35 35 34 34 35 35 35 33 32 30 29 28 28 27 26 26 26 25 25 25 25 24
50 48 47 45 44 42 40 40 41 41 41 39 38 37 38 39 40 40 39 37 37 37 37 37 36 37 37 35 34 32 31 30 29 28 27 27 26 26 25 25 25 25
51 49 47 46 44 42 41 41 41 41 40 40 39 38 38 38 39 39 39 39 39 39 39 39 38 38 38 38 36 35 33 32 30 29 28 27 27 26 26 26 26 26
51 49 48 47 45 44 42 42 41 41 40 40 40 39 39 38 38 39 40 40 40 40 40 40 40 40 40 39 38 36 34 33 32 30 28 28 27 26 25 25 26 28
52 50 49 48 48 46 44 43 43 42 41 40 41 41 40 39 38 40 41 42 41 41 42 42 42 41 41 40 40 38 35 34 33 31 29 29 27 26 26 26 26 28
52 51 50 49 49 48 46 45 44 43 42 41 41 41 41 40 40 40 41 42 42 43 43 43 44 43 42 42 41 40 38 36 34 31 30 31 30 30 29 27 24 26
51 51 50 50 49 48 48 47 46 45 44 44 43 42 41 41 42 41 41 41 42 44 44 44 44 44 43 43 42 41 40 38 36 33 31 31 33 33 32 27 22 23
51 50 50 50 49 49 48 47 47 46 46 46 46 44 42 42 42 42 41 41 42 43 44 44 44 44 44 43 43 43 42 41 39 34 31 32 34 34 33 28 22 22
51 50 49 49 49 49 48 48 48 48 48 47 47 46 45 43 43 43 42 42 42 42 43 44 44 44 44 43 43 43 42 45 43 35 32 35 36 34 33 29 23 22
50 50 49 49 49 49 49 49 49 49 49 49 49 48 47 44 43 43 43 42 42 41 42 43 43 43 43 42 42 43 42 44 43 36 33 36 35 33 33 31 27 25
50 50 49 49 49 50 50 50 50 50 50 50 50 50 48 45 44 44 43 42 41 41 42 42 41 41 42 41 41 42 42 42 42 37 34 36 35 30 28 28 28 29
51 50 50 50 50 51 51 51 51 51 51 51 51 51 49 47 46 46 44 42 40 41 41 40 40 40 40 39 40 42 41 41 40 37 35 38 36 29 26 25 27 30
51 51 50 50 51 52 52 52 51 51 51 51 52 51 49 48 47 46 44 42 41 41 39 37 38 37 36 36 38 41 42 40 37 35 35 38 35 29 28 28 28 29
52 52 51 51 51 52 52 52 51 51 51 51 51 51 49 48 48 46 44 43 41 40 37 36 37 36 34 34 36 39 41 40 36 32 30 33 34 31 29 29 28 28
52 52 52 51 51 52 52 52 52 51 51 51 50 49 48 48 47 46 44 43 42 39 37 37 37 35 33 33 34 37 39 39 36 30 25 25 29 30 28 27 26 26

ECMWFNIL_850_spd_018.txt.gz
Wind_Speed
40 40 40 39 38 37 36 34 32 31 30 29 27 26 26 27 27 27 26 25 24 23 21 20 19 18 18 18 18 17 16 15 14 15 14 13 11 11 10 11 12 14
44 42 41 40 40 38 37 36 34 32 31 29 28 26 26 27 28 28 27 25 25 24 21 20 19 19 19 19 19 18 16 15 15 16 15 13 11 11 10 10 11 13
46 44 43 42 41 40 39 37 36 34 32 30 28 27 27 27 28 28 27 26 25 24 22 21 20 20 20 20 20 19 18 17 16 16 15 13 12 11 10 10 11 14
48 47 45 44 42 41 40 39 37 36 35 32 30 29 28 28 28 28 27 27 26 25 23 21 21 22 21 21 21 21 19 18 17 17 16 14 13 11 10 11 12 14
48 47 46 45 44 42 41 40 38 37 36 34 32 31 30 29 28 28 28 28 27 27 24 23 23 23 22 22 22 22 21 20 19 19 18 16 14 13 12 13 13 14
48 47 46 45 44 43 43 41 39 37 36 34 33 33 32 30 29 29 28 28 28 27 26 25 24 24 23 23 23 23 23 21 21 20 19 18 16 15 14 14 15 15
49 48 46 46 45 45 44 42 39 37 36 34 34 35 35 33 31 30 29 28 28 28 27 26 26 25 24 24 24 24 24 23 22 22 21 19 18 17 17 16 16 16
50 49 47 46 46 46 45 43 41 38 37 36 34 35 36 36 34 32 30 29 29 29 28 28 28 27 26 26 25 25 25 25 24 23 22 20 19 19 19 18 18 17
50 49 48 47 47 47 46 45 42 40 39 38 36 34 35 36 36 34 32 31 31 31 30 29 29 28 28 28 27 26 26 25 25 25 24 22 21 20 19 19 19 18
50 49 49 48 48 47 46 45 42 40 40 39 37 36 35 36 36 36 35 34 33 32 32 31 30 29 29 30 28 27 26 26 26 26 25 23 21 20 19 20 20 20
51 50 50 49 48 47 46 44 41 40 41 40 39 37 36 36 36 37 37 36 35 35 34 32 31 30 30 31 30 29 27 27 27 27 26 25 23 21 20 20 20 21
52 51 51 50 48 47 45 42 40 40 41 41 39 38 37 37 37 38 39 38 37 36 35 34 32 32 31 31 30 30 28 28 27 27 27 26 24 22 21 21 21 21
54 52 51 50 48 46 44 41 40 40 41 41 39 37 38 38 38 39 40 39 38 37 36 35 34 34 33 31 30 30 29 28 28 27 27 27 25 24 22 22 21 21
54 52 51 49 47 46 44 41 40 40 41 41 39 37 38 39 40 40 40 40 39 38 38 37 36 36 35 33 32 30 29 29 28 28 28 27 26 25 24 23 22 22
53 52 50 49 48 47 45 42 40 40 41 41 39 38 38 40 41 41 41 41 41 40 39 39 39 39 37 35 33 31 30 29 29 29 29 28 27 26 25 24 23 22
53 51 51 50 49 48 46 43 42 41 41 41 39 38 38 40 41 42 42 42 41 41 41 41 41 40 38 36 34 33 31 29 29 30 30 29 27 26 26 25 24 24
52 52 51 50 49 48 46 45 43 42 42 41 40 39 39 40 41 43 43 43 43 43 43 42 42 41 38 36 36 34 32 30 29 30 31 30 28 27 26 24 25 26
53 52 51 51 50 48 47 46 44 43 43 42 42 41 40 40 42 44 45 45 44 44 44 43 42 40 38 37 37 35 33 31 29 30 32 30 28 27 25 25 28 29
53 52 52 51 50 49 48 47 46 45 45 44 43 42 42 42 42 44 45 46 46 46 45 44 42 40 39 38 38 37 35 32 30 31 32 29 27 27 26 27 29 29
53 53 52 51 50 49 49 49 48 47 45 45 44 44 45 44 44 44 45 46 47 48 47 46 44 41 40 39 39 38 36 33 31 31 31 28 27 28 28 29 30 29
53 53 52 51 50 50 51 51 50 49 47 46 46 46 47 46 45 45 45 46 47 48 48 48 45 43 42 41 40 38 36 34 32 31 31 29 28 30 30 31 30 30
53 53 52 51 50 51 51 52 52 50 49 48 47 47 47 47 47 46 46 47 47 47 48 48 46 46 45 43 41 38 36 35 33 31 31 30 29 31 31 31 31 31
53 53 52 52 51 51 52 52 52 51 49 49 49 49 49 49 49 48 47 47 48 48 48 48 47 47 46 44 42 39 37 36 33 31 31 30 28 28 29 31 32 33
52 52 52 51 51 51 52 52 52 51 50 50 50 50 50 50 50 48 47 48 48 49 48 47 46 46 46 45 43 40 38 36 33 31 32 31 29 28 28 29 30 32
51 50 50 50 50 50 50 51 50 50 50 51 50 50 50 50 50 49 48 48 49 49 48 46 45 45 46 46 43 40 38 35 32 31 33 33 32 31 29 27 27 29
49 49 50 49 50 50 50 49 49 50 50 50 50 50 50 50 50 49 49 49 49 50 48 46 44 45 47 46 43 40 38 35 32 31 31 32 31 28 28 28 26 27

ECMWFNIL_850_spd_021.txt.gz
Wind_Speed
39 38 38 37 37 36 34 33 32 31 30 29 28 27 27 25 24 22 22 21 21 21 21 21 20 21 20 18 17 17 16 15 14 14 14 14 13 13 13 12 12 12
41 40 39 38 37 36 35 33 32 31 30 28 27 26 26 26 25 23 23 22 21 20 20 21 21 22 21 19 18 17 17 16 15 15 15 15 14 14 13 12 11 11
43 42 41 39 38 37 35 35 33 32 30 29 28 26 26 25 25 24 23 23 22 21 21 21 22 23 22 20 19 18 18 17 16 16 16 15 15 15 13 12 11 11
44 43 42 41 40 38 37 36 34 32 32 31 30 28 26 26 26 25 25 24 23 23 22 22 23 23 22 21 20 20 19 18 17 17 17 17 16 16 15 13 12 11
45 44 43 42 41 40 39 37 35 34 34 33 31 30 28 28 27 27 27 26 25 24 24 23 23 23 22 22 21 21 21 20 19 19 19 19 18 18 16 15 13 12
46 45 44 43 43 42 41 39 38 36 35 34 33 31 30 30 29 29 29 28 27 26 25 25 25 23 23 22 22 22 22 21 21 20 20 20 20 19 19 17 15 13
47 46 45 44 44 43 42 41 40 38 36 35 34 32 31 31 32 32 31 30 29 28 27 27 26 24 24 23 23 23 23 23 23 22 22 22 21 21 21 19 17 15
46 46 45 45 45 44 43 42 41 39 37 36 35 33 32 32 32 33 34 33 32 30 29 28 27 26 25 25 25 25 24 25 25 25 24 23 23 23 23 22 19 17
47 47 46 46 45 45 44 43 42 40 38 37 36 35 33 33 33 34 35 35 34 33 31 30 29 27 27 26 26 26 25 26 27 27 26 25 25 24 24 23 21 19
47 47 47 46 46 47 46 45 43 41 40 39 37 36 35 34 33 34 35 37 37 36 34 32 31 29 29 28 27 27 27 27 28 28 27 26 25 24 24 23 23 22
47 47 47 47 47 47 46 45 44 43 41 40 39 38 37 35 34 34 35 37 39 39 37 34 33 31 30 30 29 28 28 28 29 28 28 27 26 25 24 23 23 23
49 48 48 47 47 46 45 44 43 43 42 40 39 39 39 37 35 35 36 37 39 40 40 38 35 33 32 31 30 30 29 30 30 30 29 28 27 26 25 24 24 24
51 50 49 48 47 46 44 42 42 42 41 40 38 39 40 38 37 37 37 38 38 39 41 40 38 36 34 33 32 31 31 31 31 31 30 30 29 27 27 26 25 24
53 52 50 49 48 46 44 43 42 42 41 40 38 39 40 39 37 37 38 38 39 39 40 41 41 39 37 35 34 33 32 32 32 32 32 31 30 29 28 28 27 26
53 53 51 51 50 48 46 45 44 43 42 41 40 40 40 39 37 38 38 39 39 39 40 41 42 42 41 39 37 36 35 34 33 33 33 33 31 30 29 29 29 28
53 52 52 52 51 50 49 46 45 45 43 42 41 40 40 39 38 38 39 40 40 40 41 42 43 44 43 41 39 37 36 36 35 34 34 34 33 31 31 30 30 29
52 51 51 52 52 51 50 48 47 46 45 43 42 42 41 40 39 40 40 40 41 41 42 43 45 45 43 42 41 38 37 37 37 35 35 35 34 33 32 31 30 30
52 51 51 51 51 51 50 49 47 47 46 45 44 44 43 42 41 40 41 41 42 42 43 45 46 46 44 43 42 39 38 39 38 37 36 36 35 34 32 31 31 31
51 51 51 51 51 50 50 49 48 48 47 47 46 45 44 44 43 42 41 42 43 44 45 45 46 46 45 44 43 40 39 40 40 39 38 37 36 34 33 32 32 32
51 51 51 51 51 50 50 50 49 48 48 48 47 46 46 47 46 43 42 43 44 45 46 46 46 47 46 45 44 41 40 40 40 40 39 38 37 35 33 33 33 34
51 51 51 51 50 50 51 50 49 48 49 49 49 49 49 49 48 46 44 44 45 45 45 45 46 47 47 46 44 42 41 41 41 41 40 39 39 37 35 34 34 35
51 51 51 51 50 51 51 51 50 50 50 49 49 49 49 49 49 48 47 46 45 45 45 45 46 47 48 47 45 43 42 41 41 41 40 40 40 38 37 36 35 36
51 51 51 51 50 51 51 51 51 50 49 49 49 49 50 50 50 49 48 48 48 46 46 46 46 47 47 45 44 43 42 43 43 42 41 41 41 40 39 37 36 37
49 49 49 50 50 50 51 51 50 49 49 49 49 49 49 50 50 47 41 43 49 49 47 47 46 45 45 43 42 42 43 43 43 42 41 41 42 42 40 38 38 38
46 47 47 49 49 49 50 50 49 49 50 49 49 50 50 49 49 43 36 39 46 46 45 47 47 45 45 44 42 41 42 43 43 42 42 42 43 42 41 39 40 41
45 46 46 47 47 48 48 49 49 49 49 49 50 50 50 47 44 41 40 43 43 39 40 47 48 47 47 47 44 42 41 41 42 43 43 43 43 43 42 41 42 43

ECMWFNIL_850_spd_024.txt.gz
Wind_Speed
40 40 39 39 39 38 37 36 35 33 31 30 29 28 26 26 26 25 25 23 21 19 19 19 18 17 16 15 15 15 15 14 14 13 10 10 10 10 12 12 11 12
41 41 40 39 40 39 38 37 36 34 32 31 30 28 27 27 26 26 26 25 23 20 19 19 18 18 17 16 16 17 17 16 16 14 11 11 11 12 13 13 12 13
42 41 41 41 41 40 39 38 37 35 33 31 30 29 28 27 27 27 27 27 25 23 21 20 19 19 18 18 18 18 18 18 17 16 14 13 13 14 15 14 13 14
44 42 42 43 42 41 40 39 38 36 34 32 30 29 29 28 28 27 27 28 27 25 24 22 21 20 19 19 19 19 20 20 18 17 16 14 15 16 17 16 15 15
45 44 43 43 41 41 40 40 39 37 35 33 32 30 29 29 29 28 28 28 27 26 25 24 23 22 21 21 20 20 22 21 20 20 18 16 15 17 19 18 18 17
46 45 44 43 42 42 42 41 40 38 36 34 33 32 31 30 30 30 29 29 28 27 27 26 25 23 23 23 22 22 23 23 23 23 20 17 16 18 20 21 20 19
47 46 45 45 44 43 43 42 41 40 38 36 35 34 33 32 32 32 31 30 29 28 28 28 27 25 25 25 24 24 25 25 24 25 22 18 16 19 22 22 21 21
48 47 46 46 45 45 44 44 43 42 40 38 37 36 35 34 34 33 33 32 31 30 30 29 29 27 26 27 27 26 26 25 25 27 26 22 19 21 24 24 23 22
48 47 47 46 46 46 45 44 44 43 41 40 38 38 38 37 36 35 34 34 34 33 32 31 30 29 29 29 29 29 28 27 26 28 29 27 25 26 26 25 25 25
48 47 47 47 46 46 46 45 44 43 43 41 39 39 40 39 37 36 36 35 35 35 35 34 33 32 31 31 31 31 30 28 28 29 30 30 29 29 28 27 27 27
47 47 48 48 47 47 47 46 46 45 44 43 41 39 40 40 39 38 37 37 38 38 38 37 36 35 34 33 33 33 32 30 29 29 30 31 31 31 30 29 28 28
47 48 48 48 48 47 47 47 47 46 46 45 42 40 40 40 40 40 39 39 39 39 39 39 38 38 37 36 35 35 34 32 31 31 31 32 32 32 31 30 29 29
47 47 47 47 47 47 47 47 46 46 46 45 43 41 40 40 41 41 40 39 39 39 39 39 39 40 40 39 37 37 36 35 34 33 33 33 33 33 33 32 31 30
49 48 47 47 46 46 46 46 46 45 45 44 44 42 41 40 41 42 41 40 39 40 40 39 40 41 42 42 40 39 39 38 37 35 34 34 35 35 34 33 33 33
50 49 48 47 47 47 47 47 46 45 45 44 44 43 41 39 39 40 40 40 40 40 40 40 40 42 44 44 43 42 42 40 39 38 36 35 36 36 35 35 34 34
50 49 49 48 48 48 49 48 47 46 46 46 45 44 42 40 39 40 40 40 40 40 41 41 42 43 44 46 45 44 44 42 41 41 39 37 37 37 37 36 36 36
49 49 48 48 48 48 49 49 48 48 47 47 46 46 44 42 41 41 41 40 39 40 41 42 43 44 45 46 47 46 45 45 43 42 41 39 38 39 39 38 38 38
48 47 47 47 47 48 49 49 48 48 48 48 47 47 46 45 43 43 42 42 41 40 40 42 43 44 46 47 47 46 46 46 45 44 43 41 40 41 40 39 39 38
46 45 46 46 47 48 48 48 48 48 48 48 48 47 46 45 44 43 39 40 43 39 38 43 44 44 46 47 46 46 45 46 47 47 46 43 42 42 42 40 39 39
45 45 45 45 46 47 47 47 47 46 46 48 48 48 46 40 40 40 33 32 38 34 31 37 43 45 46 47 46 46 45 45 47 48 48 46 44 44 43 42 41 40
44 44 45 45 46 47 47 47 47 45 46 47 47 49 47 37 34 36 31 28 32 30 26 30 37 43 47 46 46 46 44 44 45 46 48 48 46 45 46 44 43 42
44 44 45 45 45 46 47 47 47 46 46 47 47 48 46 38 34 33 30 27 29 30 30 29 31 38 45 47 46 46 44 45 46 46 48 49 48 48 47 46 46 44
43 44 44 44 45 46 47 47 46 46 46 47 48 47 44 43 40 34 30 29 30 32 33 32 30 35 43 46 46 46 45 46 47 47 49 50 50 50 49 49 49 48
42 43 44 44 45 45 46 45 45 46 45 45 46 45 44 44 42 38 35 32 31 32 32 31 31 34 39 44 46 47 46 46 46 47 49 51 51 50 51 51 49 49
41 41 41 41 42 43 44 44 44 44 44 43 43 43 44 41 37 37 38 33 30 33 33 31 32 34 37 41 45 45 44 44 45 47 49 51 51 51 52 53 50 48
38 37 37 38 40 42 42 42 42 42 42 43 42 40 41 40 37 36 36 32 32 33 32 32 33 33 35 40 42 42 42 43 44 47 50 52 52 51 52 53 51 46

ECMWFNIL_850_spd_027.txt.gz
Wind_Speed
40 39 39 38 38 37 35 34 32 31 31 29 27 27 27 27 25 23 23 23 22 20 20 20 20 18 17 16 15 15 15 15 15 14 15 13 11 11 14 14 14 13
40 40 40 39 38 38 37 36 35 33 33 33 29 26 25 26 27 26 25 26 24 21 20 20 21 19 19 17 17 17 17 17 17 16 17 15 12 13 14 15 15 15
41 41 41 40 40 39 39 38 37 36 35 34 33 29 26 25 27 28 27 26 26 24 21 21 21 20 20 19 18 18 18 19 19 18 18 17 14 14 14 15 16 16
43 42 42 41 41 40 39 39 38 38 37 36 35 34 30 27 26 27 28 27 27 26 24 23 23 22 21 21 20 20 19 20 19 19 20 19 17 15 15 16 16 16
44 43 43 42 41 40 40 40 40 39 39 38 36 35 33 31 29 28 29 29 28 27 27 26 25 24 24 23 22 22 21 21 21 21 21 21 19 17 16 17 18 17
45 45 44 43 43 42 41 41 41 40 39 38 37 36 35 34 33 31 30 30 29 28 27 27 27 27 26 25 24 24 23 22 22 22 22 22 21 19 17 18 19 19
47 46 45 44 44 43 43 43 41 40 40 38 37 37 36 35 35 34 32 31 30 29 28 28 28 28 28 27 27 26 25 24 23 24 24 24 24 22 20 19 20 21
48 47 46 45 45 44 45 44 42 42 41 40 39 38 37 37 36 35 34 32 31 30 29 29 29 30 29 29 29 28 27 26 26 26 26 25 25 25 24 22 21 22
49 48 47 46 46 46 46 46 44 43 42 41 41 40 38 38 38 36 35 34 33 32 31 31 31 31 30 30 30 30 29 28 29 28 28 27 26 25 26 26 24 24
49 49 49 48 48 48 47 47 45 43 43 43 42 41 40 39 38 38 37 36 35 34 34 34 34 34 33 32 32 31 31 30 30 30 29 29 28 25 27 29 27 27
50 50 51 50 50 49 48 47 46 44 44 45 44 43 41 40 40 40 39 39 38 37 37 37 37 36 36 35 34 33 32 32 32 32 31 31 31 27 27 30 31 30
51 51 52 51 51 50 49 47 46 45 43 44 45 44 42 42 42 42 41 41 41 40 39 39 39 39 38 37 36 35 35 33 33 34 34 33 33 30 28 31 33 33
50 50 51 51 51 50 49 48 47 44 41 40 42 44 43 42 42 43 43 43 43 42 41 41 41 41 41 40 39 37 37 37 35 36 36 35 35 34 30 30 32 35
48 48 49 49 49 49 48 48 48 44 40 38 39 41 43 41 40 42 43 43 43 43 43 43 42 42 42 42 42 40 40 39 38 38 37 36 37 36 33 30 30 33
46 46 47 47 47 47 47 48 47 45 41 39 39 40 41 40 38 37 38 41 42 42 42 43 43 44 45 45 44 43 42 41 40 40 39 37 37 37 36 32 30 32
43 44 46 47 47 46 47 47 46 45 44 42 40 38 38 39 37 34 33 35 39 41 42 43 44 45 45 46 46 45 45 44 42 42 41 39 37 37 37 34 30 31
44 45 45 46 46 46 46 47 46 46 45 44 43 40 38 38 38 36 34 32 34 38 39 41 44 45 45 46 46 45 45 45 45 44 43 43 41 39 40 38 33 30
46 47 46 46 47 45 46 46 46 47 46 46 46 45 43 41 41 41 39 36 34 35 36 37 39 43 44 45 46 46 45 45 46 46 45 45 45 43 43 42 39 35
45 46 46 47 47 46 45 45 45 46 46 47 47 46 45 45 45 45 44 41 39 38 37 36 37 40 42 43 44 45 45 45 46 46 46 46 47 48 47 46 45 42
44 45 45 45 45 45 45 45 45 45 45 45 45 45 45 46 46 46 45 44 43 41 39 40 39 39 41 42 43 44 44 45 45 46 47 47 47 48 49 49 49 47
44 44 43 43 43 44 44 44 44 44 44 44 43 42 43 44 45 45 44 44 45 42 41 41 39 38 40 42 42 42 43 43 44 46 47 49 48 47 46 48 52 52
44 44 43 43 42 42 43 43 43 43 43 43 41 38 37 39 40 40 39 40 42 42 40 39 37 37 39 41 42 42 41 42 44 46 47 49 51 50 46 44 47 52
42 43 43 43 42 42 43 43 43 43 42 42 41 37 34 35 36 34 32 33 37 40 40 39 37 36 38 40 41 41 41 42 44 46 47 48 50 52 51 46 42 45
40 42 42 42 42 42 42 41 41 41 40 40 41 38 35 33 33 33 33 34 36 39 40 40 38 37 38 41 41 41 43 43 44 46 48 49 50 51 53 53 47 42
38 39 40 41 41 41 40 39 39 39 39 38 39 38 37 34 32 33 35 36 36 37 38 40 39 37 38 40 41 42 44 44 44 45 48 50 52 52 53 56 53 43
36 36 37 38 39 38 38 37 37 37 37 37 36 35 35 34 33 33 33 34 34 35 36 39 40 38 38 39 39 41 43 44 45 46 48 51 52 52 53 54 49 42

ECMWFNIL_850_spd_030.txt.gz
Wind_Speed
39 38 38 37 36 35 35 33 31 29 28 28 28 28 28 28 25 23 23 22 21 20 20 20 20 18 16 15 16 16 16 16 15 15 15 15 14 13 13 13 15 18
39 38 39 39 38 37 36 35 34 32 31 29 28 27 27 27 27 25 23 23 22 20 20 20 20 19 18 17 17 17 17 18 17 16 16 16 16 15 14 14 14 17
41 40 40 40 39 38 37 36 35 34 33 31 29 28 26 25 26 26 25 24 24 22 21 20 20 20 19 19 19 18 18 19 19 19 18 18 17 16 16 16 15 16
43 42 42 41 40 39 38 37 37 35 34 32 31 30 28 25 24 25 26 26 27 26 24 22 21 20 20 20 21 21 20 20 20 21 21 19 18 17 17 17 17 17
43 43 42 42 41 40 39 39 38 37 36 34 32 31 30 28 26 25 25 27 28 28 26 24 23 22 21 21 22 22 22 22 21 22 23 22 20 19 19 19 19 20
44 44 43 43 42 41 40 40 39 38 37 36 34 32 31 30 29 27 26 27 28 28 28 27 25 24 23 23 23 23 23 23 23 24 25 25 24 22 21 21 21 22
45 45 44 43 43 42 41 41 40 39 38 37 35 34 33 32 31 31 29 28 28 28 28 28 27 26 26 26 26 25 24 24 25 25 25 26 26 24 23 23 22 23
46 45 45 44 44 43 43 42 41 40 39 37 36 35 35 34 33 32 32 31 29 29 29 28 28 27 27 28 28 28 26 26 26 27 27 27 28 27 26 25 25 25
47 46 46 46 45 44 44 43 42 41 40 38 37 36 36 35 34 33 33 33 32 31 30 30 29 29 29 29 30 29 28 27 28 29 29 28 29 30 29 28 27 27
47 47 47 47 46 46 45 44 44 43 41 40 39 38 36 36 35 34 33 34 34 33 33 32 31 31 31 31 32 32 30 29 29 29 31 31 30 31 31 30 30 30
48 48 48 48 47 47 46 45 45 44 43 41 40 40 38 36 36 36 35 35 35 35 35 34 33 33 33 33 33 33 33 31 30 30 31 32 33 32 32 32 32 32
49 49 48 48 47 47 46 46 46 45 44 43 41 41 39 37 37 37 37 37 36 36 36 36 35 35 35 35 35 35 34 33 32 31 32 33 34 34 33 33 34 34
48 48 48 48 48 47 46 45 45 45 44 42 41 41 39 38 39 38 38 38 38 38 37 37 37 37 37 37 37 36 36 36 35 34 33 34 35 35 35 35 35 35
46 46 46 47 47 47 46 44 44 43 42 40 39 39 39 38 39 39 39 39 39 39 39 39 39 39 39 39 39 38 38 37 37 36 36 36 37 37 37 37 37 37
43 44 44 46 46 46 46 45 45 43 42 41 40 39 38 37 37 38 38 39 40 40 40 40 41 41 41 41 41 40 40 39 39 38 38 37 38 38 39 39 39 39
42 42 43 44 45 46 46 46 45 44 43 42 41 40 39 38 37 36 37 38 39 40 41 42 42 43 43 43 43 42 42 41 41 40 40 40 39 40 40 40 40 41
42 42 42 43 45 45 46 46 46 45 45 43 42 42 41 40 38 37 37 37 38 39 41 42 43 43 43 43 43 43 43 43 43 43 42 42 42 42 42 42 42 42
43 43 43 43 44 45 45 46 45 46 46 45 44 43 42 42 41 40 39 38 38 38 40 42 43 43 43 43 43 43 42 42 43 44 44 44 44 44 44 44 44 44
44 44 44 44 44 44 44 45 46 47 47 47 46 44 44 43 44 43 42 41 41 41 41 42 42 42 42 42 42 42 41 41 42 44 45 46 46 46 45 45 45 45
43 44 44 45 44 44 44 45 46 47 47 47 46 44 45 46 45 45 45 44 44 44 44 43 43 42 42 42 41 40 40 40 41 43 45 46 47 47 47 47 47 47
43 43 44 44 44 44 44 45 46 46 46 46 45 45 46 47 47 47 47 46 46 46 45 45 45 43 43 42 42 40 39 38 39 41 44 46 47 47 47 48 48 48
43 43 43 43 43 44 45 45 45 45 45 45 44 44 44 46 47 47 47 47 46 46 46 47 47 45 44 44 43 41 40 39 39 39 42 45 47 48 48 48 48 48
43 42 42 42 43 44 45 45 44 43 43 43 43 42 42 44 46 47 47 47 47 47 47 49 48 47 46 46 45 43 42 42 41 41 41 44 47 49 49 49 49 48
42 42 42 42 42 42 43 43 42 42 41 41 41 41 41 41 40 41 44 46 47 47 48 49 49 47 47 47 45 45 44 44 43 42 43 45 47 48 50 50 50 50
39 40 41 41 41 41 41 41 41 40 40 40 40 41 41 38 36 35 38 41 43 44 45 46 47 46 46 46 46 45 44 44 43 43 45 47 47 48 50 51 51 52
37 38 39 39 39 39 39 39 37 37 37 37 38 39 39 38 36 35 35 36 37 39 40 42 43 43 43 43 44 43 44 44 44 45 48 48 47 48 49 50 52 52

ECMWFNIL_850_spd_033.txt.gz
Wind_Speed
40 40 40 39 38 37 36 36 34 32 30 31 30 29 27 25 23 21 20 20 19 19 19 19 18 17 17 16 16 16 16 16 15 14 14 14 14 15 14 14 16 17
41 40 40 40 39 38 37 36 35 33 32 32 32 31 29 27 25 23 21 20 20 20 20 19 19 19 18 18 18 18 17 17 17 16 16 16 15 15 16 15 14 16
43 42 41 41 40 39 38 37 36 35 32 31 32 32 31 30 28 26 24 22 21 20 20 20 20 20 20 19 19 20 19 18 18 17 17 17 17 16 16 16 15 15
44 43 42 41 40 39 39 38 38 36 34 32 31 30 30 29 29 28 27 25 24 22 21 21 21 21 21 21 21 21 21 20 19 19 19 19 18 18 17 17 17 16
44 43 42 41 41 40 40 40 39 38 37 35 33 31 30 29 28 28 27 27 25 25 24 23 22 21 21 21 22 22 22 21 21 21 21 21 20 20 19 19 20 18
45 44 43 42 41 41 41 41 40 39 38 37 35 34 33 31 30 29 28 27 26 26 25 25 24 23 22 22 23 23 22 22 23 23 23 23 22 22 21 21 21 21
47 46 44 43 42 42 42 42 41 41 39 38 37 36 35 33 32 30 29 28 27 26 26 26 26 25 25 24 24 24 23 23 23 24 25 24 24 24 23 23 23 22
49 47 46 45 44 43 43 42 42 41 39 39 38 37 36 35 34 32 31 30 28 27 27 27 27 27 26 26 26 26 25 25 24 25 25 25 25 26 25 25 25 24
50 49 48 47 46 45 44 43 42 41 39 39 38 38 37 36 35 34 32 32 31 30 29 28 28 28 28 28 27 27 27 27 27 27 26 26 27 27 27 27 27 27
51 50 49 48 48 47 45 43 42 41 40 40 39 38 38 38 37 35 34 33 33 33 32 31 31 30 30 29 29 29 28 28 28 29 29 28 28 27 27 28 29 29
51 51 50 49 48 47 46 44 43 42 41 40 40 39 39 38 38 37 35 35 35 35 34 34 34 32 32 31 30 30 30 29 29 30 31 31 30 29 28 29 30 30
52 51 50 49 49 47 46 45 44 43 42 42 41 40 40 40 39 38 37 37 36 36 35 35 35 35 34 33 32 32 31 31 31 31 32 32 32 31 30 31 32 32
52 51 51 49 48 47 46 45 44 44 43 42 42 41 41 41 40 39 39 38 37 36 36 36 36 36 36 35 34 34 33 33 33 33 33 34 34 33 33 33 33 33
51 50 49 48 47 47 46 45 45 44 44 43 42 42 42 41 41 40 40 39 39 38 37 37 37 38 38 37 36 36 36 36 35 35 35 36 36 35 35 35 35 35
50 49 48 47 47 47 46 45 45 45 44 44 43 43 42 42 41 41 41 41 40 39 39 39 40 40 40 39 39 38 38 38 38 38 37 37 38 38 38 38 38 38
49 49 48 47 47 47 46 45 45 44 44 44 44 43 43 42 42 42 42 42 42 41 41 41 42 42 42 41 40 40 40 40 40 40 40 39 39 40 40 40 40 40
47 48 48 48 47 47 46 45 45 44 44 44 44 43 43 42 42 42 42 43 42 42 42 42 43 43 43 42 42 42 42 42 42 42 42 42 42 42 42 42 42 42
46 46 47 47 47 46 46 45 45 45 45 44 44 44 43 43 42 42 42 42 42 42 42 43 43 43 43 43 43 43 43 43 44 44 45 45 45 45 44 44 44 44
45 45 45 46 45 45 45 45 45 46 46 45 45 44 44 44 43 43 43 43 43 43 43 44 44 43 43 42 42 42 42 43 44 45 46 46 47 47 46 46 46 46
46 45 45 44 44 43 44 44 46 46 46 45 45 45 45 45 44 44 44 44 44 45 44 44 44 44 43 42 42 41 41 42 43 45 46 47 47 48 48 48 47 47
48 47 45 44 43 43 43 44 45 46 46 46 46 46 46 46 46 45 45 45 45 45 46 46 46 45 44 43 43 41 40 41 41 43 45 47 48 48 49 49 49 48
49 48 46 45 44 43 43 43 44 44 45 45 46 46 47 46 47 47 46 46 46 46 47 48 48 47 46 45 44 42 40 40 40 41 43 45 47 48 49 49 49 49
47 48 47 46 45 44 44 44 43 43 43 44 45 46 47 47 48 48 48 47 47 47 48 49 49 48 47 46 44 42 41 40 40 41 42 43 45 45 47 48 49 50
43 46 47 46 46 46 45 44 43 43 42 42 44 45 46 46 46 47 47 48 48 49 49 50 49 48 47 46 44 42 41 40 40 41 42 43 43 43 44 45 47 49
39 42 45 46 46 45 44 43 42 42 41 41 42 43 44 44 44 45 46 47 48 48 49 49 49 47 46 46 45 43 41 39 39 40 43 44 43 42 43 44 46 47
37 39 42 44 45 44 43 42 41 41 41 40 40 41 41 42 43 44 45 45 45 46 47 47 47 46 45 45 44 43 41 40 39 41 43 42 42 43 44 45 45 46

ECMWFNIL_850_spd_036.txt.gz
Wind_Speed
44 43 43 43 42 41 39 38 36 34 32 29 27 25 24 24 23 22 22 22 21 20 21 21 20 19 18 18 18 18 17 16 15 14 14 15 15 16 17 17 16 15
45 43 42 41 42 42 41 40 37 35 32 29 28 26 24 23 23 23 23 22 21 21 21 22 22 20 19 19 18 18 18 17 17 16 15 15 15 16 17 17 17 17
46 45 43 41 41 42 42 40 39 36 33 31 29 27 25 24 24 23 23 22 21 21 20 21 21 21 21 20 19 19 19 18 17 16 16 16 16 16 17 18 18 18
47 46 44 42 41 41 42 42 41 38 36 33 31 30 28 27 25 24 23 23 22 21 20 20 21 21 22 21 21 21 21 20 18 18 18 17 17 17 17 18 19 19
48 47 45 43 41 41 42 43 42 39 37 35 33 32 31 29 28 27 26 25 24 23 22 21 21 21 22 22 23 23 23 22 21 20 21 20 19 18 18 18 19 20
48 47 46 44 42 42 42 42 41 39 38 36 34 34 33 31 30 29 28 27 26 25 24 23 23 23 23 23 24 25 25 24 23 23 23 23 21 20 19 20 21 21
48 47 46 45 44 43 43 42 40 39 38 36 35 35 34 33 31 30 29 28 27 26 25 25 25 25 25 24 24 26 26 26 25 25 25 24 24 23 22 22 22 23
47 46 46 46 45 45 45 43 42 41 39 38 37 36 35 34 33 32 30 29 28 28 27 26 26 26 26 26 26 26 27 27 27 27 27 26 26 26 25 24 24 25
46 45 46 46 46 46 46 45 44 42 41 40 38 37 36 35 35 34 32 32 31 30 29 29 28 28 27 27 28 28 28 28 28 28 28 27 27 27 26 26 26 26
46 45 46 47 47 47 47 46 45 44 43 42 40 39 38 36 36 35 34 34 33 32 32 31 31 30 29 29 29 29 29 29 29 30 30 29 29 28 27 28 28 28
45 44 45 46 47 47 47 46 45 45 44 43 43 42 40 39 38 37 36 36 35 35 34 33 33 32 31 31 30 30 30 30 30 31 31 31 30 29 29 29 30 30
44 43 44 45 46 46 46 45 45 45 45 44 44 43 43 42 41 40 39 38 37 36 35 35 34 34 33 32 32 32 32 31 31 31 32 32 32 32 31 31 31 31
45 43 42 43 45 46 46 45 45 45 45 44 43 43 44 43 43 42 40 39 38 37 37 37 36 36 36 35 34 34 34 34 33 33 33 33 34 34 33 33 33 33
45 42 41 42 43 45 46 46 46 46 45 44 44 44 44 43 43 42 41 40 40 39 38 38 38 38 38 37 37 36 36 36 35 35 35 35 35 35 35 35 35 34
44 43 42 42 43 45 46 47 47 46 46 45 45 44 44 43 42 42 41 41 41 41 40 40 40 40 40 39 39 38 37 37 37 37 37 37 37 37 36 36 36 36
44 44 43 43 44 45 46 47 47 47 47 46 46 45 44 43 42 42 42 42 42 42 42 42 42 42 41 40 39 39 39 39 39 39 39 40 40 40 39 39 38 38
43 43 44 45 45 46 46 47 47 47 48 47 47 46 45 44 43 43 43 43 43 43 43 44 44 43 42 41 40 39 40 40 41 41 41 42 42 43 42 42 41 41
41 41 42 44 45 46 46 46 46 47 47 48 47 47 46 46 45 44 44 43 43 44 44 44 44 43 42 42 41 40 40 41 42 43 44 44 44 44 44 43 43 43
39 39 40 41 41 43 44 45 46 47 47 48 47 47 46 47 46 45 44 44 44 44 45 45 44 43 42 41 41 40 40 40 42 43 44 44 45 45 45 44 45 45
38 38 39 38 38 38 40 42 44 46 47 47 47 47 47 47 47 46 45 45 45 45 45 44 44 42 41 41 41 40 40 40 41 42 43 44 44 45 45 45 45 45
39 39 38 38 37 37 38 39 41 42 44 45 46 47 48 48 47 47 47 46 46 46 46 46 45 43 42 42 41 40 40 40 41 41 43 43 44 45 45 45 45 46
40 40 39 38 37 38 39 39 39 40 40 42 44 46 47 47 48 48 48 48 47 47 47 47 46 45 44 44 42 41 40 40 41 41 42 43 44 45 45 45 46 46
40 40 40 39 39 39 40 39 39 38 38 39 41 43 45 47 47 48 48 48 48 48 48 48 47 46 45 44 43 41 40 40 40 41 42 43 44 44 44 45 45 46
41 40 40 40 40 41 40 39 39 38 38 38 39 41 42 43 44 45 46 46 47 47 48 48 48 46 46 45 44 42 41 40 40 41 42 43 43 43 43 44 44 44
40 40 40 40 40 40 40 39 39 38 38 38 39 40 40 40 41 42 43 44 45 46 46 47 47 46 46 45 44 42 41 41 40 41 42 43 43 43 43 43 44 44
40 40 40 40 40 39 38 38 39 39 39 40 40 40 40 40 40 41 42 42 43 44 44 45 46 46 45 44 43 42 41 41 41 42 43 43 43 43 44 44 44 43

ECMWFNIL_850_spd_039.txt.gz
Wind_Speed
42 41 41 40 40 39 37 35 34 34 33 32 31 28 26 23 22 21 20 21 22 21 20 20 20 19 18 18 19 19 18 18 17 16 15 16 15 14 15 15 16 17
44 43 41 40 40 40 39 37 35 34 34 33 32 30 27 25 23 22 21 21 22 22 21 20 20 20 20 19 20 20 20 19 18 17 17 17 16 15 15 16 16 17
46 44 43 42 40 40 39 38 37 36 35 34 33 31 29 26 23 21 21 21 22 23 22 21 21 21 21 21 21 21 21 20 19 18 18 18 17 16 16 16 16 17
47 46 44 43 41 40 39 39 38 37 36 35 34 33 31 28 25 22 21 20 22 22 22 22 22 22 22 22 23 23 22 22 20 19 19 19 18 18 17 16 17 18
47 46 45 43 42 41 40 39 39 37 37 36 35 35 33 30 27 24 22 21 21 22 22 22 22 22 23 23 23 24 24 23 22 21 21 21 20 19 18 17 18 18
46 46 45 44 42 42 41 40 38 37 37 36 36 36 34 32 29 26 24 23 22 23 23 22 22 22 23 23 24 24 24 24 24 23 24 23 21 20 19 19 19 20
45 45 44 43 42 42 41 40 39 37 36 36 36 36 35 34 31 29 26 25 24 25 24 24 23 23 23 23 24 25 25 25 25 25 25 24 23 23 22 21 21 21
44 43 43 43 42 42 41 40 40 38 37 36 36 36 36 34 33 30 29 28 27 27 27 26 25 24 24 25 25 26 26 26 26 26 26 25 25 25 23 23 23 23
43 43 43 43 43 42 41 40 39 38 38 37 36 36 36 35 34 32 31 30 29 29 28 28 27 26 26 26 27 27 27 27 27 27 27 27 26 25 24 24 24 24
43 42 43 43 43 43 42 40 39 38 38 37 37 37 37 36 35 35 34 33 32 31 30 30 29 28 27 27 27 28 28 28 27 28 28 28 27 26 25 25 25 25
42 42 43 44 44 44 42 40 39 39 38 37 37 37 37 37 37 36 36 35 34 33 32 32 31 30 29 28 28 28 28 28 28 28 29 29 29 28 27 27 27 26
43 43 43 43 43 43 42 41 41 39 38 37 37 37 37 37 37 37 37 36 35 34 34 34 33 33 32 31 30 30 30 30 29 29 29 30 30 30 30 29 29 28
44 42 41 41 41 41 41 41 41 40 39 37 37 37 37 37 37 37 37 37 36 36 35 35 35 35 34 33 33 32 31 31 31 31 31 30 30 30 30 30 31 31
43 41 40 38 38 39 40 41 42 42 40 38 37 37 37 36 36 36 36 37 37 37 37 37 37 37 37 36 35 34 33 33 32 32 32 31 31 31 30 31 31 32
42 41 40 38 37 38 40 41 42 42 41 40 39 38 36 36 35 36 36 37 38 38 39 39 40 40 39 38 37 36 35 35 34 34 33 33 32 32 31 32 32 32
42 42 41 39 38 38 39 40 41 42 42 42 41 40 37 36 36 36 37 38 38 39 40 40 41 40 39 38 38 37 36 36 36 36 35 35 34 34 34 33 33 33
43 42 41 40 39 38 38 39 40 41 42 42 42 41 39 37 37 37 38 38 38 39 40 41 41 40 39 38 38 38 38 38 38 37 37 37 37 36 36 36 35 35
42 42 41 41 39 38 37 37 38 39 41 41 42 41 39 39 39 38 38 38 39 40 41 42 42 40 39 39 39 38 38 39 39 39 39 39 39 38 38 38 38 38
41 41 41 40 39 38 36 36 37 39 40 40 41 40 39 39 39 39 38 38 39 41 41 42 41 40 40 39 39 38 38 39 40 40 40 40 40 40 40 39 39 39
40 40 39 38 37 36 36 36 37 38 38 39 39 40 40 40 40 39 39 39 40 40 41 42 41 40 39 39 39 39 39 40 41 41 41 41 41 41 40 40 40 40
39 38 38 37 36 35 35 36 35 36 36 37 38 38 39 39 39 39 39 39 39 40 41 42 41 39 39 39 39 39 39 40 41 41 41 41 41 41 41 41 41 41
37 37 37 36 35 35 36 35 34 34 34 34 34 35 36 37 38 38 38 38 38 39 41 42 40 38 38 39 38 38 39 40 41 41 41 41 40 40 40 40 40 40
36 36 36 35 35 36 36 35 33 32 31 31 32 33 33 34 35 35 35 36 36 37 39 40 39 37 38 38 38 38 39 40 40 40 40 40 40 39 38 38 38 38
35 35 35 34 35 35 34 33 32 31 30 30 31 31 30 30 30 31 32 32 33 34 36 38 38 36 36 37 37 37 38 39 39 39 39 40 40 39 38 38 38 37
35 35 35 34 34 34 33 32 31 30 29 29 30 31 30 30 30 31 31 31 31 32 32 34 35 34 34 35 35 35 36 37 37 38 40 40 40 39 38 38 38 38
36 36 36 35 34 33 32 31 30 30 30 31 31 31 31 32 32 33 33 31 31 30 30 32 32 32 31 32 32 33 33 34 36 38 39 39 38 38 38 38 38 38

ECMWFNIL_850_spd_042.txt.gz
Wind_Speed
35 35 35 35 36 35 34 33 32 31 30 28 26 24 22 20 19 19 18 18 17 16 16 17 17 17 17 16 16 16 16 16 16 14 13 13 12 12 12 12 13 13
34 35 35 36 36 36 34 34 33 32 31 29 27 25 23 21 20 20 20 19 19 18 17 17 18 18 18 18 17 17 17 17 17 16 15 14 13 13 13 13 13 13
35 35 35 36 36 36 34 33 32 32 32 30 28 26 25 23 22 21 21 21 20 20 18 18 19 19 19 19 18 18 18 18 18 17 17 16 15 15 14 14 14 14
37 36 35 36 36 36 34 33 32 32 32 31 29 28 26 25 24 23 22 22 21 20 20 19 20 20 20 20 19 19 19 19 19 18 18 17 17 16 15 15 15 15
38 37 36 36 36 37 36 34 33 31 31 31 30 29 28 27 26 24 23 23 22 21 20 20 21 22 21 21 21 21 20 20 20 19 19 18 17 17 16 16 16 16
40 38 37 36 36 37 37 36 34 32 31 31 30 30 30 29 28 26 25 24 22 22 20 20 21 21 22 22 22 22 21 21 21 21 21 20 19 18 18 17 17 17
41 39 37 36 36 36 37 36 35 34 33 32 31 30 30 30 30 28 27 26 24 23 22 20 20 20 21 22 22 22 21 21 21 21 21 21 20 20 19 19 19 18
41 39 38 36 36 36 36 36 36 35 34 33 33 32 31 31 31 30 29 28 27 26 24 22 21 20 21 21 22 22 21 21 20 20 21 21 21 21 20 20 20 20
41 39 38 36 36 35 35 35 35 34 34 34 34 33 31 31 30 30 30 29 29 28 27 25 23 22 22 22 22 22 22 21 21 21 21 22 22 21 21 21 21 21
41 40 38 37 36 35 34 33 33 33 33 34 34 33 32 31 30 30 30 30 29 29 28 27 26 25 24 24 23 24 23 23 22 22 23 23 23 22 22 22 22 22
42 41 40 38 36 35 33 31 31 32 32 33 33 33 32 32 31 31 30 30 29 29 29 28 27 26 25 25 24 24 24 23 23 23 23 24 24 24 23 24 24 23
44 42 40 38 37 35 33 32 31 31 32 32 32 32 32 32 32 32 31 30 29 28 28 28 27 27 27 26 25 25 24 24 23 23 23 24 24 25 25 25 25 25
44 43 41 39 37 34 32 31 31 31 31 31 31 32 32 32 32 32 32 31 30 29 28 28 28 28 28 27 27 26 26 26 25 25 24 25 25 25 25 26 26 26
44 42 41 38 36 34 32 31 30 30 30 30 31 32 32 32 32 32 32 31 31 30 30 29 30 30 29 29 28 28 27 27 26 26 26 26 26 26 26 26 26 26
44 42 41 39 36 34 32 31 30 29 29 30 31 32 32 32 32 32 32 32 33 32 32 32 32 31 31 30 29 29 28 28 27 27 27 27 28 28 27 27 27 27
44 43 41 39 37 35 33 32 30 29 29 30 30 31 32 32 32 32 33 33 33 33 33 34 33 32 31 31 30 29 29 28 28 28 28 29 29 29 29 29 29 29
43 43 41 40 38 36 34 33 32 30 30 29 30 31 31 32 32 33 33 34 34 34 34 35 34 32 31 31 30 30 29 29 29 29 29 30 30 30 30 30 30 30
43 43 42 40 38 36 35 33 33 32 31 30 30 30 31 32 33 33 33 34 34 34 35 35 34 32 31 31 31 30 30 30 30 30 30 31 31 31 31 31 31 31
42 42 41 40 38 36 34 33 34 34 33 32 30 30 30 32 33 33 33 34 34 35 35 35 34 33 32 32 31 30 30 30 31 31 32 32 32 33 33 32 32 31
41 41 40 39 37 35 34 34 34 34 33 32 31 30 31 32 32 33 33 34 34 34 35 35 34 33 32 32 31 31 31 31 32 32 33 33 33 33 33 32 32 31
41 40 39 38 37 36 35 35 35 34 33 32 32 32 32 31 31 32 32 32 33 33 34 35 34 33 32 32 32 31 31 32 32 33 33 33 33 33 32 32 31 31
39 39 38 37 36 36 36 36 35 34 33 32 32 32 32 31 31 32 31 31 31 32 33 34 34 32 32 32 31 31 31 32 33 33 33 33 32 31 31 30 30 30
36 36 35 35 35 36 36 35 33 32 31 31 32 32 31 31 31 31 30 30 31 31 32 32 32 30 30 30 29 29 30 31 31 31 31 31 30 29 29 29 28 28
33 32 32 32 33 33 32 31 30 30 29 29 30 30 29 29 28 28 28 28 28 29 29 30 29 27 27 27 27 27 28 29 29 29 29 30 29 28 27 27 27 26
30 30 30 30 30 30 28 28 27 27 27 28 29 29 27 27 27 27 27 26 26 26 26 27 26 23 22 23 23 23 24 25 25 26 27 28 27 26 25 25 25 24
30 30 30 30 29 28 27 26 26 26 27 29 29 28 27 28 28 29 28 26 25 25 24 25 24 20 18 19 19 19 20 21 23 24 25 24 24 24 23 23 23 23

ECMWFNIL_850_spd_045.txt.gz
Wind_Speed
32 32 32 31 31 30 30 30 30 29 28 26 25 23 22 19 18 18 18 17 16 15 14 13 13 12 11 11 11 12 12 11 11 10 11 10 10 9 9 9 9 10
32 32 32 31 31 31 30 29 29 28 28 27 26 25 22 19 18 18 19 18 17 16 15 14 13 12 12 12 12 13 13 13 12 12 12 12 11 11 10 9 10 10
33 32 32 32 32 31 30 30 29 28 28 27 27 25 23 21 19 19 19 18 18 17 16 15 14 13 13 13 13 14 14 13 13 13 13 13 13 12 11 11 11 11
35 33 32 31 31 31 30 30 29 28 28 28 27 26 25 23 21 20 20 19 19 18 17 16 16 15 15 14 15 15 15 14 14 14 14 14 13 13 12 12 12 12
35 34 32 31 31 31 30 29 29 28 28 28 27 27 26 24 23 22 21 20 19 18 18 17 17 17 16 16 16 17 17 16 15 15 15 15 14 14 13 13 13 13
36 34 33 32 31 31 30 29 28 28 28 27 27 27 26 26 24 23 22 21 20 19 19 18 18 18 17 17 17 18 19 18 17 16 16 16 15 15 14 14 14 14
37 35 34 33 33 32 30 29 28 28 27 27 27 26 26 26 25 24 23 22 21 21 20 19 19 18 18 18 18 19 20 19 19 18 17 16 16 16 15 15 15 15
37 36 35 34 34 33 32 30 29 28 27 27 27 26 26 25 25 25 24 24 23 23 22 21 20 19 19 19 18 19 19 20 19 18 17 17 16 16 15 15 15 15
37 36 35 35 34 34 33 31 30 29 29 28 28 27 27 26 25 25 25 25 25 25 24 23 22 21 20 20 19 18 18 19 19 19 18 17 17 16 16 16 16 16
38 37 36 35 35 34 33 32 31 30 30 29 28 28 28 27 26 26 26 26 27 27 27 25 24 24 23 22 20 19 18 18 19 19 19 19 18 18 17 17 17 17
40 38 37 36 35 35 34 32 31 31 30 29 28 29 29 28 28 28 28 28 28 28 28 27 27 26 25 24 22 21 20 19 20 20 20 21 20 20 20 19 19 19
41 40 38 37 35 35 34 33 31 31 29 28 28 28 29 29 30 30 30 29 29 28 28 28 28 28 27 26 25 23 22 21 21 22 22 22 22 21 21 20 20 20
42 41 38 37 35 34 34 33 32 31 30 28 27 28 28 29 30 31 31 30 29 28 28 28 27 28 28 27 26 25 24 23 23 23 23 23 23 22 21 21 21 20
42 40 38 37 35 34 33 32 32 31 30 29 28 28 28 28 28 29 29 29 29 29 29 28 28 28 28 28 27 26 26 25 24 24 24 24 24 23 22 22 22 21
41 39 38 36 35 34 33 32 32 31 30 30 29 28 27 27 27 27 27 28 29 29 29 29 28 28 28 28 27 27 26 26 25 25 25 25 25 25 24 24 23 22
40 39 37 36 36 35 33 32 32 32 31 31 30 28 28 27 27 27 27 27 28 29 29 29 29 29 28 28 27 27 26 26 26 26 26 26 26 26 25 25 24 24
39 38 37 36 36 35 34 33 32 32 32 31 31 30 29 29 28 28 28 28 29 29 30 30 30 29 28 28 28 27 27 26 27 27 27 27 27 27 27 26 26 25
39 39 38 37 37 35 34 33 32 32 33 32 32 32 31 30 30 29 28 29 29 30 30 31 31 30 29 28 28 28 28 27 27 28 28 28 28 28 28 27 27 26
39 39 38 37 36 35 34 33 33 34 34 33 32 32 32 32 30 29 29 29 29 30 31 31 31 30 29 29 29 28 28 28 28 29 29 29 29 29 29 28 27 27
39 38 38 37 35 34 34 34 34 34 34 33 32 32 33 32 31 30 30 29 29 30 30 31 31 31 29 29 29 29 28 28 28 29 30 30 30 30 29 29 28 27
39 38 37 36 35 34 34 34 34 34 33 32 32 32 32 31 30 30 30 29 29 29 30 30 31 31 30 29 29 28 28 28 29 30 30 30 31 30 30 29 28 27
38 37 36 35 34 34 34 34 34 34 33 32 32 32 31 30 30 31 30 29 29 28 29 30 30 30 29 29 28 28 27 28 29 30 30 31 31 31 30 29 28 28
36 35 35 34 33 34 34 34 33 32 32 31 32 32 32 31 30 30 30 29 29 29 29 30 30 30 29 28 28 27 27 28 30 30 30 31 31 30 30 29 28 27
34 33 33 32 33 33 32 32 32 31 31 31 31 31 31 31 29 29 29 29 29 29 30 29 29 29 29 28 27 27 27 28 29 29 29 30 30 30 29 28 27 26
31 30 30 30 31 30 30 29 29 29 29 30 30 30 30 30 29 29 29 29 28 28 28 28 28 28 28 27 26 26 27 27 27 27 28 29 29 28 27 26 26 24
29 29 29 29 28 27 26 27 26 27 28 29 29 29 29 29 30 30 29 28 27 27 27 26 26 25 25 24 23 24 25 25 25 26 27 27 26 25 24 23 22 21

ECMWFNIL_850_spd_048.txt.gz
Wind_Speed
38 37 36 36 35 34 34 33 30 28 27 26 26 26 25 25 23 20 19 17 16 17 17 16 15 14 13 12 11 10 9 9 9 8 7 7 7 7 7 7 7 7
36 36 35 35 34 34 34 33 31 29 27 26 26 26 26 26 23 21 19 18 17 17 17 16 15 15 14 13 12 11 11 11 11 10 9 8 8 7 8 8 8 8
36 35 35 34 33 33 32 32 31 29 27 26 26 27 27 26 23 21 20 19 18 18 17 17 16 15 15 14 13 12 12 12 12 11 11 10 9 9 8 9 9 9
36 35 35 34 32 32 31 31 31 29 28 27 26 27 27 26 24 22 21 20 19 19 18 18 17 16 15 14 13 13 13 13 12 11 12 11 11 11 9 9 10 10
37 36 35 34 33 32 31 31 31 30 29 28 27 27 27 26 25 24 23 21 20 20 20 19 18 17 16 15 14 14 14 14 13 13 14 14 13 12 10 10 11 10
37 36 35 34 33 32 32 31 31 31 30 29 28 28 27 27 26 25 25 23 21 20 20 20 20 19 18 17 16 16 16 15 15 15 15 15 14 12 11 12 12 11
38 36 35 34 33 32 32 32 32 32 31 29 28 28 28 27 27 26 26 25 23 22 21 21 21 21 20 19 18 17 17 17 18 17 16 15 15 14 13 13 13 13
38 37 35 34 33 33 33 32 32 32 31 30 29 28 27 27 27 27 27 26 24 24 23 23 23 22 20 20 19 19 19 19 19 19 19 18 17 16 15 14 14 14
39 38 36 35 34 33 33 32 32 31 31 30 29 28 27 27 27 27 28 27 26 26 25 25 24 22 21 21 21 20 20 20 20 20 20 19 18 17 16 14 14 14
40 38 37 35 34 34 33 32 31 30 31 30 29 27 27 27 27 28 28 29 28 28 28 27 26 24 23 22 22 21 21 20 20 20 19 19 19 18 16 15 15 15
40 39 38 36 34 34 33 32 30 29 30 31 29 28 27 28 28 29 29 30 30 30 29 29 28 26 25 24 23 23 22 22 21 20 20 19 19 19 18 18 17 17
41 40 39 37 35 34 32 31 30 29 29 31 31 29 28 28 29 30 30 31 31 31 30 30 29 28 27 26 25 24 24 24 23 22 21 20 20 20 20 20 19 19
40 40 39 38 36 35 33 31 30 30 29 30 31 30 29 29 30 31 32 32 32 31 30 30 30 29 29 28 27 26 26 26 25 24 23 22 22 22 22 22 21 21
40 40 39 39 37 36 35 32 31 30 29 30 31 31 29 29 30 32 33 33 32 32 31 30 30 30 30 30 29 28 28 28 27 26 25 25 25 24 24 23 23 22
40 39 39 39 39 38 37 35 34 33 32 31 32 32 30 29 29 30 32 33 32 32 31 31 31 31 31 31 31 30 30 30 29 28 28 27 27 26 26 25 24 24
40 40 39 39 39 39 38 36 36 35 34 34 34 32 30 30 30 30 30 31 32 31 31 31 32 32 33 32 31 30 30 30 30 30 29 29 29 28 27 27 26 26
40 40 39 39 39 39 38 37 36 36 35 35 34 33 31 31 31 31 30 29 29 30 30 31 33 33 33 32 30 30 29 30 30 31 31 30 30 29 29 28 28 28
41 40 39 39 39 39 38 36 36 36 36 35 35 33 33 32 32 32 32 30 29 29 29 30 32 33 33 32 31 30 29 29 30 31 31 31 31 30 30 29 29 29
41 40 39 39 39 38 37 36 36 36 36 35 35 34 33 34 33 33 33 32 31 30 30 30 31 32 32 32 31 30 30 29 30 31 32 32 32 31 31 31 31 30
40 40 40 39 39 38 37 37 37 36 36 35 35 34 34 34 34 33 33 33 33 33 32 31 31 32 32 32 31 31 30 30 31 32 33 33 33 32 32 32 32 31
40 40 40 39 39 39 38 38 37 36 36 36 35 35 35 34 33 33 33 33 33 33 33 33 33 33 33 32 32 31 31 31 32 33 34 34 34 34 33 33 33 32
39 39 40 40 39 39 38 38 37 37 37 36 35 34 34 34 33 32 32 33 33 33 33 34 34 34 34 33 32 31 31 31 32 33 34 35 35 34 34 34 33 33
38 39 39 39 39 39 39 38 38 37 36 36 35 34 33 33 32 31 31 32 32 33 34 34 34 34 34 33 32 31 31 32 33 34 35 36 36 35 35 35 34 34
38 38 38 39 39 39 39 38 37 37 36 35 34 34 33 32 31 31 31 31 32 33 33 33 33 33 34 33 32 32 31 32 33 34 35 36 36 35 35 35 35 35
37 37 38 38 39 39 38 37 37 35 34 34 33 33 33 32 31 31 31 31 32 32 32 32 32 32 33 33 33 32 32 32 33 34 35 36 35 35 35 36 36 36
36 36 37 37 38 37 37 36 35 34 34 34 33 33 33 33 32 32 31 30 30 30 31 31 31 31 33 33 33 32 32 32 33 35 35 36 36 35 36 36 37 37

ECMWFNIL_850_spd_051.txt.gz
Wind_Speed
41 40 39 38 37 34 30 28 27 27 26 24 21 21 21 21 21 19 19 18 16 15 16 15 14 14 13 12 12 11 10 9 9 9 8 7 7 6 6 7 6 7
43 42 41 39 38 36 33 30 28 27 28 27 24 20 20 21 22 22 21 20 17 16 17 17 16 15 15 14 13 12 12 11 10 10 10 8 8 7 7 7 8 8
43 43 42 41 39 37 35 31 31 30 29 29 27 23 20 21 22 23 23 21 19 18 18 18 18 17 16 16 15 14 13 13 11 11 10 9 9 9 8 8 8 8
43 43 42 41 38 37 36 32 31 32 30 28 28 26 22 21 22 24 24 23 22 21 20 20 19 18 17 17 16 15 15 14 13 12 12 11 10 10 9 9 9 9
43 43 42 41 38 35 34 32 31 32 31 28 27 27 25 23 24 25 25 24 24 23 22 22 21 20 19 18 17 17 16 15 14 14 14 13 11 10 10 10 10 10
43 43 41 41 39 35 33 32 31 31 30 28 26 26 25 25 26 26 25 25 25 24 23 22 23 22 20 20 19 18 17 16 15 15 15 14 13 11 10 11 11 11
43 42 41 40 38 35 34 34 33 31 29 27 27 26 25 25 27 26 26 25 25 25 24 23 23 23 22 22 21 19 18 17 16 16 16 15 14 13 13 13 13 13
43 42 41 40 38 35 34 35 34 32 30 27 26 26 26 26 27 28 27 27 27 26 25 24 24 24 23 22 22 21 19 19 17 18 18 17 15 15 15 14 14 14
43 42 41 41 38 35 34 34 33 33 32 30 28 27 27 27 27 27 28 28 28 27 28 26 25 25 24 23 23 22 21 20 19 19 19 19 18 17 17 16 16 15
43 42 41 41 38 35 34 33 31 31 31 32 31 28 27 28 28 28 28 29 29 29 30 28 27 27 26 25 25 24 23 22 21 20 21 20 19 18 19 18 17 16
43 41 40 40 38 35 34 33 32 30 30 31 31 29 28 28 29 29 29 30 31 31 31 30 29 29 28 27 26 25 25 24 23 22 22 21 20 19 19 19 18 17
42 41 39 39 39 36 34 34 33 31 30 30 30 30 29 28 29 30 31 31 32 32 32 32 31 30 30 29 27 26 25 25 24 23 23 23 22 21 20 20 19 19
41 41 40 38 38 37 34 33 33 32 31 30 30 30 30 29 29 30 32 32 33 32 32 32 32 31 31 31 29 27 26 26 25 24 24 24 23 22 21 20 20 20
41 42 41 39 37 37 35 33 33 33 31 30 30 30 30 30 29 29 31 32 33 33 33 32 33 33 32 32 31 30 28 27 27 25 24 23 23 22 21 21 20 19
41 40 42 41 38 38 37 35 33 33 32 31 30 30 30 30 30 29 29 31 31 33 33 33 33 34 34 34 33 32 30 29 28 28 26 24 23 22 21 21 22 20
40 40 41 42 41 40 39 37 34 33 33 33 32 31 30 31 30 29 29 29 30 31 33 33 33 34 35 35 34 33 32 30 30 30 29 27 26 25 23 22 22 22
41 41 41 42 42 42 42 40 37 34 34 35 33 32 32 32 31 31 30 29 29 30 32 33 34 33 34 36 35 33 32 31 31 31 31 31 30 29 28 27 25 25
42 42 42 43 44 44 44 42 40 36 35 35 34 32 33 33 32 32 32 30 28 29 30 32 32 33 34 36 35 33 32 31 31 31 31 32 31 31 31 30 29 28
43 43 44 45 45 45 45 44 43 40 37 36 35 33 34 35 34 34 34 32 29 28 29 30 29 30 34 36 35 33 31 30 30 30 30 30 30 31 31 31 31 30
44 44 45 45 45 45 45 45 45 44 41 37 35 34 35 37 36 34 34 35 33 29 28 28 27 28 32 35 35 33 31 29 29 30 31 29 27 28 30 31 31 30
44 44 45 45 45 45 45 45 45 45 43 40 36 34 36 38 37 34 34 36 36 33 30 29 28 28 30 33 34 32 31 30 29 30 32 32 31 30 31 31 31 31
44 44 45 45 45 44 44 45 44 44 44 42 37 32 33 36 37 35 34 35 36 36 33 31 29 29 30 33 34 32 30 29 30 31 32 34 34 34 34 33 33 33
43 44 44 44 44 44 44 44 44 43 43 43 39 33 30 31 34 35 34 33 35 37 36 34 32 31 33 35 35 34 31 30 31 32 33 34 34 35 35 35 35 34
43 44 44 44 44 44 43 43 43 42 42 43 41 36 30 29 30 31 32 32 33 35 38 37 34 33 35 37 37 36 33 32 32 33 34 34 35 35 36 36 36 36
42 43 44 44 43 43 42 42 42 41 41 42 42 38 33 29 28 28 29 30 30 32 35 37 35 34 35 38 38 37 35 34 33 33 34 35 35 35 36 36 37 36
40 41 43 43 42 42 42 41 40 39 39 40 40 38 34 30 28 27 27 28 28 28 30 34 35 34 35 37 38 37 36 34 33 33 34 34 35 35 36 36 37 37

ECMWFNIL_850_spd_054.txt.gz
Wind_Speed
41 39 38 35 33 31 28 27 25 24 23 22 22 20 18 17 16 14 14 13 13 13 14 13 12 11 11 10 10 10 10 10 8 7 7 5 6 5 4 4 4 5
42 41 40 38 36 34 31 29 27 26 25 24 23 21 19 18 18 18 17 16 14 13 14 15 14 13 13 12 12 11 11 10 8 8 8 7 7 6 5 5 5 6
42 41 41 40 38 36 34 32 30 28 27 25 24 22 19 18 19 19 19 19 17 15 14 15 15 15 14 14 13 13 12 11 10 9 9 8 7 7 7 6 5 7
43 42 41 40 39 38 36 34 32 31 29 27 26 25 22 19 19 20 21 20 20 18 17 16 16 16 16 16 15 14 13 13 12 11 10 9 9 8 8 7 8 7
44 43 41 40 39 38 36 35 34 32 31 29 27 27 25 23 21 21 22 22 22 21 20 19 18 17 17 17 17 16 15 15 13 12 12 12 10 10 9 9 9 9
45 44 42 41 40 38 36 36 35 34 33 32 29 28 27 25 24 24 24 24 23 22 22 22 21 20 19 19 18 17 16 16 15 14 13 13 12 11 10 10 10 10
45 44 44 42 41 39 37 36 36 35 34 33 31 29 28 26 27 27 27 26 25 24 23 24 24 23 21 21 20 18 18 18 17 15 15 14 13 13 12 10 10 12
45 44 44 43 42 40 39 38 36 36 35 33 32 30 29 28 28 29 30 28 27 25 24 25 26 25 23 23 22 20 19 19 18 17 17 16 14 14 13 13 13 14
45 44 44 44 43 42 41 40 38 37 36 34 33 31 30 30 29 30 32 31 29 27 26 26 26 25 24 24 23 22 21 20 19 19 19 18 16 14 14 14 15 16
44 44 44 44 44 43 42 41 38 37 37 36 34 32 30 31 30 30 31 31 30 29 27 27 27 26 25 24 24 24 23 22 21 21 20 20 18 16 15 15 16 16
46 45 44 44 44 43 42 39 37 36 36 37 36 33 31 31 32 32 32 31 31 30 29 28 29 28 27 26 25 25 25 24 23 23 22 21 20 18 17 16 17 18
47 46 45 45 44 43 40 38 36 35 34 35 36 34 32 31 32 33 33 32 32 31 31 30 30 30 29 28 26 26 26 26 25 24 23 23 22 20 19 18 18 18
47 47 45 45 44 42 39 37 36 35 34 34 35 34 34 32 32 33 33 33 32 32 32 32 31 31 31 29 28 28 27 27 26 25 24 23 23 22 21 20 19 19
46 46 45 44 43 41 40 38 37 36 34 34 34 34 34 33 32 32 33 33 33 33 33 33 32 32 32 31 30 29 29 28 27 26 25 24 23 23 22 21 20 20
44 44 43 43 42 41 41 39 38 37 36 34 34 34 34 34 32 32 32 33 33 33 33 33 33 33 33 32 32 31 30 29 29 28 26 25 24 23 22 22 21 20
43 43 43 43 42 42 42 42 39 38 37 36 36 35 34 34 33 32 32 33 33 33 33 33 33 33 33 32 32 33 32 31 31 30 29 27 26 25 24 22 21 21
44 44 43 43 44 43 43 43 41 39 39 38 37 36 35 34 34 34 33 33 33 33 34 34 34 34 33 32 31 32 32 31 31 31 30 29 28 27 26 25 23 22
44 44 44 44 44 44 43 44 43 41 40 39 38 38 37 35 35 35 35 33 32 32 33 33 34 33 33 32 31 31 31 31 31 31 31 31 30 29 28 27 26 25
45 45 45 45 45 45 44 44 44 43 41 41 40 39 38 37 37 37 37 35 33 32 32 32 32 32 32 32 31 30 30 30 30 31 31 31 31 30 29 29 28 28
45 45 46 46 45 45 45 44 45 45 43 42 41 39 39 38 38 37 38 38 36 33 32 32 31 31 31 32 31 30 28 28 29 30 30 30 30 30 29 28 28 28
45 46 46 46 45 45 46 45 45 46 45 42 40 39 39 39 38 38 37 39 39 36 33 32 31 30 31 31 31 30 28 28 28 28 29 30 30 28 28 27 27 28
45 46 46 46 46 46 46 46 46 46 46 44 40 38 37 38 38 38 37 37 39 38 35 33 31 30 30 31 31 30 29 28 28 28 29 31 31 30 28 27 28 28
45 46 46 46 46 47 47 47 47 46 46 45 42 37 35 36 37 37 36 35 37 38 38 35 33 31 31 30 30 31 30 29 29 28 29 31 33 33 32 31 30 30
45 45 46 46 46 47 47 47 47 47 46 45 44 39 35 34 36 36 35 34 35 37 38 38 36 34 33 32 31 31 31 31 30 30 30 31 32 34 35 34 34 33
44 44 46 46 46 47 47 46 46 46 46 45 45 42 36 33 34 34 34 33 33 34 36 37 37 36 35 35 34 34 33 33 32 31 31 31 32 33 34 35 35 34
44 44 45 46 46 46 45 45 44 44 44 44 45 43 39 35 33 32 32 31 31 32 34 35 35 36 36 36 36 36 35 34 34 34 33 32 32 32 33 34 35 34

ECMWFNIL_850_spd_057.txt.gz
Wind_Speed
40 40 38 35 32 31 29 28 27 25 23 21 19 16 15 14 13 13 12 11 12 12 12 12 11 11 10 11 11 12 12 10 8 8 8 8 7 7 7 8 7 6
41 41 40 37 35 33 31 29 28 27 25 23 21 19 17 16 15 14 13 11 11 12 13 13 12 12 11 11 11 12 12 11 9 9 8 8 8 7 7 8 8 6
43 42 41 40 38 35 33 31 29 28 27 25 23 22 20 19 18 16 15 14 12 12 13 13 13 13 13 13 12 12 12 11 10 10 9 8 8 8 7 7 8 6
45 44 43 42 40 38 36 34 32 31 29 27 26 24 22 21 20 19 17 16 15 14 14 14 14 13 13 14 14 13 13 12 11 11 11 10 9 9 9 8 7 7
45 45 44 43 42 40 39 37 35 33 32 30 28 26 25 23 23 21 20 19 18 17 16 16 15 15 14 15 15 15 14 13 13 13 13 12 11 10 10 9 9 9
46 45 45 44 44 43 41 40 38 36 35 33 31 29 27 25 25 23 22 20 20 19 18 18 18 17 16 16 16 16 15 14 14 14 14 13 13 12 11 10 10 10
48 46 46 45 45 44 43 42 40 39 37 35 33 31 29 28 27 26 24 23 21 21 20 20 20 20 19 18 17 17 16 16 15 15 15 15 14 13 12 12 12 11
50 48 47 46 46 45 45 43 42 40 39 37 36 34 32 30 29 28 27 26 25 24 23 21 21 21 21 20 19 18 18 17 17 16 16 15 15 15 14 13 13 13
51 50 48 47 47 47 46 44 43 41 40 39 38 36 34 33 31 30 29 28 28 27 26 24 23 22 22 22 22 21 20 19 18 17 17 16 15 14 14 14 14 14
51 51 50 49 49 49 48 46 44 42 41 40 39 38 37 35 33 31 30 30 30 30 29 27 26 24 23 23 22 21 21 21 20 18 18 17 16 14 14 14 15 15
51 52 51 50 50 50 49 47 46 44 43 42 41 40 38 37 35 33 32 32 32 32 31 30 28 26 25 24 23 22 21 22 22 21 19 19 18 16 15 15 15 15
51 52 53 52 51 50 49 48 47 46 45 43 42 41 40 39 37 35 34 33 33 33 33 31 29 28 27 26 25 24 22 22 22 22 22 21 20 19 17 16 15 15
51 53 53 53 51 50 49 49 48 46 45 44 43 42 41 40 39 37 36 35 34 34 34 33 31 30 29 27 26 26 25 24 23 23 23 23 22 21 20 18 17 16
50 52 53 53 52 50 49 49 49 47 46 45 44 43 42 42 40 39 37 36 35 35 35 34 33 32 31 29 28 27 26 26 25 24 23 23 23 23 22 21 19 18
48 50 52 52 51 51 50 49 49 48 46 45 44 43 42 42 41 40 39 38 36 36 35 35 35 34 33 31 29 28 27 27 27 26 25 24 23 23 23 22 21 19
47 49 50 51 52 51 50 50 49 48 47 46 45 44 42 42 41 41 40 39 38 37 36 36 36 36 34 32 30 29 28 28 28 27 26 25 25 24 24 23 22 21
45 47 49 50 52 52 51 50 49 48 47 46 46 44 42 41 41 41 41 41 40 39 37 37 37 36 35 33 31 30 29 28 28 28 28 27 27 26 25 24 23 22
45 46 49 50 51 52 51 50 49 48 48 47 46 45 43 41 40 40 41 41 40 39 38 37 37 36 35 33 31 30 29 28 28 28 29 29 29 28 28 26 25 24
46 46 48 50 51 52 51 50 50 49 49 48 47 46 43 42 40 40 41 42 41 40 39 38 37 36 35 34 32 31 29 28 28 28 29 29 30 30 30 29 28 27
47 48 49 50 51 51 51 51 51 50 50 49 48 46 45 44 42 40 40 41 41 40 39 38 36 35 34 33 32 31 29 28 28 28 28 29 30 30 31 31 30 28
49 49 49 50 50 50 51 51 51 51 51 50 48 48 47 46 44 42 41 41 41 41 39 38 37 35 33 32 31 29 28 28 28 28 28 29 29 30 31 31 30 30
51 50 50 50 50 50 50 52 52 52 51 50 49 48 48 47 46 44 43 41 41 41 40 39 38 36 34 32 29 27 26 27 29 29 29 29 29 29 30 31 30 30
51 51 51 50 50 51 51 52 52 52 52 51 49 48 48 48 47 45 44 42 41 41 42 40 39 37 35 33 30 28 26 27 28 29 29 29 29 28 29 30 31 31
53 52 51 50 51 52 52 52 52 51 52 51 50 49 48 48 47 46 45 44 42 42 42 42 40 38 36 34 32 30 29 29 29 29 29 29 29 28 29 30 31 32
54 52 52 51 51 52 52 52 51 51 51 51 51 49 47 46 45 45 45 44 44 43 42 43 42 40 38 36 34 33 32 31 30 30 30 30 29 29 29 30 31 32
54 53 52 52 51 51 51 51 50 50 49 50 51 49 47 45 44 44 44 44 44 43 43 43 43 43 41 39 36 34 33 33 32 32 32 32 31 30 30 30 30 31

ECMWFNIL_850_spd_060.txt.gz
Wind_Speed
37 36 35 34 33 31 31 31 28 26 25 24 23 22 20 18 18 17 16 14 14 14 14 14 13 13 13 12 13 12 12 11 11 10 11 11 10 11 12 12 13 12
39 38 37 36 35 33 32 31 29 27 25 23 22 21 20 18 17 17 16 15 15 15 15 15 14 14 14 14 14 13 12 12 11 12 12 12 11 11 11 12 13 13
41 40 40 39 37 35 33 32 30 28 25 24 22 21 20 19 18 17 16 16 15 15 16 16 15 15 15 14 14 14 13 12 11 11 11 12 12 12 11 11 13 13
44 43 42 41 39 36 34 33 32 30 28 26 24 22 21 20 20 19 18 17 17 17 17 17 16 16 15 15 15 15 15 14 13 13 12 12 13 13 13 12 13 13
45 44 44 43 41 38 36 36 34 33 31 29 26 24 23 22 21 21 20 19 18 18 18 18 17 17 17 17 17 16 16 16 15 15 15 14 13 13 14 13 13 14
47 46 45 45 44 41 40 38 37 36 34 32 30 28 26 24 24 23 22 22 21 20 19 19 19 18 18 18 18 18 17 17 16 16 17 16 15 14 14 14 14 14
48 47 46 46 45 44 42 41 40 39 37 35 33 31 29 28 26 25 24 24 24 23 21 20 20 20 20 20 19 19 19 18 18 18 18 17 16 16 16 15 15 15
50 48 47 46 46 46 44 43 42 41 40 38 36 35 33 31 30 28 27 26 26 25 24 22 21 21 22 22 22 21 20 19 19 20 19 18 18 18 17 17 16 16
51 50 49 48 47 47 46 45 44 42 41 40 39 37 36 34 33 31 29 28 28 27 26 24 22 21 22 23 24 23 22 20 20 20 20 19 19 19 19 18 18 17
51 52 51 50 49 48 47 46 45 44 43 42 41 40 39 37 35 34 32 31 30 30 29 27 25 24 23 23 24 25 24 23 22 21 20 20 19 19 19 18 18 18
50 52 52 53 51 50 48 47 47 46 45 44 43 42 41 39 38 36 35 34 33 32 31 30 28 26 25 24 24 24 25 25 24 23 22 21 20 19 19 18 18 19
49 51 52 53 53 51 50 48 48 48 48 46 45 44 43 41 40 39 38 36 35 34 33 32 30 29 28 27 26 25 25 25 25 24 23 23 22 21 19 18 18 19
49 49 50 52 53 53 51 50 49 50 50 49 47 46 45 43 42 41 39 38 37 36 35 34 33 32 31 30 29 28 27 26 26 25 24 24 24 23 22 20 19 18
50 48 47 49 51 52 52 51 51 51 51 51 50 49 47 46 44 42 41 40 39 38 37 36 36 35 34 32 32 31 30 28 27 26 25 24 24 24 24 23 22 20
49 48 47 47 48 50 51 52 52 52 51 52 52 51 50 48 46 44 43 42 41 40 39 39 38 37 36 34 33 32 32 31 29 28 27 26 25 25 25 25 24 23
49 48 47 47 47 48 50 51 51 51 52 52 52 52 51 50 49 47 46 45 44 42 41 40 40 39 37 35 34 33 33 32 31 29 28 27 27 26 26 26 25 24
48 48 47 46 46 47 48 50 50 51 51 52 52 52 52 51 50 49 48 47 45 44 43 41 41 40 38 36 34 33 33 33 33 31 29 28 28 27 27 26 26 25
47 47 46 46 45 45 46 47 49 50 51 51 52 52 51 51 51 50 49 48 46 45 44 43 41 40 38 36 34 34 34 34 34 33 31 30 28 27 27 26 26 26
46 46 45 45 44 43 43 44 47 49 50 51 51 51 51 51 51 51 49 48 47 46 45 44 42 40 39 37 35 34 34 35 35 34 33 31 30 28 27 26 26 26
44 44 45 45 44 43 42 42 44 46 48 49 50 50 50 51 51 51 50 49 48 47 46 44 43 41 39 37 36 34 34 34 35 35 34 33 31 30 28 27 26 26
45 45 45 45 44 44 43 43 42 44 46 48 49 50 51 51 51 51 51 50 49 47 46 45 43 41 40 38 36 34 34 34 35 35 36 35 34 32 30 29 27 26
48 48 47 46 45 45 45 45 44 43 44 46 47 48 49 50 51 51 51 50 49 48 47 45 43 41 40 38 36 35 34 34 35 35 36 37 35 34 32 31 29 28
49 49 48 47 47 46 47 47 46 44 43 44 46 47 48 49 50 50 50 50 50 49 48 46 44 41 40 38 37 36 35 35 35 35 36 37 36 35 34 32 31 30
48 48 47 47 47 47 48 48 47 45 44 43 44 46 48 49 49 49 49 49 50 50 49 47 44 42 40 39 37 36 36 35 34 34 35 35 36 35 34 34 32 31
46 46 46 47 48 48 48 48 47 46 44 43 43 45 47 48 48 48 48 49 49 49 49 47 46 43 41 40 38 37 37 36 35 34 34 34 34 34 34 34 33 32
44 45 45 47 49 49 48 48 47 46 45 44 43 44 45 46 47 48 48 48 48 49 48 48 47 45 43 41 39 38 38 37 36 36 35 34 34 33 34 34 34 32

ECMWFNIL_850_spd_063.txt.gz
Wind_Speed
33 33 34 35 34 32 30 28 27 26 25 23 23 23 22 20 19 19 18 16 15 15 14 14 14 14 13 13 14 13 12 11 10 8 9 10 10 11 11 10 11 11
34 34 35 35 35 33 31 30 28 27 26 25 24 24 22 20 20 20 19 17 16 15 15 14 14 14 14 13 13 14 13 12 12 11 10 11 11 11 10 10 12 13
36 36 36 36 36 35 33 31 29 27 26 25 25 24 23 21 20 20 19 18 17 16 16 16 15 14 14 14 14 14 13 13 12 11 11 11 11 12 11 10 12 14
38 38 37 37 36 35 34 32 31 28 27 26 26 25 24 22 20 20 20 19 19 18 17 17 16 16 15 15 15 15 14 13 12 12 12 11 11 11 12 11 12 14
39 39 39 38 37 36 35 35 32 30 28 27 26 26 24 23 22 21 21 20 19 19 18 18 18 17 16 16 17 16 15 14 13 13 13 12 12 12 12 13 13 13
40 41 41 40 39 38 37 36 34 31 29 27 27 26 25 24 23 22 22 21 20 19 18 18 18 18 18 18 18 18 17 16 15 15 15 14 13 13 13 13 14 14
40 41 42 42 41 40 39 38 35 33 30 28 28 27 26 25 24 23 23 22 20 19 18 17 17 17 18 18 19 19 18 18 18 18 18 17 16 15 15 14 15 15
40 41 42 43 43 42 41 40 38 36 33 31 30 29 27 26 25 25 24 23 22 21 20 19 19 18 18 19 19 19 19 19 19 19 20 19 18 17 17 16 16 16
41 41 42 43 45 45 44 42 41 39 37 35 33 31 30 29 28 27 26 25 25 24 23 22 21 20 20 20 20 21 20 20 20 20 21 21 20 19 18 18 18 18
42 42 42 43 45 46 46 45 44 43 41 39 36 34 33 32 31 30 29 28 27 26 25 24 23 23 23 22 22 22 22 22 21 21 21 21 21 21 20 20 20 20
42 42 43 44 45 46 47 47 46 46 45 43 41 39 37 35 34 33 32 31 31 30 29 28 26 25 25 25 24 22 22 22 22 23 23 23 22 21 20 20 20 21
42 41 43 44 45 46 46 46 47 47 47 46 45 43 41 39 38 36 36 35 34 33 32 31 29 29 28 27 26 25 24 22 22 23 23 24 24 23 22 21 20 20
42 41 41 42 43 45 45 46 46 47 48 48 47 46 45 43 42 40 39 38 37 36 35 33 32 32 31 29 28 28 26 25 23 23 23 24 25 25 25 24 22 21
43 41 40 39 40 41 43 45 46 47 48 48 48 48 48 46 45 43 41 40 39 38 37 36 35 34 33 32 31 30 29 28 26 25 24 24 24 25 25 26 25 24
43 42 41 39 39 39 40 42 44 46 47 47 48 49 49 48 47 45 44 43 41 40 39 38 38 37 35 34 33 32 31 30 28 27 26 25 25 25 25 26 26 25
45 44 42 41 40 40 39 40 41 43 45 46 48 48 49 48 48 47 46 45 44 42 41 41 40 39 37 35 34 33 32 32 31 30 29 28 27 26 26 26 26 26
46 45 44 43 42 41 40 40 40 40 42 44 45 47 47 48 49 49 48 47 46 45 44 43 42 41 39 38 36 35 35 34 33 32 30 30 29 28 27 27 26 27
46 46 45 45 44 43 42 41 40 41 41 42 43 44 45 46 48 49 49 48 48 47 46 45 44 42 41 40 39 38 37 36 35 33 32 31 30 29 29 28 27 27
45 46 46 45 45 44 43 42 42 42 42 41 42 42 43 45 46 47 48 48 48 48 47 46 45 43 42 42 41 39 38 37 36 35 33 32 30 30 29 29 29 28
44 45 45 45 45 44 44 44 44 43 41 40 40 40 41 43 44 45 46 46 47 47 46 46 44 43 42 41 41 39 38 38 37 36 34 33 31 30 29 29 29 29
43 44 45 45 44 44 45 44 44 43 41 40 39 39 39 39 41 43 44 45 45 45 45 45 43 41 40 40 40 38 38 37 37 36 35 34 32 31 30 30 29 29
42 43 44 45 44 44 45 44 44 43 41 40 39 39 38 37 37 38 40 42 43 44 44 44 42 40 39 39 38 38 37 38 37 37 36 35 34 32 31 30 29 29
41 42 43 44 44 44 45 44 44 43 42 41 40 40 39 38 37 35 36 39 41 42 43 43 41 39 38 38 37 37 38 38 38 37 37 36 34 33 32 31 30 30
37 39 42 43 43 44 44 44 43 43 42 42 41 41 41 39 38 36 35 36 38 40 41 42 41 39 38 37 37 37 38 38 38 37 37 36 35 33 33 32 32 31
34 35 38 40 42 43 44 44 44 43 42 42 42 42 41 40 39 38 37 36 36 38 39 41 40 39 38 37 36 36 37 37 37 38 37 36 35 34 33 33 32 32
33 34 36 38 40 42 43 43 43 43 42 42 42 42 41 40 40 40 39 38 37 37 38 39 39 38 38 37 36 36 36 37 37 38 37 35 34 33 33 33 33 32

ECMWFNIL_850_spd_066.txt.gz
Wind_Speed
30 29 28 27 27 26 26 25 24 22 22 21 20 18 16 15 15 15 15 14 14 12 12 12 12 11 10 9 10 10 10 9 8 6 6 5 5 5 6 6 7 7
30 30 29 27 27 27 26 26 25 24 22 21 20 19 17 16 16 16 15 14 14 13 12 13 12 11 10 10 10 10 10 10 9 7 7 6 5 6 6 6 7 7
30 30 30 28 27 27 26 26 26 25 24 22 21 19 18 17 17 17 16 15 15 14 13 13 13 12 11 11 11 11 10 10 9 9 8 7 7 7 7 7 7 7
30 30 30 29 27 27 27 27 27 27 25 24 22 21 19 18 18 18 17 17 16 15 14 14 14 13 12 12 12 12 11 10 9 9 9 8 7 7 7 7 7 7
31 30 30 29 28 27 28 28 27 27 27 25 23 22 21 20 19 19 18 18 17 16 16 15 15 14 13 13 13 13 12 11 10 10 9 8 8 8 7 7 7 7
32 31 30 30 29 29 29 29 28 27 27 26 25 24 22 21 21 21 20 18 18 17 17 17 16 15 15 14 14 14 13 12 11 10 10 9 9 9 9 8 8 8
33 32 31 31 30 30 31 30 29 28 27 27 27 26 24 23 22 22 21 20 18 18 18 17 17 16 15 15 15 15 14 13 13 12 12 11 10 10 10 9 10 10
33 33 32 32 32 32 32 32 31 30 28 28 28 27 26 24 23 23 23 21 20 19 19 18 17 16 15 14 14 14 14 14 14 14 14 13 12 11 11 10 11 10
35 34 33 34 34 34 34 34 33 31 30 29 28 28 27 25 24 23 23 22 21 21 20 19 18 17 16 15 14 14 14 14 15 15 15 15 14 14 13 13 13 13
36 35 35 35 35 35 35 35 35 34 32 31 29 29 29 27 25 24 24 23 23 22 22 21 20 19 18 17 16 16 15 15 16 16 16 16 16 15 15 15 15 15
38 37 37 36 36 36 36 36 36 36 35 34 32 31 30 29 28 27 26 26 25 24 23 23 22 21 20 19 18 17 17 17 17 17 17 17 17 17 16 16 16 15
40 39 39 38 36 35 35 35 36 37 37 36 35 34 32 31 31 30 29 29 28 27 26 25 24 23 22 21 20 19 19 19 19 19 19 18 18 17 17 17 17 16
41 40 39 38 37 35 34 35 36 37 38 38 37 36 35 34 33 32 31 31 31 30 30 29 28 27 25 24 23 22 22 21 21 21 21 20 19 18 17 17 17 17
41 41 40 39 38 36 35 34 35 36 37 37 38 38 38 37 36 34 33 33 33 33 33 32 32 31 30 28 27 26 25 24 23 23 22 22 21 20 18 18 18 18
41 40 40 39 38 37 36 35 35 35 35 36 37 38 38 38 38 37 36 36 35 35 35 35 35 35 34 33 31 29 28 27 26 25 24 23 23 22 21 20 19 19
41 41 40 40 39 38 37 36 35 34 34 35 35 36 37 38 38 38 38 38 37 37 37 37 38 37 36 35 34 33 31 30 29 27 26 25 25 24 23 22 21 21
41 41 40 40 39 38 37 36 35 35 34 34 34 34 35 36 37 38 39 38 38 38 38 39 39 38 37 36 35 34 34 32 31 29 28 28 27 26 26 24 23 22
40 40 40 40 39 38 37 36 36 36 35 35 34 33 33 34 35 36 37 37 38 38 39 39 39 38 38 37 36 35 35 34 33 31 30 29 29 28 28 27 25 24
39 40 40 39 39 38 37 36 36 36 35 35 34 34 33 34 33 34 34 35 36 37 38 38 38 38 38 37 37 36 35 35 34 33 32 31 30 30 29 28 26 25
39 39 39 38 37 37 37 36 35 35 34 34 33 34 34 34 33 33 34 34 34 35 35 36 37 37 37 37 36 35 35 35 35 34 33 32 31 30 29 27 27 26
39 38 38 38 37 36 37 36 36 34 33 33 33 33 33 32 32 33 33 33 34 34 35 36 36 36 36 36 36 35 34 34 34 34 33 32 30 29 28 27 26 27
38 38 38 37 36 37 37 37 36 35 33 32 32 33 32 32 33 33 33 33 33 34 35 36 35 35 35 35 35 34 33 33 34 34 33 32 30 28 27 27 26 27
36 37 38 38 37 38 38 37 36 35 34 33 33 32 32 32 32 32 32 32 32 33 34 34 33 32 33 34 34 33 33 33 33 33 33 32 30 28 27 27 27 27
32 35 37 38 38 39 38 37 37 35 34 34 33 32 32 31 32 32 33 33 33 33 33 33 32 30 29 31 31 32 33 33 33 32 32 32 30 28 27 27 27 27
28 32 34 36 37 38 38 38 37 36 36 35 34 33 32 32 33 34 34 34 34 33 33 33 32 30 28 29 29 30 32 32 32 32 33 32 31 29 28 28 27 27
24 28 31 33 34 35 35 35 36 36 36 36 36 35 34 34 34 35 35 35 34 34 33 33 32 30 28 28 27 28 29 31 32 33 33 32 31 30 29 28 27 27

ECMWFNIL_850_spd_069.txt.gz
Wind_Speed
26 25 24 23 21 21 21 20 20 19 19 19 18 16 14 12 10 10 10 10 10 9 9 9 9 8 7 7 7 7 7 7 7 6 5 4 3 3 3 3 3 4
26 26 25 24 22 21 21 20 20 19 19 19 19 17 15 13 11 11 11 11 10 10 10 10 10 10 9 8 7 7 7 7 7 7 6 5 4 4 3 3 3 3
25 25 25 25 24 22 21 21 20 19 19 20 19 18 17 15 13 12 11 11 11 11 11 11 11 11 10 9 8 7 7 7 7 8 8 6 5 4 4 4 4 4
24 24 25 25 24 23 22 22 21 20 20 20 20 19 17 16 15 13 12 12 12 12 12 11 11 11 11 11 10 8 7 7 7 8 8 7 6 5 4 4 4 4
24 24 24 24 24 24 23 23 22 21 21 20 20 19 18 17 16 14 13 13 13 13 13 13 12 12 12 12 11 10 9 7 7 7 8 7 7 6 6 5 5 5
25 23 23 23 22 23 24 24 23 22 21 21 20 20 19 18 17 16 15 14 14 14 14 14 14 13 13 13 12 11 10 9 8 8 8 8 8 8 8 8 7 7
25 24 23 22 22 23 23 24 23 23 22 21 21 20 19 19 18 17 17 16 15 15 15 15 15 14 14 14 13 12 11 10 9 9 9 8 9 9 9 9 8 8
26 25 24 23 23 23 23 24 24 23 23 22 22 21 20 20 19 19 18 18 18 17 16 16 16 15 15 15 15 13 12 11 10 10 10 9 9 9 9 9 9 9
28 27 25 24 24 24 23 24 24 24 24 23 23 22 21 20 20 20 20 19 20 20 19 18 17 17 16 16 16 14 13 12 11 11 11 11 11 10 10 10 11 10
30 29 28 26 26 25 24 24 24 25 25 24 24 24 23 21 21 21 20 20 21 22 21 20 19 18 18 18 16 15 14 13 12 12 12 12 12 12 12 12 12 12
32 31 30 29 28 26 25 24 24 25 25 25 26 26 25 23 22 22 21 21 22 23 22 22 21 20 20 19 18 16 15 14 14 13 13 13 13 13 14 14 15 14
34 32 31 30 29 27 26 25 25 25 25 25 27 27 27 26 25 24 23 23 23 23 23 23 22 22 22 21 20 18 17 17 16 15 14 14 14 14 14 15 16 16
34 33 32 31 29 27 26 26 26 25 25 25 26 28 29 29 28 27 26 24 24 24 24 24 24 23 23 23 22 21 20 19 19 18 18 17 16 16 15 16 16 16
34 33 33 32 30 29 27 27 27 27 26 26 26 27 29 30 30 30 28 28 27 27 26 26 26 26 26 25 24 24 23 22 22 22 21 21 20 19 19 19 18 17
34 33 33 32 31 31 30 29 29 29 28 27 27 26 27 29 31 31 31 31 31 30 29 29 29 29 29 28 27 27 26 25 25 25 24 24 23 23 22 22 21 20
33 33 32 32 32 31 31 30 30 29 29 28 28 27 27 28 29 31 32 33 33 33 32 32 32 32 31 30 30 29 29 28 28 28 27 27 26 26 25 24 23 23
32 32 32 32 31 31 30 30 30 30 29 28 28 28 27 27 27 29 31 33 34 34 34 34 34 34 33 32 31 30 30 30 30 30 29 29 29 28 27 26 26 25
31 32 33 33 32 31 30 30 30 30 30 29 29 28 27 27 27 27 28 30 32 33 34 35 35 34 33 32 32 32 31 31 31 31 31 31 31 30 29 28 27 27
31 32 33 32 32 32 31 31 31 31 30 29 29 29 28 28 27 27 27 27 28 31 32 33 34 34 33 33 33 32 32 32 33 33 33 32 32 31 31 30 29 29
31 32 33 32 32 32 32 32 32 31 30 30 29 30 29 28 28 28 27 27 27 28 29 30 31 33 33 33 33 33 33 33 33 33 33 33 33 33 32 31 30 30
30 31 33 33 32 32 33 33 33 31 30 30 31 31 29 28 29 29 29 27 27 27 28 29 30 30 31 31 31 32 31 31 32 33 34 34 34 34 33 32 32 31
27 28 29 31 33 34 34 34 34 33 31 30 31 31 30 30 30 30 30 29 28 28 29 29 29 29 29 29 29 29 29 29 31 32 33 34 35 35 34 33 32 32
25 27 28 28 30 33 35 35 34 34 33 32 32 32 31 31 30 30 30 29 29 28 28 29 29 28 27 27 28 27 27 29 31 32 33 34 35 35 34 33 32 32
20 25 29 29 28 29 32 34 36 35 34 34 34 33 32 32 31 31 30 30 30 29 28 28 28 27 26 26 26 26 26 28 29 30 33 35 35 35 34 34 33 32
16 20 25 29 30 29 28 29 33 36 36 36 35 34 34 33 33 34 33 31 31 30 29 29 29 28 27 26 26 26 26 27 28 29 31 34 36 35 35 34 34 33
14 17 20 24 28 31 30 27 27 29 33 36 36 34 34 35 35 35 35 33 32 32 31 31 30 30 29 27 26 26 26 27 28 29 31 34 35 35 35 35 34 34

ECMWFNIL_850_spd_072.txt.gz
Wind_Speed
20 22 21 20 19 18 18 17 17 17 16 14 12 12 12 12 11 10 10 9 9 9 8 8 7 7 7 6 6 6 6 6 6 6 5 4 3 3 4 4 4 4
18 20 22 22 21 19 18 18 17 17 17 16 14 13 13 13 13 11 10 10 9 10 10 9 9 8 8 7 6 6 6 7 7 6 6 5 4 4 4 4 4 4
17 18 20 22 22 20 19 18 18 17 17 17 17 16 14 13 13 13 11 10 10 10 11 11 10 9 9 8 7 7 7 7 7 8 8 7 6 5 5 5 5 4
19 18 18 19 21 21 19 19 19 18 18 18 17 17 16 14 14 15 13 11 11 11 11 11 11 10 10 9 8 8 7 8 8 9 9 8 7 6 6 6 6 5
20 18 17 18 19 21 21 20 19 18 18 18 18 18 18 19 18 16 14 13 12 12 12 12 12 11 11 10 10 9 8 8 8 9 9 8 7 7 6 6 7 6
21 20 19 18 18 20 21 21 20 19 18 18 18 18 19 20 20 18 16 14 13 12 12 13 13 12 12 11 11 10 9 9 9 9 9 8 8 8 7 8 8 7
21 21 20 19 18 19 19 20 20 20 19 19 19 19 19 20 20 20 19 17 14 13 13 13 14 14 13 13 12 12 11 10 10 10 9 9 9 9 9 10 9 8
23 21 21 21 20 20 19 19 20 20 20 20 20 20 20 20 21 20 19 18 17 16 16 15 15 14 14 14 14 13 12 11 11 11 10 10 10 10 10 10 10 9
25 23 22 22 22 21 20 19 20 20 21 21 21 21 21 21 22 21 20 20 19 18 19 18 17 16 15 16 16 15 14 13 13 12 11 11 11 10 10 10 10 10
25 25 24 23 23 23 21 20 19 19 20 21 21 21 21 22 22 22 22 22 21 20 21 20 20 19 18 17 18 17 16 15 14 14 12 12 11 11 11 11 11 11
23 24 24 24 24 23 22 21 20 20 20 20 21 21 21 22 23 23 23 23 22 22 22 22 22 21 20 19 19 19 18 16 15 14 14 13 12 12 12 12 12 12
21 22 22 24 24 23 22 22 21 20 20 21 20 21 22 23 23 24 24 24 23 23 23 23 23 23 22 22 20 20 19 18 17 16 15 14 13 13 12 12 12 13
19 20 21 22 23 23 23 22 22 21 21 21 20 20 22 23 24 24 24 24 24 23 24 24 24 24 24 23 23 22 22 21 20 19 18 17 16 15 14 13 13 13
18 18 20 21 22 24 24 23 22 22 22 23 22 22 21 22 23 24 25 25 25 25 25 25 25 25 25 25 25 24 25 24 23 21 20 19 19 18 17 16 16 15
19 19 20 21 22 24 25 25 24 24 24 24 25 25 23 22 23 23 25 26 27 27 27 27 27 27 27 27 27 26 26 26 25 24 23 22 22 21 20 20 19 19
20 21 22 23 23 24 24 24 25 26 26 27 27 27 26 25 24 24 25 26 28 29 29 29 30 30 30 29 29 28 28 27 27 27 26 25 25 25 24 24 23 22
19 21 22 22 24 25 24 24 25 26 27 28 28 28 27 26 26 26 26 26 27 29 31 32 32 33 33 32 31 30 29 29 29 29 29 29 29 29 28 27 27 26
20 20 20 20 21 23 23 23 24 25 27 27 28 28 28 27 27 27 27 27 27 28 30 32 33 35 35 34 33 32 32 31 31 31 31 31 31 31 31 30 30 29
20 20 19 18 18 20 22 24 24 24 25 26 26 27 27 28 27 27 27 27 28 29 30 31 33 36 37 36 35 34 34 33 34 34 33 33 33 34 33 33 32 31
20 19 18 18 19 20 21 23 24 24 23 24 25 26 27 28 27 27 27 27 28 29 30 31 33 36 37 36 35 35 34 34 35 35 36 36 36 36 35 35 34 33
23 21 18 18 19 21 21 22 24 25 24 24 24 24 25 26 26 26 27 27 27 28 29 31 32 34 36 36 35 34 34 35 36 37 37 38 38 38 38 37 36 35
23 24 23 21 19 20 21 22 22 24 25 25 25 24 24 24 25 26 26 27 27 28 29 31 32 32 33 34 34 34 33 34 36 37 38 39 39 40 40 39 38 37
20 22 25 25 23 21 21 21 21 22 23 25 26 25 24 24 24 25 25 26 26 27 28 30 32 32 32 32 32 32 31 32 33 35 36 38 39 40 40 40 40 40
16 19 21 24 24 23 23 22 22 22 22 22 23 24 24 23 23 23 23 24 26 27 28 29 30 31 32 32 31 30 30 30 31 32 34 36 37 38 39 40 41 41
12 16 19 21 23 24 23 22 23 24 24 21 20 21 21 22 23 23 23 24 25 26 27 29 30 31 31 32 32 31 30 31 31 32 33 35 36 37 38 39 41 41
10 13 15 17 20 22 24 23 23 24 25 23 20 20 21 22 22 22 23 24 25 25 26 28 30 31 32 32 32 31 31 31 31 32 34 35 35 35 37 38 40 42

ECMWFNIL_850_spd_075.txt.gz
Wind_Speed
18 18 18 17 16 15 14 14 14 15 14 13 11 11 11 11 10 10 10 9 9 8 8 8 8 7 6 6 7 7 6 7 7 5 4 4 3 2 4 4 3 3
17 17 18 18 17 16 16 15 15 15 15 14 12 11 11 12 12 12 11 10 9 9 9 9 9 8 8 7 7 7 7 7 7 5 4 4 3 3 4 4 4 4
17 17 18 18 17 17 15 15 15 15 15 15 13 12 11 12 12 12 12 11 10 10 10 10 9 9 9 9 8 7 7 7 6 6 6 5 4 4 4 3 3 4
17 16 17 17 17 17 16 16 16 16 15 15 15 14 12 12 12 13 13 13 12 12 11 11 11 10 10 9 9 8 7 7 6 8 9 8 6 5 4 4 4 4
17 17 17 17 17 17 17 17 16 16 16 16 15 15 14 14 13 13 14 14 14 13 13 12 12 12 11 10 10 9 8 7 7 7 8 7 6 5 5 5 6 5
19 18 17 17 18 18 18 18 18 17 17 17 16 15 15 16 16 15 14 14 14 13 13 13 13 12 12 11 11 10 9 8 8 8 7 7 7 6 5 6 6 6
20 19 19 18 18 19 19 19 19 19 18 17 18 17 16 16 17 18 16 15 14 14 13 13 14 13 13 12 12 11 11 10 10 10 9 8 8 8 8 7 8 8
19 19 20 20 19 19 19 19 20 20 20 19 18 19 18 17 17 18 18 17 16 15 15 14 15 15 14 13 13 13 12 11 11 11 11 9 9 9 9 9 9 9
19 19 19 20 20 20 20 20 20 20 21 21 20 19 19 19 18 18 18 19 19 17 17 16 16 17 16 14 14 14 14 13 12 12 11 11 10 10 10 9 10 10
19 18 19 20 21 21 20 20 20 20 21 21 21 20 20 20 20 19 19 20 21 20 19 18 18 18 17 16 16 15 15 15 14 13 13 12 12 11 11 11 11 11
20 19 19 21 22 21 21 21 21 20 21 21 21 21 20 20 21 21 21 22 23 23 22 22 21 20 19 18 16 16 16 16 15 15 15 14 14 13 13 13 12 12
18 19 19 21 23 22 22 21 22 21 21 21 21 21 22 21 21 22 23 24 25 24 24 24 23 22 22 21 18 17 16 16 15 16 16 15 15 14 13 13 13 13
18 19 20 21 22 23 22 22 22 22 22 22 21 21 22 22 22 22 23 25 27 26 25 24 25 25 24 24 22 20 18 17 17 17 16 16 15 15 14 14 13 14
18 19 20 21 22 22 22 22 22 22 22 22 22 22 22 22 23 23 23 24 26 27 26 25 25 26 25 26 25 23 21 19 19 19 18 17 17 16 16 15 15 15
17 17 18 19 21 22 22 22 23 23 23 23 23 23 23 23 23 23 23 24 24 25 26 26 25 26 26 27 27 26 24 22 21 21 20 20 19 18 18 17 17 17
17 18 18 18 18 20 23 23 23 23 24 25 24 24 24 23 23 23 23 23 23 24 25 25 25 25 27 28 28 27 26 24 23 22 22 22 22 21 20 19 19 18
17 19 19 18 18 18 20 23 23 23 24 26 26 26 25 25 25 24 24 23 23 24 24 25 25 25 27 29 30 29 28 26 25 24 24 24 24 25 24 23 22 21
17 19 20 20 20 20 20 22 22 21 23 24 26 26 26 26 26 26 26 25 24 24 24 25 26 26 27 30 31 32 30 28 26 24 23 24 25 26 26 26 25 24
15 15 17 20 22 22 22 22 22 22 23 23 24 25 26 27 27 27 27 27 26 26 25 25 25 26 28 30 33 34 33 31 30 28 26 25 24 25 25 26 27 27
15 14 15 16 19 21 21 21 22 24 25 24 23 22 23 25 26 26 27 28 28 28 28 27 26 26 28 30 33 35 35 34 33 33 32 31 28 27 26 25 26 27
14 16 16 14 15 17 19 20 21 22 24 25 24 21 20 23 25 25 25 26 27 28 29 29 29 29 30 31 32 34 36 36 35 36 37 37 36 35 33 31 30 29
12 14 16 16 15 16 17 17 19 20 20 21 23 23 22 22 22 22 22 23 25 26 28 29 30 30 32 33 34 35 36 36 36 37 37 39 40 40 40 39 39 37
11 11 13 15 17 18 18 16 16 18 19 20 22 24 25 24 22 21 21 22 23 26 28 29 30 30 32 34 36 36 36 36 37 37 38 39 40 41 42 43 44 44
11 11 11 11 14 16 16 16 17 17 19 20 21 23 25 26 25 25 25 24 25 27 28 29 30 31 32 35 36 36 36 36 36 36 36 38 39 41 42 43 45 45
13 13 14 12 11 11 11 14 17 17 17 18 19 21 24 25 24 25 27 27 27 27 27 28 29 30 31 33 35 35 35 35 34 34 35 36 38 39 40 42 44 45
12 14 16 14 11 10 10 10 13 15 17 19 21 23 25 26 24 25 28 30 31 29 28 28 29 29 30 31 33 35 34 33 32 33 34 36 37 37 38 39 41 43

ECMWFNIL_850_spd_078.txt.gz
Wind_Speed
18 18 19 18 16 15 15 15 15 15 14 12 10 11 11 9 9 10 9 8 9 8 8 7 6 7 7 7 7 7 7 8 8 6 6 6 5 5 5 4 4 4
19 19 19 19 18 17 17 16 15 15 15 13 11 10 11 11 11 11 10 9 9 9 9 8 7 7 7 7 7 6 6 8 8 6 6 5 5 5 5 3 3 3
19 19 19 20 20 19 18 18 17 16 16 16 16 13 11 12 12 13 12 11 9 9 9 8 8 8 8 7 7 7 6 6 7 7 5 5 5 6 5 3 3 3
20 19 20 20 19 19 18 18 18 18 17 16 17 16 13 12 13 13 14 12 10 10 10 9 9 9 8 8 7 7 7 6 6 7 6 6 6 6 5 4 5 4
19 20 20 20 19 19 19 18 18 19 18 17 17 16 15 14 14 14 14 14 13 13 12 10 10 10 9 9 9 8 8 7 6 7 7 7 6 6 6 5 6 6
20 20 20 20 20 20 19 19 18 18 18 18 18 17 17 17 16 15 14 14 14 14 13 12 11 11 11 10 10 9 9 8 6 6 7 7 7 7 6 5 6 6
22 22 21 20 21 21 21 20 20 19 18 18 18 17 17 18 18 17 14 14 14 14 13 13 12 12 11 11 11 11 10 9 8 7 7 8 8 8 7 7 7 7
23 23 23 22 21 21 22 21 21 21 20 19 19 18 18 18 19 19 17 16 15 14 14 14 14 13 12 12 12 12 12 11 10 10 9 9 9 8 9 9 9 9
24 24 24 24 22 21 21 21 21 21 22 21 20 19 19 19 18 18 19 19 17 16 15 15 15 15 14 14 13 13 13 12 11 11 11 11 11 10 9 10 10 10
25 25 24 24 24 22 21 20 20 20 21 22 20 19 19 20 19 18 18 19 19 18 18 17 16 16 16 16 15 15 14 14 14 13 13 12 12 11 11 10 10 10
23 24 25 26 26 23 21 20 20 20 20 21 21 19 19 19 20 19 18 19 20 20 21 20 19 18 18 17 17 17 17 16 15 16 16 15 14 13 12 12 12 12
24 24 26 27 25 24 22 20 19 19 19 20 20 20 19 19 19 20 20 20 20 20 21 22 21 21 21 20 18 17 17 17 16 16 17 17 16 16 15 15 15 14
27 26 26 25 23 22 22 21 20 19 19 20 20 20 20 19 19 20 20 21 21 22 22 21 22 22 22 22 20 18 17 17 17 17 18 18 17 17 16 15 15 14
25 23 22 22 21 21 21 22 21 20 19 20 20 20 20 20 20 19 20 20 21 23 23 22 22 23 23 23 23 21 19 18 18 18 18 18 18 17 16 15 15 14
18 15 15 16 18 20 19 20 23 23 21 21 21 20 20 20 20 19 19 20 20 21 22 22 22 23 24 24 24 24 23 21 21 21 20 19 18 18 17 16 16 16
11 11 12 14 15 16 17 18 23 25 23 23 21 20 20 20 19 20 20 20 20 20 21 22 22 23 24 25 25 25 25 24 23 22 22 21 20 20 19 19 18 18
10 10 12 13 12 14 16 17 20 22 23 23 20 18 21 21 20 20 21 20 20 21 21 22 22 22 23 25 26 25 25 25 25 24 24 23 23 23 23 22 21 20
12 12 12 12 9 10 14 16 18 20 22 23 20 18 20 23 23 23 24 23 22 21 21 22 23 22 23 25 26 26 26 26 26 25 26 26 25 25 25 25 25 24
9 11 12 12 10 10 14 15 16 18 19 21 21 20 22 25 25 26 27 28 27 25 23 23 24 24 24 25 26 27 27 27 27 27 27 27 26 26 27 27 27 27
7 8 10 11 12 12 13 13 13 14 15 16 19 21 24 26 26 27 28 29 30 31 29 27 25 24 25 26 27 28 29 29 30 30 29 29 28 26 26 26 26 27
5 6 6 7 11 12 13 14 14 15 16 17 18 21 23 24 26 27 28 28 29 31 32 31 30 27 26 26 26 28 29 30 31 31 31 31 30 29 28 27 27 26
3 4 4 4 9 10 12 13 14 15 16 18 19 21 23 24 24 26 27 27 27 28 31 33 32 31 30 29 28 27 28 28 30 32 33 32 32 32 32 32 32 32
7 7 7 5 6 9 11 13 14 14 14 15 17 19 22 23 24 25 26 27 27 27 29 31 32 32 32 32 31 31 30 30 30 31 32 33 33 33 34 35 36 37
8 8 9 9 7 4 7 11 14 14 14 14 15 18 20 22 24 26 27 27 27 27 27 29 31 31 31 31 31 31 33 34 33 33 33 34 34 35 36 36 37 38
10 8 8 10 10 6 5 9 11 13 15 16 16 17 19 20 22 24 26 27 28 27 27 28 30 31 31 30 30 31 31 33 34 35 36 36 37 37 38 39 39 38
13 11 9 9 9 9 7 7 8 11 14 17 17 18 19 20 21 23 25 26 26 26 26 26 27 29 29 29 30 30 30 31 32 34 35 37 37 38 38 38 38 38

ECMWFNIL_850_spd_081.txt.gz
Wind_Speed
20 20 20 20 18 17 16 15 17 17 15 13 13 12 10 8 8 8 10 10 8 9 9 8 8 8 8 9 8 8 7 8 8 8 8 8 8 8 7 8 8 6
20 20 19 19 18 17 16 14 15 16 16 13 12 12 11 10 10 10 9 10 9 9 9 9 8 8 8 8 8 8 8 8 8 8 8 8 8 8 7 8 7 5
20 20 20 19 18 17 17 15 15 16 16 15 13 12 10 10 11 12 10 10 10 10 10 9 9 9 9 8 8 9 8 8 9 9 8 8 9 8 8 7 6 3
20 21 20 20 19 18 17 17 16 16 16 15 14 13 10 9 11 12 12 11 10 10 10 10 10 10 9 9 8 8 8 9 10 9 8 8 8 8 8 7 7 4
20 20 20 19 20 19 19 18 18 17 17 16 15 15 14 12 11 11 12 12 11 11 10 9 9 10 10 9 9 8 8 9 9 9 9 8 8 8 8 7 7 7
20 20 19 19 19 19 19 19 19 18 18 18 17 17 17 15 13 12 12 12 12 12 12 11 10 10 10 10 10 9 9 9 9 9 8 8 8 8 9 8 7 8
20 19 19 19 18 18 18 18 18 18 18 18 17 17 17 17 16 14 13 12 12 13 13 13 12 10 10 11 10 10 10 10 10 9 9 9 9 8 9 10 9 8
21 19 19 19 18 18 18 19 19 18 18 18 17 17 17 17 18 17 15 13 11 12 13 14 13 11 10 11 11 11 11 11 11 10 10 10 9 9 10 10 9 9
23 20 19 19 18 18 18 19 20 18 18 18 18 18 17 17 18 18 18 16 13 12 13 13 13 12 11 11 11 12 12 12 12 11 9 9 9 9 10 10 11 11
25 23 21 20 20 19 19 17 18 18 19 19 17 18 18 17 17 18 18 18 17 15 14 13 14 14 13 13 12 12 12 12 12 12 11 10 9 10 10 10 11 11
21 21 22 21 20 20 19 17 17 17 17 19 19 19 20 19 18 19 19 18 18 19 17 15 15 15 15 15 14 14 14 13 12 13 13 13 12 12 12 12 12 12
18 17 18 20 19 19 19 19 19 18 16 18 20 20 21 21 20 20 20 19 18 18 18 18 19 18 17 16 16 16 16 15 14 14 14 15 15 14 14 14 14 13
20 19 19 20 19 20 21 21 22 21 18 17 20 22 20 21 22 21 20 20 19 18 18 18 20 20 20 19 19 18 17 16 16 15 14 15 16 17 16 16 15 14
18 19 20 19 18 19 20 22 22 22 20 17 18 23 22 19 21 23 21 20 19 19 19 19 19 20 21 22 22 21 19 18 17 16 16 15 16 17 17 17 16 15
14 16 16 17 19 19 20 21 22 22 22 18 15 21 25 21 19 22 22 21 20 19 19 19 19 19 20 21 22 22 21 20 19 18 18 18 18 17 17 17 17 16
11 13 13 13 14 15 17 21 21 20 23 23 16 18 26 26 22 23 23 22 22 21 20 19 19 19 19 20 21 21 21 20 20 20 20 20 20 20 20 19 18 17
7 9 9 8 8 9 12 17 20 20 22 26 23 19 23 27 25 24 24 24 23 23 22 22 20 19 19 19 20 21 21 21 21 21 21 22 23 23 22 21 20 19
7 8 7 7 8 9 9 12 18 21 22 25 26 23 22 24 25 24 25 25 22 21 22 24 24 22 20 19 18 19 20 22 22 21 21 23 23 24 24 23 22 22
10 10 10 10 11 10 10 11 15 20 23 25 26 26 24 24 25 24 25 26 24 22 21 23 23 23 23 22 21 20 19 20 21 22 22 22 23 24 25 25 25 24
12 12 11 11 11 11 12 13 14 18 22 24 26 27 26 26 26 26 25 26 27 26 25 24 22 21 19 19 21 22 23 23 23 23 23 23 23 24 24 25 26 26
9 12 12 10 9 12 14 15 16 17 19 21 23 25 26 27 28 28 28 27 27 28 29 29 28 25 22 20 19 20 22 25 27 29 28 27 26 25 25 25 26 27
2 6 9 9 10 13 15 16 17 17 18 20 21 22 23 25 26 28 29 29 29 29 30 31 31 31 29 28 26 24 22 22 25 28 31 32 31 30 28 28 27 27
3 1 3 7 9 10 12 16 16 16 18 19 20 21 22 22 23 25 27 28 29 30 30 31 31 30 31 32 32 32 30 27 25 25 27 30 32 32 31 31 30 29
6 5 3 1 4 4 6 11 14 15 16 16 17 18 20 21 21 22 24 25 27 28 29 29 28 29 29 30 31 33 35 36 35 33 31 29 29 30 31 31 32 32
7 6 5 4 4 4 4 6 8 11 13 14 15 15 17 19 20 20 21 21 22 23 24 25 27 28 28 28 28 29 32 35 38 39 38 35 33 33 32 32 33 34
7 6 6 6 6 6 6 6 6 6 9 11 12 13 13 15 17 19 19 19 19 18 19 23 28 30 29 27 25 26 28 31 33 35 35 36 35 35 35 34 35 36

ECMWFNIL_850_spd_084.txt.gz
Wind_Speed
23 23 21 20 18 18 19 19 18 18 17 15 13 11 9 8 9 8 9 10 9 8 9 9 9 8 8 8 8 8 8 8 9 10 9 9 9 10 11 10 10 8
23 23 21 21 19 17 18 19 19 18 17 15 13 11 9 9 9 8 8 10 9 8 8 8 8 8 8 9 9 8 9 9 9 9 9 9 10 11 11 10 11 10
24 23 22 22 20 19 18 18 18 18 17 16 14 12 11 9 9 8 8 10 9 8 8 8 8 8 8 9 9 10 9 9 9 9 9 9 10 10 10 11 11 10
23 23 23 22 20 19 18 17 17 16 17 17 15 13 12 10 9 10 9 10 10 9 9 9 8 8 8 8 9 10 10 9 9 10 9 9 10 10 10 11 11 9
22 22 22 22 20 19 18 17 16 15 15 16 16 14 13 11 10 10 10 10 10 10 10 10 10 9 9 9 9 9 9 9 9 10 10 10 10 10 11 11 10 9
21 21 21 21 20 20 20 18 16 15 14 14 15 14 14 13 11 10 11 10 10 11 11 11 11 11 10 10 10 9 10 10 9 10 11 10 10 11 11 11 10 10
20 20 20 19 19 20 20 20 19 17 15 14 14 14 14 15 14 12 11 11 10 12 12 11 11 12 11 11 11 10 10 10 10 11 11 11 11 11 11 12 12 12
21 22 21 20 19 19 19 19 19 18 15 14 15 15 15 16 17 15 14 13 13 13 13 13 12 11 11 12 12 12 11 11 11 11 11 11 12 12 11 12 13 14
22 22 22 22 21 20 19 19 19 17 15 14 15 16 16 17 17 17 17 16 15 14 13 13 14 13 12 12 12 12 12 12 13 12 12 12 12 12 11 11 13 14
21 22 22 21 22 22 20 19 19 18 17 15 15 16 17 17 17 18 18 19 19 18 15 14 14 14 14 14 13 12 12 13 14 14 14 13 13 12 11 11 12 13
21 22 22 20 21 21 21 20 20 20 19 18 17 17 17 18 18 18 18 19 19 19 18 16 15 15 15 15 14 13 13 13 14 15 15 14 14 14 14 13 13 13
23 23 22 21 21 21 22 22 22 21 21 21 20 19 18 19 20 20 19 19 18 18 18 18 18 17 16 16 15 15 14 14 15 15 16 16 15 14 14 14 14 14
23 23 22 20 20 22 22 22 23 24 23 22 22 20 20 20 21 22 22 21 19 18 17 16 17 18 18 18 18 17 17 17 16 16 16 16 16 15 15 14 14 14
22 22 21 19 19 22 23 22 23 25 24 24 23 22 21 21 21 22 24 23 21 19 17 15 15 16 18 19 20 20 20 20 19 18 17 17 17 16 16 16 15 15
18 20 21 21 20 21 22 23 23 24 24 24 24 23 23 23 22 22 24 25 23 21 19 17 16 16 15 16 18 20 22 23 23 22 21 20 20 18 18 17 17 17
13 15 17 20 21 21 22 23 23 23 23 24 24 22 22 24 24 23 24 26 25 24 22 20 19 17 15 15 15 15 17 20 23 24 24 24 23 22 21 20 19 19
11 13 15 17 19 21 22 23 23 23 23 24 24 22 21 21 22 23 24 25 26 25 23 22 22 20 18 16 15 15 15 16 18 21 23 24 25 25 25 24 23 22
11 12 13 14 16 17 18 20 20 20 21 22 24 24 24 21 18 20 24 25 26 26 24 24 24 24 23 22 21 19 18 17 17 17 18 19 21 22 23 24 25 25
10 11 11 11 12 13 14 15 16 17 19 20 21 23 26 24 19 19 23 26 27 27 26 25 24 25 25 25 24 23 22 21 21 20 19 18 18 18 18 19 21 22
8 8 10 11 11 12 13 14 15 15 16 18 19 22 25 25 22 21 23 26 28 27 26 26 25 24 24 24 25 24 24 24 24 24 23 22 21 20 19 19 19 19
6 7 9 11 11 12 14 15 16 16 16 17 18 20 23 24 23 23 24 26 28 28 27 26 25 25 24 24 24 23 23 24 24 23 24 25 25 24 23 23 23 23
5 6 7 9 9 11 12 14 15 16 16 17 17 18 20 22 22 22 24 27 28 29 29 29 28 27 26 25 24 23 22 22 23 23 23 25 26 26 26 26 25 26
6 5 4 5 5 6 7 9 11 13 14 16 17 17 18 20 21 21 22 25 28 30 31 31 31 31 29 28 27 26 26 27 28 28 29 29 30 29 29 28 27 26
6 4 3 3 2 2 2 3 5 8 10 13 15 17 17 18 20 21 20 22 26 29 31 32 33 33 31 31 31 31 32 34 34 35 36 36 36 35 35 34 32 30
4 4 3 3 2 1 1 1 1 3 6 9 12 14 15 15 16 18 19 19 21 25 28 30 31 32 32 33 33 33 34 35 36 38 38 38 38 38 38 38 38 36
1 1 1 0 0 1 2 2 2 1 3 5 8 11 13 13 15 17 18 18 18 21 23 24 25 26 27 29 31 32 32 33 34 35 36 36 37 37 37 38 38 38

ECMWFNIL_850_spd_087.txt.gz
Wind_Speed
23 22 21 20 19 18 16 15 14 13 12 11 10 9 7 6 6 7 8 8 8 8 7 7 8 8 8 8 8 8 8 8 8 7 7 8 8 9 9 9 9 8
24 23 23 23 21 20 18 17 17 16 14 13 11 10 9 8 7 8 8 9 8 8 8 8 7 8 8 8 8 7 7 8 7 7 7 7 8 8 8 10 10 10
24 23 23 22 21 20 18 17 18 18 16 14 13 12 11 10 9 9 9 9 9 8 9 8 7 8 8 7 7 7 7 7 6 6 6 7 8 8 8 10 10 10
23 22 22 21 20 19 18 17 17 17 17 17 16 14 13 11 11 10 9 9 9 9 10 9 8 9 8 7 6 6 7 7 7 7 7 8 8 8 9 10 11 11
22 22 22 21 20 19 19 18 17 16 16 17 17 16 15 13 12 11 10 10 10 10 10 10 10 9 9 8 7 7 7 7 7 8 8 8 8 8 9 10 10 11
22 22 22 21 20 20 20 19 18 17 17 16 16 16 16 15 14 12 11 10 10 10 11 11 11 10 10 10 9 8 7 7 8 8 9 9 9 9 9 10 11 11
22 22 22 22 21 21 21 20 19 18 17 16 15 16 15 16 16 14 12 11 10 10 10 11 11 11 12 11 11 10 9 9 9 8 9 9 10 10 10 11 12 12
22 22 23 23 23 23 22 21 20 19 18 17 16 15 14 16 17 16 14 13 11 10 10 10 11 12 13 13 12 11 10 10 10 9 9 9 10 11 11 11 12 13
22 23 23 23 23 23 23 22 21 21 20 20 18 16 15 15 17 16 15 15 14 13 11 11 12 12 13 14 13 12 11 11 11 11 11 10 10 10 10 11 12 12
22 23 23 23 23 23 22 22 22 21 21 21 20 17 15 15 16 17 16 16 16 15 14 13 13 12 13 13 13 13 12 11 11 12 12 12 11 11 11 12 12 12
21 22 22 22 22 22 22 21 21 21 21 21 20 18 15 15 16 17 17 17 17 17 17 16 15 14 13 13 13 13 13 12 12 11 11 12 13 12 12 13 13 13
21 22 22 21 21 21 21 21 20 20 20 20 20 19 17 16 16 17 18 18 17 17 17 17 16 15 14 14 14 14 14 14 13 12 11 12 13 14 14 14 14 14
22 22 21 21 21 20 20 20 20 20 20 20 20 19 19 18 18 18 19 19 18 17 17 16 16 15 15 15 15 14 14 14 13 13 12 12 13 13 14 15 15 15
23 22 22 21 21 21 20 20 20 21 21 21 22 21 21 20 20 20 20 20 20 19 18 17 16 16 15 15 15 15 15 15 15 14 14 13 13 13 13 14 15 15
22 22 22 21 21 21 20 20 21 21 22 23 24 24 23 22 22 22 22 21 21 20 19 19 18 17 16 15 15 14 14 14 14 14 15 15 15 15 15 15 15 16
20 20 21 22 22 22 21 21 21 21 22 23 24 25 24 24 24 24 24 23 22 21 21 20 20 19 17 16 15 14 14 14 13 14 14 15 16 17 17 17 16 17
17 18 20 21 21 22 22 22 21 20 21 22 23 24 24 25 25 25 25 25 24 23 22 21 21 20 19 18 17 17 17 17 16 16 15 16 16 17 17 17 17 17
14 15 16 16 17 18 19 21 20 19 19 20 22 24 24 24 25 25 26 26 26 25 23 22 21 20 20 20 20 20 20 21 20 19 18 17 17 16 15 14 14 15
12 13 13 11 12 13 15 17 18 18 18 19 21 23 24 24 25 25 25 25 25 25 25 23 22 21 21 21 21 20 21 22 23 22 22 21 19 18 17 15 14 14
9 9 9 9 9 11 12 13 15 16 16 17 18 21 24 25 26 26 26 25 23 23 24 23 22 22 22 22 22 21 21 22 23 23 23 22 22 21 20 19 18 17
7 7 7 8 8 10 11 12 12 14 14 14 15 18 21 23 25 27 27 26 23 22 22 22 22 22 22 23 24 24 24 24 24 24 24 24 23 23 22 21 20 19
9 9 9 8 8 9 10 12 12 13 14 14 15 17 19 21 22 23 25 26 25 23 22 22 22 22 22 22 22 23 25 25 25 25 26 25 24 23 23 22 21 21
8 8 8 8 8 8 8 10 12 12 13 15 16 16 17 18 19 21 23 24 24 24 24 24 23 23 23 22 21 20 22 25 27 27 27 27 26 25 24 24 24 25
5 5 5 6 6 6 6 8 9 10 11 13 14 14 13 14 17 20 22 22 22 22 23 23 24 25 25 26 24 21 20 23 26 29 29 30 29 29 28 28 28 29
4 4 4 4 4 4 4 5 7 8 10 10 10 10 10 10 12 15 18 19 20 20 21 21 23 24 26 27 27 26 24 23 25 29 31 32 32 32 31 32 32 31
4 3 4 4 4 4 4 4 5 6 8 8 8 9 8 8 10 11 13 14 15 17 18 18 19 20 22 24 24 26 27 25 25 28 31 32 32 33 33 34 34 33

ECMWFNIL_850_spd_090.txt.gz
Wind_Speed
18 18 18 17 14 13 12 11 10 10 11 10 8 6 5 3 4 5 6 7 7 6 6 7 7 7 7 6 6 7 6 6 6 6 6 6 6 7 7 7 8 7
19 19 19 18 16 15 14 13 11 11 11 11 9 7 6 5 5 6 6 7 7 7 7 7 8 7 7 7 7 7 7 6 6 6 7 7 7 7 7 8 9 9
20 21 20 19 18 16 16 14 13 12 12 12 11 9 8 7 6 7 7 7 7 7 7 8 8 8 7 7 7 7 7 7 7 7 7 7 7 7 7 8 9 9
20 21 21 20 19 17 17 17 16 15 14 14 12 11 10 9 8 8 8 8 8 7 8 8 8 8 7 8 8 8 7 7 7 7 7 7 7 6 7 7 8 9
20 20 20 20 20 19 19 19 18 17 16 15 14 13 12 11 10 9 9 9 8 8 8 8 8 8 8 8 8 8 7 6 6 7 7 7 7 7 7 8 8 9
20 20 20 20 20 20 21 20 19 18 17 15 14 13 12 12 12 11 10 10 9 8 8 8 9 9 9 9 9 8 7 6 6 7 6 6 7 7 7 8 8 8
20 20 21 20 21 21 21 21 20 18 17 16 14 13 13 13 12 12 11 11 10 9 8 8 8 8 9 10 10 9 9 8 8 8 7 6 6 7 8 8 8 8
19 20 21 21 22 22 21 21 20 19 18 17 15 14 14 13 13 12 12 12 11 10 8 7 7 7 7 9 10 10 10 9 9 9 8 7 6 7 7 8 9 8
18 19 20 21 22 23 22 21 20 20 19 18 16 15 15 14 13 12 12 13 13 12 10 9 7 7 7 9 10 11 11 10 10 10 10 9 8 7 7 8 8 8
20 20 20 20 21 22 22 21 20 20 19 18 17 17 17 16 14 13 13 14 14 13 12 11 9 8 8 8 9 10 11 11 11 11 11 10 10 9 8 8 8 8
22 21 20 20 21 21 22 21 21 20 20 20 19 19 18 18 16 15 14 14 15 14 13 12 11 10 10 10 9 9 10 10 11 11 11 10 10 9 9 10 10 10
24 22 20 20 20 19 20 20 21 21 20 20 20 19 19 19 18 17 16 15 15 14 14 13 12 11 11 11 10 10 9 9 10 11 12 11 10 9 9 10 11 11
26 23 21 20 20 20 20 19 20 20 20 20 19 19 19 19 19 18 16 16 15 15 15 14 13 12 11 11 10 10 9 9 10 10 12 12 12 10 9 10 10 11
27 23 21 20 20 20 20 19 19 20 20 20 19 19 18 18 18 18 17 16 16 16 16 15 15 14 13 11 11 10 10 10 10 10 11 12 12 11 11 11 11 11
26 22 20 19 18 19 19 19 19 18 19 19 19 19 19 18 18 18 18 17 17 16 17 17 17 17 15 13 12 11 11 10 10 11 11 11 11 11 11 12 12 12
25 21 19 19 18 18 19 19 19 19 20 20 19 19 19 19 19 19 19 18 18 18 18 18 19 19 17 16 14 13 13 13 13 13 12 12 12 11 11 11 12 12
23 21 19 19 18 19 19 20 20 20 20 20 19 19 19 19 19 19 19 19 19 19 19 20 20 19 18 17 16 15 15 15 16 16 15 15 14 13 12 12 11 12
20 20 19 18 18 20 20 20 20 20 20 20 19 19 19 20 20 20 20 20 20 21 20 20 20 20 19 19 18 17 17 17 18 17 17 17 17 16 15 14 13 13
13 15 15 15 16 18 18 19 19 19 19 20 21 20 19 20 21 21 20 20 20 21 21 20 21 21 21 20 19 19 19 20 19 18 18 18 17 17 17 16 16 15
11 12 13 13 12 13 15 17 17 16 15 16 19 20 18 18 20 20 21 21 21 21 21 21 21 21 21 20 20 20 21 21 21 20 19 18 18 18 18 18 18 18
12 12 12 11 11 11 12 14 14 14 14 14 16 16 15 15 16 18 19 20 21 21 21 22 22 21 21 21 21 20 21 22 22 22 21 20 19 19 19 19 20 20
8 8 8 9 10 10 11 11 11 12 13 14 14 13 12 12 13 14 16 17 19 20 21 22 22 22 21 21 21 21 21 21 22 23 23 23 22 21 20 20 20 20
5 5 6 6 7 7 7 7 8 11 12 13 13 13 12 12 12 13 15 16 17 18 18 20 21 22 22 21 21 22 22 21 21 23 24 25 24 23 23 21 21 21
5 5 5 5 5 6 5 5 6 8 9 9 10 10 11 12 13 14 15 15 15 16 16 18 19 21 22 21 21 21 23 23 23 23 24 25 25 25 25 24 23 23
6 6 6 5 6 6 5 5 5 5 5 6 6 7 8 9 11 12 13 14 14 14 15 16 18 20 21 21 22 23 24 25 24 24 24 25 26 26 25 24 24 24
6 6 6 6 6 6 6 5 5 4 4 4 4 5 6 7 8 8 9 11 11 12 14 15 15 16 19 20 21 23 25 26 25 25 26 27 27 27 26 24 23 23

ECMWFNIL_850_spd_093.txt.gz
Wind_Speed
15 15 15 16 15 13 10 9 8 8 8 7 6 4 3 2 2 2 2 3 4 5 5 5 5 6 6 6 5 5 4 4 5 5 5 4 4 5 5 5 5 5
16 16 16 16 17 15 12 10 9 8 7 7 7 6 5 4 4 3 3 3 4 5 5 6 6 6 6 6 6 5 5 5 4 5 5 5 5 5 5 6 6 6
17 17 17 16 16 16 14 12 10 9 8 8 8 7 6 5 5 4 3 3 4 4 5 6 6 6 6 6 6 6 6 5 5 5 5 5 6 6 6 6 7 6
18 17 17 17 16 15 15 13 12 11 9 8 8 8 7 6 5 5 4 4 4 5 5 6 6 6 6 6 6 6 6 6 6 6 6 6 6 6 7 7 7 7
18 18 18 17 16 16 16 15 13 12 11 10 9 9 9 8 7 7 5 5 5 5 5 5 6 6 6 6 6 6 6 6 6 7 7 6 6 6 6 7 7 8
18 18 18 18 17 17 16 16 14 13 13 12 11 10 10 9 9 8 7 6 6 6 6 6 6 6 6 6 6 6 6 6 6 7 7 6 6 6 6 7 7 7
18 18 18 18 17 17 17 16 15 14 14 13 12 12 11 11 10 9 8 8 7 8 8 7 7 6 6 7 7 7 6 6 6 7 6 6 6 6 6 7 7 7
17 17 18 18 18 18 17 16 16 15 15 14 14 13 12 12 10 9 9 9 9 9 8 8 7 7 7 7 7 7 6 7 7 7 7 7 6 6 7 7 7 7
17 17 17 17 18 19 18 17 17 16 16 15 15 14 14 12 11 10 9 9 9 10 9 9 8 7 7 7 6 6 6 7 7 8 8 8 8 7 7 8 8 8
19 18 17 16 17 18 18 18 18 18 17 16 16 15 15 13 12 11 10 10 10 10 11 10 9 9 8 7 6 6 6 6 7 8 8 9 9 8 8 8 8 8
21 20 20 18 17 17 17 18 18 19 18 17 17 17 15 14 13 13 12 11 10 11 11 12 11 10 10 9 8 7 6 6 7 8 9 9 9 9 9 9 9 9
20 20 21 20 19 18 17 18 18 18 18 18 18 17 16 15 14 14 14 13 13 12 13 13 12 12 12 11 9 8 8 7 7 7 8 9 9 10 10 10 10 9
20 19 20 21 20 19 18 18 19 19 19 19 19 18 17 17 16 16 15 15 14 14 14 14 13 13 13 12 11 10 9 8 8 7 7 8 9 10 11 11 11 10
23 21 20 21 21 19 18 18 19 19 19 19 19 18 17 17 16 15 15 15 15 14 13 14 14 14 13 12 12 11 11 10 9 9 8 8 8 9 10 11 11 11
25 23 22 22 22 21 19 18 18 19 19 20 20 19 18 17 16 15 14 14 15 14 14 13 14 14 14 13 13 12 12 12 11 11 10 10 9 9 9 10 10 10
24 24 24 24 24 22 19 18 19 20 20 20 20 20 19 17 17 15 15 14 15 15 15 14 14 14 14 14 14 14 14 14 13 13 12 11 11 10 10 10 10 10
22 23 25 26 25 24 21 20 20 21 21 21 20 19 18 17 16 16 15 15 15 16 16 16 16 16 15 14 15 15 16 16 15 14 14 13 12 12 12 11 11 10
22 23 25 24 24 25 23 21 21 22 22 21 20 19 18 17 17 17 16 16 16 16 17 17 18 17 16 15 15 15 16 17 17 17 16 15 14 13 13 13 12 12
19 21 22 22 21 23 23 22 22 22 22 21 20 20 19 18 18 17 17 16 16 17 18 19 19 18 17 17 16 16 16 17 18 18 17 16 15 14 14 14 14 14
13 13 15 17 19 22 22 23 23 23 22 21 20 20 19 19 18 18 17 16 16 17 18 20 20 19 19 19 17 16 17 17 18 19 19 18 17 16 15 15 15 15
16 16 17 18 19 19 19 20 20 20 19 18 18 18 17 17 17 18 18 17 17 17 17 19 21 20 20 19 17 16 16 17 18 19 19 20 19 18 17 16 16 16
13 14 16 17 16 15 15 15 14 14 14 14 14 14 13 13 14 16 16 16 16 17 17 18 19 19 19 19 18 17 17 17 17 18 19 20 20 19 19 18 18 18
6 6 7 8 8 9 11 11 10 10 10 10 10 10 10 10 11 12 13 13 14 15 15 15 16 17 18 19 19 19 19 18 18 17 17 18 19 20 20 20 20 20
4 4 3 4 5 6 7 8 8 8 8 8 8 9 9 9 9 10 11 12 13 14 14 14 16 17 19 20 20 20 20 20 19 17 17 17 18 19 20 20 20 21
5 5 4 4 5 5 5 5 5 6 6 6 7 7 8 9 9 10 10 12 14 15 14 15 17 18 19 20 20 21 21 21 20 19 18 18 18 17 18 19 20 21
5 5 5 4 4 4 4 4 4 4 4 5 5 5 6 7 7 7 8 10 11 12 12 13 14 15 16 16 17 19 19 20 21 21 21 21 20 18 18 18 19 20

ECMWFNIL_850_spd_096.txt.gz
Wind_Speed
14 14 14 13 12 10 9 8 7 6 6 6 5 4 5 5 4 4 4 4 3 3 4 4 4 5 4 4 5 5 5 4 3 3 3 3 3 2 2 3 3 3
15 15 15 14 13 13 12 9 8 7 7 7 6 6 6 5 5 4 4 3 3 3 4 4 4 5 5 4 5 5 4 4 3 3 4 4 3 3 3 3 3 4
16 15 15 14 12 12 11 9 9 9 7 7 7 7 6 5 5 5 4 3 3 4 4 3 4 4 4 5 5 4 4 5 4 4 5 5 4 4 3 3 4 4
16 15 14 13 12 12 11 10 10 9 8 8 7 7 7 6 6 5 5 4 4 4 4 4 4 5 5 5 4 4 5 5 5 5 6 5 5 4 4 4 4 5
16 16 15 14 13 12 12 11 10 9 9 9 7 7 8 8 7 5 5 5 4 4 4 4 4 4 5 4 4 4 4 3 5 6 6 5 5 4 3 5 5 5
16 15 15 14 14 14 13 11 10 9 9 9 8 8 8 8 7 7 7 6 5 5 5 5 5 4 5 5 4 4 3 4 6 7 6 5 5 4 4 6 6 6
16 14 14 14 14 14 14 12 11 10 10 9 9 9 8 8 8 8 8 7 7 7 7 6 7 6 6 6 5 5 5 5 6 7 5 5 6 6 6 6 6 6
15 14 14 14 13 14 14 13 12 11 11 10 9 9 9 9 9 8 9 9 8 8 9 8 8 7 6 6 6 6 5 5 6 6 6 5 6 6 6 6 6 6
15 15 15 14 13 13 13 13 13 12 12 12 11 10 10 10 10 9 10 11 10 10 11 10 9 8 7 7 7 7 6 5 6 7 7 6 5 6 6 6 6 6
15 15 15 14 14 14 14 13 13 12 12 12 12 11 10 11 11 10 11 12 10 10 11 11 10 9 8 8 7 7 7 6 7 8 7 7 6 6 6 6 7 6
16 15 15 15 15 15 15 14 13 13 13 13 12 12 12 12 12 12 13 13 11 10 10 11 11 11 10 9 8 8 8 7 7 8 8 8 8 8 7 7 7 7
17 16 16 16 16 16 16 16 15 14 13 13 13 13 13 13 12 12 12 13 12 11 10 11 12 12 13 12 10 9 9 9 8 9 8 8 8 8 8 8 7 8
19 18 17 18 19 18 18 18 17 16 14 13 13 13 14 14 14 13 13 13 13 13 12 12 13 13 14 15 13 11 10 11 10 10 10 9 9 8 8 8 8 8
23 22 21 21 21 20 19 19 19 18 17 16 15 14 14 14 14 14 14 13 13 13 13 12 13 13 14 15 15 13 12 12 12 11 11 10 10 9 9 9 9 9
25 24 24 23 22 21 21 20 20 20 20 19 18 16 14 14 14 14 14 13 13 13 13 12 12 12 13 14 14 13 12 11 11 11 11 11 11 10 10 10 10 10
26 26 26 25 24 24 23 23 23 22 21 21 20 18 16 16 16 16 14 13 13 13 13 13 12 12 14 16 15 14 13 12 12 12 13 13 12 12 11 11 10 10
27 27 28 27 26 26 25 25 25 24 23 23 22 21 19 18 18 17 16 14 13 13 13 12 13 15 18 17 15 15 16 16 15 14 14 15 14 13 12 11 11 11
25 26 27 26 26 27 26 26 25 25 24 23 23 22 20 20 18 17 18 16 14 14 14 12 15 19 19 16 14 15 16 17 17 15 15 14 14 13 12 11 11 11
21 22 22 23 24 24 24 25 25 25 25 23 23 23 21 21 19 18 18 17 14 14 13 12 17 21 18 16 16 16 15 16 16 16 16 15 14 14 13 12 12 12
18 18 17 19 21 22 22 22 23 25 25 22 22 22 21 21 20 18 18 16 15 15 13 14 19 21 17 17 17 16 16 16 16 17 18 16 16 16 15 14 15 14
17 17 18 20 22 21 20 20 20 23 24 23 22 20 19 19 18 18 19 17 15 14 13 16 21 21 18 17 17 15 16 15 15 17 17 16 17 19 19 18 18 17
14 15 16 18 18 18 19 19 20 22 22 22 20 19 18 17 16 16 17 16 13 12 12 16 20 19 18 17 16 16 15 14 15 16 15 15 17 19 20 20 19 19
8 9 10 11 13 16 18 20 22 22 21 19 18 18 19 18 15 15 15 15 13 12 13 17 20 18 16 16 16 16 15 14 15 14 13 15 17 19 20 20 20 21
6 6 6 7 11 14 15 17 20 22 21 20 18 17 16 14 12 13 13 13 13 13 15 18 19 17 15 14 14 15 14 15 15 12 11 13 14 16 17 18 19 20
8 7 7 8 9 9 9 9 11 14 16 17 16 14 13 11 9 8 9 10 12 14 16 17 16 15 15 14 14 14 14 14 15 13 12 11 11 12 13 14 16 17
7 6 7 7 7 6 4 4 4 5 8 11 10 8 8 10 9 8 9 10 10 12 14 14 13 12 13 14 14 15 14 14 15 14 13 12 12 12 11 11 12 14

ECMWFNIL_850_spd_099.txt.gz
Wind_Speed
12 11 12 11 9 8 8 7 7 7 7 6 5 5 6 6 6 7 7 6 5 4 4 4 4 5 4 4 5 5 4 4 4 4 4 3 2 3 4 4 4 4
13 12 11 11 11 11 10 8 7 7 8 8 6 6 6 6 6 7 7 6 4 3 4 4 4 5 5 5 6 5 4 5 4 2 5 4 3 3 4 4 4 4
14 13 12 11 12 12 11 9 8 7 7 8 7 6 6 6 6 6 5 5 5 5 6 4 5 5 5 6 6 4 5 6 4 4 7 6 3 3 4 4 4 4
15 14 13 12 11 11 10 10 9 8 8 8 7 8 7 5 6 6 6 6 6 8 7 6 5 5 6 6 6 5 6 6 5 5 7 5 4 4 4 4 4 4
15 15 14 13 12 11 11 11 10 9 9 9 9 9 8 8 8 6 6 6 6 7 8 6 6 5 6 6 5 5 4 5 6 6 6 5 5 4 4 5 5 5
16 16 16 15 13 12 12 12 12 11 10 11 10 9 9 9 9 8 7 7 6 6 6 6 6 6 6 6 5 5 5 7 9 8 6 5 5 5 5 5 6 6
15 16 16 16 14 13 13 13 13 12 11 11 11 11 10 10 9 9 9 8 7 7 7 7 8 8 8 8 7 6 7 8 9 7 6 6 6 7 6 6 7 7
15 15 15 16 15 14 14 14 13 13 13 12 12 12 11 11 10 10 10 10 9 8 8 8 10 10 9 8 8 7 6 7 7 7 6 6 7 7 7 6 7 7
15 15 15 15 15 15 15 15 14 14 13 13 13 12 12 11 11 10 11 11 10 10 11 11 11 11 9 8 10 10 8 7 7 8 7 6 7 6 6 6 6 7
16 16 16 15 15 15 15 15 16 15 14 14 13 13 12 12 12 11 11 13 12 12 14 13 12 11 9 9 10 10 9 8 9 9 9 8 7 7 7 6 7 7
17 17 16 16 16 16 15 15 15 15 15 14 14 14 13 12 13 12 12 14 14 13 13 13 12 12 11 10 10 10 9 9 9 10 10 9 9 9 9 9 9 8
17 17 16 17 17 18 19 18 16 15 16 15 14 14 14 13 13 13 13 14 14 13 12 13 13 13 13 12 11 10 10 10 9 10 10 9 9 9 9 9 9 8
18 17 16 16 17 19 21 21 18 16 16 16 15 15 15 15 15 14 14 14 14 14 13 14 15 14 14 14 13 11 11 11 10 10 10 10 10 10 10 10 10 9
19 17 17 17 18 18 20 21 20 18 17 17 16 16 16 16 16 16 15 14 14 14 14 15 15 14 14 15 14 13 13 12 11 11 11 11 10 10 11 11 11 11
22 22 22 22 21 20 19 21 21 20 19 18 18 17 16 16 16 17 16 16 15 15 15 15 15 14 15 15 15 14 14 13 12 12 11 11 11 11 12 11 11 11
23 24 25 24 23 22 22 22 22 22 21 20 20 19 18 17 17 17 17 17 16 15 15 15 15 15 16 17 17 16 14 12 12 11 11 12 12 12 12 11 11 12
25 24 24 25 25 25 25 25 24 24 24 23 21 20 20 19 18 18 17 17 16 16 16 15 15 17 18 18 19 18 15 13 12 10 11 13 13 13 13 12 12 13
27 27 27 28 28 28 28 29 28 26 26 26 24 23 22 21 20 20 19 17 16 16 15 15 17 19 19 19 20 21 19 18 16 14 13 14 14 14 14 13 13 13
22 25 27 29 29 29 29 29 30 29 28 28 27 26 24 23 21 20 19 19 18 16 16 17 20 20 20 20 21 22 20 19 19 18 15 15 14 14 14 14 13 13
19 19 22 24 25 26 26 26 27 27 27 28 28 28 27 26 24 21 19 18 17 17 19 21 21 19 19 21 23 23 21 20 20 20 19 17 16 15 15 14 14 14
20 19 19 20 21 22 22 23 24 24 24 25 26 27 27 28 26 22 21 19 16 16 19 20 20 20 19 19 21 21 21 20 20 20 20 19 18 17 17 16 15 14
23 21 20 20 20 20 19 20 22 22 22 23 24 25 26 27 26 23 22 21 18 16 16 18 20 21 20 19 20 20 20 20 18 17 18 19 16 14 13 14 15 13
22 21 20 20 20 20 20 20 21 21 20 19 20 23 24 25 24 21 21 21 20 17 17 19 20 20 20 20 20 19 19 19 18 16 17 17 14 12 11 11 12 14
14 14 14 16 17 16 17 19 20 19 18 17 17 19 21 23 22 18 13 12 16 17 17 18 18 18 19 20 19 18 17 16 16 16 16 16 14 14 14 12 13 15
8 7 7 8 9 10 12 13 14 14 13 15 15 13 16 19 18 16 13 11 13 16 17 17 18 19 18 18 18 17 15 13 13 15 16 16 15 14 14 15 15 17
7 5 5 4 5 4 4 5 6 6 7 10 12 10 13 15 14 13 13 12 12 14 16 18 19 18 17 17 18 17 15 13 13 15 15 15 15 14 14 14 13 12

ECMWFNIL_850_spd_102.txt.gz
Wind_Speed
13 13 12 11 10 9 8 9 8 8 8 7 6 8 9 6 5 7 6 5 5 5 5 7 6 6 6 6 8 9 7 7 7 4 3 4 4 3 3 3 3 3
12 11 11 11 11 10 9 9 9 9 9 8 8 8 8 6 6 7 7 5 5 5 4 5 5 6 6 5 6 7 6 6 6 4 3 4 5 6 6 4 2 2
13 12 12 12 13 13 12 11 10 9 8 9 9 7 7 8 8 8 8 6 6 6 4 4 5 6 7 6 5 6 5 4 5 5 5 6 6 6 4 3 2 3
15 14 13 12 13 14 13 13 11 10 9 10 9 7 6 7 7 8 8 6 7 8 6 5 6 6 7 7 6 6 5 4 5 6 6 6 6 6 5 3 3 4
16 16 14 12 12 11 12 13 12 10 10 9 8 8 8 7 7 7 6 6 7 7 7 6 6 6 7 6 6 6 6 5 6 6 6 6 6 5 4 5 6 6
17 17 16 14 12 11 11 12 10 9 9 8 8 8 8 8 8 7 6 7 6 6 7 6 6 5 5 5 6 6 7 6 7 7 5 5 5 5 5 6 7 6
15 16 17 16 15 13 12 11 10 10 10 10 10 9 9 9 9 8 8 8 6 7 8 6 6 6 7 6 5 6 7 7 8 8 6 5 6 7 7 7 7 7
15 15 15 15 15 14 12 11 11 12 12 11 11 11 10 10 10 9 10 10 8 8 9 7 7 8 8 8 7 7 7 7 8 8 6 7 7 7 7 8 8 8
15 15 15 14 14 14 13 12 12 12 12 12 11 11 11 11 10 9 10 11 9 9 10 9 8 9 9 9 9 9 7 7 8 8 8 8 8 7 6 6 7 7
16 15 15 15 14 14 13 13 13 12 12 12 11 11 11 12 12 11 11 12 12 12 12 12 11 11 10 9 10 10 9 8 9 9 9 8 7 7 6 6 7 6
16 15 15 14 14 15 14 13 13 13 13 13 13 12 12 13 13 12 12 14 15 14 13 13 13 13 11 10 10 10 10 9 9 10 10 9 9 9 8 8 8 7
15 15 15 15 15 16 16 14 13 13 14 14 14 13 13 13 13 13 13 15 16 15 14 14 14 14 13 12 11 11 11 10 9 9 10 11 11 9 9 9 9 8
17 16 15 14 15 17 17 17 15 14 14 14 14 14 14 13 13 14 15 15 16 15 14 14 14 14 14 13 12 12 12 12 11 10 11 11 10 9 9 10 9 10
17 16 16 16 16 17 18 19 19 18 15 13 13 14 14 14 14 14 15 15 16 15 14 14 14 15 14 14 14 13 12 13 12 11 11 12 10 10 11 10 10 11
18 17 17 18 17 17 18 18 19 21 20 16 14 14 14 14 14 15 15 15 16 16 16 14 14 16 15 14 14 14 13 12 12 13 13 12 11 11 11 10 11 12
19 19 19 20 20 20 20 18 18 19 21 21 20 18 17 16 15 16 16 15 15 16 17 15 14 15 16 14 13 14 13 11 12 14 14 13 11 11 12 13 13 11
18 20 21 22 22 22 22 21 20 19 20 21 22 21 21 20 19 19 18 15 14 14 16 17 17 16 16 15 14 15 15 14 13 13 12 12 12 12 13 14 13 11
15 17 19 21 22 23 23 23 22 22 21 22 22 22 22 22 22 21 19 17 15 15 15 14 16 17 17 17 17 17 18 17 15 13 11 10 10 11 13 14 15 14
15 16 17 20 21 22 22 23 23 23 23 23 23 23 23 23 23 22 22 20 20 21 19 15 14 16 17 18 18 19 19 18 17 16 15 13 12 12 15 17 18 18
17 16 16 17 20 23 23 24 24 24 25 25 26 26 26 26 25 24 24 23 22 23 24 20 16 15 16 17 19 19 19 18 18 18 19 18 17 17 18 19 19 18
17 17 15 14 15 18 21 23 25 26 27 27 27 28 28 29 29 28 28 26 24 23 24 23 20 18 18 17 18 20 20 19 19 19 20 20 20 19 19 19 19 18
18 18 17 16 16 17 18 20 22 24 25 26 26 26 27 29 30 30 30 29 28 26 24 24 23 22 20 19 18 20 20 20 20 20 21 21 20 20 19 18 19 18
16 16 17 18 19 19 19 20 21 22 22 22 23 23 24 26 27 28 30 29 29 28 28 27 24 21 20 19 19 21 20 19 19 19 19 20 19 19 19 18 18 17
11 13 14 15 17 18 17 16 18 20 20 20 20 21 23 24 24 26 28 28 28 29 29 28 26 23 22 21 21 21 20 19 19 18 18 19 18 17 17 17 17 16
7 8 9 9 9 10 9 8 9 13 16 17 19 21 22 22 23 27 29 28 29 30 29 28 27 25 24 22 21 21 20 18 17 17 17 18 17 16 16 17 18 17
8 8 6 4 2 2 1 1 1 3 7 9 13 17 18 18 19 22 26 26 26 26 27 27 26 24 22 20 19 18 16 16 17 18 18 17 16 15 16 17 18 18

ECMWFNIL_850_spd_105.txt.gz
Wind_Speed
16 14 12 12 13 12 12 12 11 9 8 8 8 7 8 7 5 6 6 5 5 4 4 6 6 6 7 7 7 8 6 5 5 5 5 6 6 7 7 6 4 5
15 14 13 12 13 12 12 11 9 9 8 8 7 8 9 7 6 5 5 5 5 4 4 5 6 6 7 7 7 8 7 6 6 6 6 6 7 7 7 5 4 4
15 14 14 14 13 12 11 11 9 8 8 8 7 7 8 7 6 5 6 6 5 5 6 6 6 6 6 7 7 7 7 6 7 8 7 6 6 7 8 6 4 6
15 15 14 14 13 12 11 10 9 8 8 8 8 6 6 7 7 6 6 6 6 6 7 6 6 6 6 6 6 6 7 6 7 8 7 6 5 7 9 8 5 6
15 15 14 14 13 13 13 12 11 10 10 8 8 7 7 7 7 6 6 6 6 6 6 6 6 6 6 6 6 6 6 6 6 7 7 6 6 6 8 8 6 6
15 15 14 14 13 13 13 13 13 12 10 8 7 7 7 7 6 6 6 6 6 6 7 6 6 6 6 6 6 7 6 6 7 7 6 7 6 6 8 9 7 8
16 16 15 14 13 11 11 12 12 11 9 8 7 5 5 6 6 6 6 5 4 5 6 5 5 6 6 6 6 6 6 7 7 6 5 6 6 6 8 9 9 10
15 16 16 15 13 12 10 11 13 12 10 9 8 7 7 6 6 6 6 6 4 5 5 4 5 6 6 5 5 6 6 7 7 6 5 5 5 6 7 8 10 11
16 16 17 18 17 15 13 12 12 11 10 10 10 9 8 7 7 6 6 7 7 7 7 6 6 7 7 5 5 6 7 7 7 6 5 5 6 6 6 7 9 9
17 15 16 18 19 17 15 13 12 10 10 11 11 11 9 9 9 8 8 9 9 9 9 8 9 9 8 7 7 8 7 7 7 7 7 7 6 6 6 6 7 7
17 16 16 17 17 17 15 13 12 11 11 11 11 11 11 11 12 10 9 10 11 11 11 12 12 11 10 10 9 8 7 7 7 8 8 8 8 7 7 8 9 9
18 18 18 18 18 18 17 14 13 12 11 11 10 10 10 11 13 12 11 11 12 12 12 12 13 13 12 12 10 9 8 8 8 8 8 8 9 9 9 9 9 9
20 20 20 19 19 20 19 18 17 15 14 13 12 12 11 11 13 13 13 13 12 12 11 12 12 13 13 12 11 10 10 10 10 9 8 9 10 10 10 9 10 12
19 18 17 17 17 18 19 19 20 20 18 15 14 13 13 13 13 13 12 13 13 13 12 11 11 13 13 13 12 11 12 12 11 10 10 11 11 10 12 12 12 13
19 17 16 15 15 16 17 19 20 20 21 19 16 15 15 14 15 14 12 10 12 14 13 12 11 12 13 14 12 11 11 12 12 12 12 12 11 11 14 14 11 11
21 21 20 18 17 17 17 18 19 19 21 23 20 17 16 16 15 16 15 13 11 12 14 14 15 14 14 13 11 9 9 10 11 12 12 12 11 11 14 14 12 11
21 22 22 21 20 20 19 19 19 19 19 21 23 21 20 19 17 16 17 18 17 15 14 14 15 16 15 14 11 9 10 10 10 11 11 11 10 9 10 11 11 12
19 19 20 21 21 22 21 21 21 21 19 18 21 22 22 22 21 19 19 20 21 21 19 16 15 16 16 15 12 11 11 12 12 12 12 12 12 11 11 10 11 11
16 16 19 21 22 23 23 23 23 23 22 20 20 22 23 23 24 24 24 23 23 24 24 22 19 16 15 15 14 12 11 13 14 14 15 15 16 16 15 15 15 14
16 16 17 19 20 21 22 22 23 24 25 24 23 24 24 24 24 25 26 26 25 24 25 25 23 20 17 16 16 14 14 15 15 16 17 18 18 18 18 18 18 17
18 18 18 18 19 19 20 22 24 26 26 26 26 26 26 26 26 25 26 27 26 24 25 25 25 25 23 20 18 17 15 16 17 18 19 19 19 20 20 20 19 18
20 20 20 20 20 20 21 22 24 25 27 27 28 28 28 28 28 28 29 30 30 29 29 27 26 26 26 24 22 19 17 16 18 19 19 20 20 21 21 21 19 19
18 19 20 20 20 20 21 21 21 21 22 22 23 25 26 28 29 28 28 28 28 29 32 31 29 28 27 26 25 22 19 19 19 19 19 20 20 20 20 20 19 19
16 18 18 19 19 19 19 19 18 18 19 20 21 22 23 24 25 24 24 25 25 25 29 31 31 30 29 27 26 23 21 19 19 19 19 19 19 19 18 18 19 19
12 13 14 14 14 14 14 14 14 15 17 19 20 21 21 21 21 21 22 23 24 24 25 29 31 31 30 28 26 24 21 19 18 17 17 17 18 17 17 17 17 18
7 8 9 9 7 6 7 10 11 11 12 12 12 13 15 15 16 17 17 18 20 22 24 27 28 29 29 28 26 23 22 20 18 17 16 15 15 15 16 16 17 17

ECMWFNIL_850_spd_108.txt.gz
Wind_Speed
19 18 17 17 16 15 14 13 13 12 10 10 10 9 9 10 9 9 11 9 8 8 7 7 9 9 8 8 8 7 7 6 5 6 7 7 8 8 8 8 7 6
19 17 16 16 17 16 14 13 12 12 11 10 10 10 10 10 9 9 10 8 7 7 7 8 8 9 8 8 9 8 8 7 6 7 7 7 9 9 9 9 7 6
19 18 16 16 16 15 14 13 13 12 11 11 11 10 10 10 9 8 8 8 8 8 8 8 8 8 8 8 8 8 8 8 8 9 8 7 8 9 9 9 8 6
20 19 18 16 15 15 14 14 14 13 12 12 10 10 10 10 9 8 8 8 8 8 8 8 8 8 8 8 8 8 9 9 8 9 9 8 7 8 8 9 9 7
19 19 18 17 16 15 16 16 15 14 13 12 10 10 10 9 8 8 8 8 8 8 8 9 8 8 8 8 8 8 8 8 8 9 9 7 6 6 7 9 10 9
19 19 19 19 18 17 17 16 14 14 13 11 11 11 9 8 7 8 9 9 8 7 8 8 7 7 8 7 8 8 8 8 8 9 9 8 6 6 7 9 11 11
19 19 19 19 19 18 18 16 14 13 12 11 11 10 8 7 7 8 8 8 8 7 7 7 6 6 7 7 7 8 8 8 8 8 8 7 7 7 7 9 12 12
20 19 19 19 19 19 18 16 14 13 12 12 12 9 7 6 6 7 7 7 7 7 7 7 5 5 6 7 7 7 7 7 7 7 7 7 7 6 6 7 10 11
21 20 20 20 19 18 17 14 13 13 13 12 12 10 8 7 7 7 6 6 7 6 6 6 5 5 6 7 7 7 8 8 7 8 7 7 7 6 6 7 8 9
21 20 20 20 20 18 16 14 12 13 14 13 12 11 10 9 8 8 7 7 7 6 6 6 6 6 7 8 8 8 8 8 9 9 8 8 8 7 7 7 7 7
20 19 19 20 20 19 17 14 13 13 14 14 13 12 12 11 10 10 9 9 8 8 8 8 8 9 10 10 10 9 8 8 9 9 9 8 8 8 8 8 8 8
19 18 17 18 19 20 18 16 14 14 13 13 14 13 13 13 13 12 12 11 9 9 10 9 10 11 11 11 11 11 10 10 9 9 9 9 10 10 11 10 10 10
18 17 16 16 17 19 20 17 14 14 14 15 16 15 14 14 14 14 14 12 11 11 11 11 11 11 11 12 12 12 12 12 11 10 10 11 12 12 12 11 11 12
18 18 17 16 16 17 19 18 16 17 18 18 20 20 19 17 15 15 15 15 14 14 14 13 13 12 12 12 13 13 13 13 13 12 12 14 13 11 11 12 12 12
21 21 19 18 18 18 19 20 21 21 21 20 20 19 20 21 20 18 18 17 17 16 16 16 16 15 13 12 12 13 14 14 13 12 13 15 14 12 11 11 10 11
23 23 21 20 20 19 20 22 24 24 23 23 21 18 17 19 21 21 20 19 18 17 17 18 19 18 15 13 13 13 14 14 14 12 12 14 15 14 12 11 10 11
23 23 22 21 21 20 19 21 24 25 26 26 25 23 19 17 18 20 22 21 20 20 19 19 20 19 18 16 15 15 15 15 14 13 12 13 16 15 12 12 12 12
23 23 24 23 22 22 21 22 23 24 25 26 26 27 25 22 19 19 20 20 20 20 20 20 20 20 18 17 16 15 15 15 16 14 14 15 16 15 12 13 13 12
23 24 25 25 25 24 24 24 24 25 25 25 25 25 27 27 26 24 22 21 21 20 20 20 20 20 19 18 17 15 15 17 18 17 17 18 17 16 14 14 14 14
23 25 25 25 26 27 26 26 26 26 27 26 25 24 24 25 26 26 25 24 24 23 23 23 23 23 21 19 17 16 16 17 19 18 19 20 20 19 17 17 16 16
23 24 24 25 26 27 28 27 27 27 27 27 27 26 25 25 24 25 25 26 26 26 26 26 25 24 21 20 19 18 17 17 18 19 19 21 22 21 20 19 18 18
25 25 24 24 24 24 25 26 26 26 26 26 26 26 26 26 26 27 27 28 28 28 27 27 26 25 24 23 22 20 18 19 20 20 21 22 22 23 22 21 21 20
24 24 23 23 23 23 24 25 25 24 25 25 25 26 27 28 29 29 30 30 30 31 30 30 30 30 30 29 27 23 21 21 22 22 23 23 22 22 23 22 22 21
21 22 22 23 24 24 25 25 25 24 25 25 25 25 26 27 28 28 28 29 30 32 32 32 33 33 33 34 34 30 27 26 25 24 24 23 23 23 22 22 21 20
16 17 18 19 21 21 22 22 23 23 24 24 24 24 24 25 25 25 24 25 27 30 31 31 31 31 30 32 34 34 33 31 28 26 25 24 24 23 21 20 20 19
8 9 11 12 14 16 17 18 19 20 21 21 21 20 18 18 17 15 16 19 23 27 28 28 29 29 28 29 30 31 32 32 30 28 27 26 24 23 20 18 18 19

ECMWFNIL_850_spd_111.txt.gz
Wind_Speed
19 19 19 18 18 17 15 14 13 12 12 12 11 10 10 10 10 11 11 11 10 10 10 9 9 9 9 9 8 7 7 7 7 7 7 8 9 9 9 10 10 9
20 19 19 18 17 17 16 14 13 13 12 11 10 10 9 10 11 10 10 11 11 10 10 9 9 9 9 9 9 8 8 8 7 7 7 8 8 9 10 10 10 10
21 20 19 18 17 16 16 15 14 14 13 12 11 11 11 11 11 10 10 11 11 10 10 9 9 9 9 9 9 9 9 9 9 9 9 8 9 9 9 10 10 10
22 21 20 18 16 16 16 15 15 15 14 13 12 12 12 11 11 10 10 11 11 10 9 9 9 9 9 9 9 9 9 9 9 10 10 9 9 8 9 10 11 11
21 20 20 18 16 16 16 17 16 15 15 14 12 12 11 11 11 10 10 10 10 10 9 9 9 9 9 9 9 9 8 8 9 10 10 9 9 8 9 10 11 12
21 20 20 19 17 16 17 17 16 16 15 14 13 12 11 11 10 9 10 10 10 9 9 9 9 9 9 8 8 9 9 8 9 10 10 9 9 9 9 10 11 11
21 20 20 20 19 17 17 17 16 16 15 14 13 13 12 11 10 9 9 9 9 9 9 9 9 9 8 8 8 8 9 9 9 10 10 9 9 10 9 9 10 11
21 20 20 20 19 19 18 17 16 16 15 14 14 13 12 11 9 8 8 8 9 9 9 9 9 8 7 8 8 8 8 9 9 10 9 8 9 9 9 9 10 10
22 21 19 19 20 20 19 18 17 16 16 15 13 12 11 10 8 7 7 8 8 9 9 8 8 8 7 7 7 7 7 8 9 9 9 8 9 9 8 8 10 10
22 21 20 20 20 21 20 19 18 16 15 14 13 12 12 10 9 8 8 8 9 9 9 8 8 8 8 7 7 7 8 8 9 9 9 8 8 8 9 9 10 10
22 22 21 20 21 21 20 19 18 16 15 14 13 14 14 12 10 10 10 10 9 9 9 8 8 8 9 8 7 8 9 9 9 10 10 10 9 10 10 10 11 10
23 23 22 21 21 21 20 19 18 17 15 14 14 15 14 13 12 12 12 12 11 10 9 9 8 9 9 9 8 9 10 10 10 10 11 11 11 11 11 11 11 11
23 23 22 21 21 20 20 20 19 17 16 15 14 15 15 15 15 15 15 14 13 12 11 10 9 9 9 10 10 11 12 12 12 12 12 13 12 11 11 12 12 12
21 21 21 20 18 18 19 21 21 18 16 16 16 17 17 16 16 16 16 16 15 14 13 12 12 12 12 11 11 12 13 14 13 13 14 14 14 13 12 12 12 12
19 19 20 19 17 16 17 19 21 19 17 17 18 19 19 19 18 18 17 17 17 17 16 16 16 15 14 14 14 13 13 14 13 14 15 15 14 14 13 13 13 12
19 18 19 18 17 17 16 17 19 20 20 20 20 20 20 20 20 20 20 20 20 19 19 20 20 18 16 16 16 15 14 14 14 14 15 16 16 15 15 14 13 13
21 20 19 19 19 19 18 18 19 21 22 23 23 23 22 21 20 20 21 22 23 23 22 22 21 19 18 18 18 18 17 16 16 15 16 18 18 17 16 15 14 14
24 22 21 22 22 21 21 21 21 22 23 25 26 25 25 24 23 21 20 21 22 23 23 23 21 20 20 20 20 20 20 19 18 17 18 19 20 19 17 15 14 14
25 24 24 25 25 24 23 23 23 24 25 26 27 27 27 27 27 26 25 23 22 22 22 22 21 21 21 21 22 22 21 21 20 19 19 19 21 21 19 17 15 15
24 25 26 26 26 26 26 26 26 26 26 27 27 28 29 29 29 29 28 27 25 24 23 22 21 20 20 21 22 22 22 20 19 19 19 21 23 23 22 20 18 17
24 25 26 26 27 27 27 27 27 27 27 28 29 29 30 30 29 29 27 26 26 26 25 24 23 22 21 21 22 22 23 23 23 22 21 21 23 24 25 24 22 21
25 25 26 26 27 28 28 28 28 28 28 29 29 29 30 29 28 26 24 23 23 24 24 24 24 24 24 24 23 23 24 26 28 29 29 26 24 23 24 25 25 24
25 25 26 26 26 26 27 27 28 29 29 30 30 29 28 28 27 27 26 25 24 24 24 24 26 26 26 26 26 26 27 27 28 29 31 32 30 26 24 25 27 27
22 23 24 24 23 23 22 23 24 25 26 27 27 27 27 28 28 29 28 28 28 27 27 28 30 30 29 29 30 30 31 31 30 28 28 30 30 29 27 27 28 28
19 20 20 20 20 20 20 21 22 23 24 24 24 24 25 26 27 26 26 27 28 29 31 32 32 33 33 32 33 33 33 34 34 33 32 30 30 29 29 29 29 28
14 15 16 17 16 16 18 19 20 21 22 23 22 21 21 21 22 24 25 25 27 28 30 31 31 31 32 31 32 32 33 35 35 34 33 33 33 34 34 31 29 27

ECMWFNIL_850_spd_114.txt.gz
Wind_Speed
19 18 17 16 15 15 14 14 14 14 14 13 11 10 9 9 10 10 10 10 9 10 9 9 9 9 9 9 10 10 9 9 8 8 8 8 8 8 8 10 10 10
19 18 17 16 16 15 14 14 14 13 13 12 11 9 9 9 9 10 11 10 10 10 10 10 10 9 9 10 10 10 10 10 9 9 8 8 8 7 8 9 9 10
19 18 17 16 15 15 14 14 15 14 12 11 10 10 9 9 9 10 10 10 10 10 10 10 11 11 10 10 11 10 10 10 9 9 10 9 8 8 8 8 9 10
19 19 18 17 15 15 15 15 15 15 13 12 11 11 11 10 10 10 10 10 10 10 11 11 11 11 10 10 10 10 10 9 9 10 10 10 9 9 9 9 9 10
20 19 19 18 16 15 16 16 15 15 13 12 12 12 12 12 12 12 11 10 10 11 11 11 11 11 10 10 10 10 10 9 9 9 10 10 10 9 9 9 9 10
20 20 19 18 17 16 16 15 15 15 14 13 13 13 12 12 12 12 11 10 10 10 11 11 11 10 9 9 9 10 10 10 9 10 10 9 9 9 9 9 10 10
21 20 19 18 17 16 16 15 14 14 14 14 14 13 12 12 11 11 10 10 10 10 10 11 11 10 9 9 9 9 9 9 10 10 10 10 9 9 9 9 10 10
21 20 19 18 17 17 17 16 15 14 14 14 14 14 13 13 12 10 9 9 10 10 10 10 10 10 10 10 10 9 9 8 9 10 10 10 9 9 9 10 11 11
20 20 19 19 18 18 18 17 16 15 15 15 15 14 14 13 12 11 10 10 10 10 10 10 10 10 10 10 10 9 8 8 8 9 9 9 9 10 10 10 11 11
21 20 20 20 19 19 19 18 17 16 16 16 15 14 14 13 13 11 11 11 10 10 9 9 9 9 10 10 9 8 8 8 8 9 9 9 9 10 10 11 12 11
21 21 21 21 20 19 19 19 18 17 17 16 15 14 14 13 13 13 12 11 11 10 10 10 9 9 10 10 9 8 8 8 8 9 10 10 11 11 11 11 12 12
22 22 22 22 21 20 19 19 19 18 18 17 16 15 15 15 15 14 13 12 12 11 11 10 10 10 10 10 10 9 9 9 9 10 10 11 12 12 12 12 12 12
22 22 22 22 22 20 20 19 19 19 19 18 17 16 16 16 16 16 15 13 13 13 12 12 11 11 11 11 11 11 11 11 11 12 12 12 13 13 13 13 13 12
22 21 21 22 22 21 20 20 19 19 19 19 18 17 17 17 17 17 16 15 15 15 14 14 14 13 13 13 13 12 13 13 13 13 14 14 14 14 14 14 14 13
22 21 21 22 22 22 21 20 20 19 19 20 19 18 18 17 17 17 17 17 16 16 15 15 16 15 15 15 15 15 14 14 14 14 15 15 15 14 14 14 14 14
23 22 22 22 22 21 21 20 20 19 20 21 21 20 19 18 17 18 18 18 18 17 17 17 17 17 16 17 17 18 18 17 17 16 16 15 15 15 15 15 15 16
23 23 22 21 21 21 20 20 19 18 19 21 22 21 20 19 19 19 19 19 19 18 18 19 19 19 19 19 19 20 20 20 19 18 18 18 18 17 17 17 16 17
23 23 23 21 20 20 20 19 18 17 17 18 20 21 21 20 20 20 20 19 19 19 19 19 20 21 22 22 21 21 20 21 21 20 21 21 21 20 19 18 18 18
22 23 23 22 21 20 20 20 19 19 18 18 20 22 22 22 22 21 21 22 22 22 22 21 21 21 22 23 23 22 22 22 22 22 22 23 23 22 21 20 19 19
21 22 23 23 22 22 22 22 21 22 22 23 24 24 23 23 22 22 23 23 23 24 24 24 24 23 23 23 24 24 23 23 23 23 24 24 24 24 23 22 21 21
22 22 23 23 24 24 24 23 23 23 23 24 25 24 23 22 22 22 23 23 23 23 22 22 22 23 23 24 24 25 24 24 24 24 25 25 25 25 24 23 22 23
22 22 23 23 24 24 24 24 24 22 20 19 20 21 21 20 20 20 20 22 24 25 24 23 23 23 23 24 24 25 25 25 25 26 27 27 27 27 27 27 27 27
21 22 22 21 20 22 23 24 23 21 18 18 19 21 21 21 21 21 22 23 25 26 27 26 26 26 26 26 26 26 27 26 26 27 28 29 30 31 31 32 32 32
20 21 20 20 20 21 21 19 18 17 17 17 17 17 18 20 22 23 24 25 27 27 28 28 28 28 28 29 29 28 28 27 27 28 29 30 31 32 33 34 34 33
18 16 16 16 18 18 17 16 15 15 16 16 16 17 17 19 21 22 24 25 25 25 27 28 28 28 28 28 29 29 29 29 29 29 30 32 33 34 35 36 36 35
14 12 10 10 12 14 15 15 14 14 14 14 14 16 18 19 19 21 22 22 21 22 23 24 25 25 26 27 27 28 29 29 29 29 30 31 32 33 34 34 35 36

ECMWFNIL_850_spd_117.txt.gz
Wind_Speed
18 17 16 15 14 13 12 11 10 9 9 9 9 9 8 7 7 8 8 9 9 9 9 8 8 8 9 9 9 9 10 9 9 9 9 9 9 8 8 8 8 8
18 17 16 15 15 13 12 11 10 9 9 9 9 9 8 7 7 8 9 9 10 9 9 9 9 9 9 9 9 10 10 11 10 10 10 10 9 9 9 9 9 9
18 17 16 15 14 12 12 11 10 9 9 9 9 9 8 8 8 8 9 10 10 10 9 9 9 9 9 10 10 11 11 11 11 11 11 11 10 10 9 9 9 10
17 16 15 15 13 12 11 12 11 10 10 10 10 10 9 9 9 9 10 10 10 9 9 9 9 9 10 11 11 11 11 11 10 11 11 11 11 11 11 11 10 10
17 17 16 15 14 12 12 13 12 11 11 11 11 11 11 11 10 11 11 10 9 9 9 9 9 10 10 11 11 11 10 10 10 10 10 11 11 11 11 11 10 10
17 17 16 16 15 15 14 13 12 12 12 12 12 12 12 11 11 11 11 10 9 9 9 9 10 10 10 10 10 10 9 9 10 10 10 10 10 10 10 11 11 11
18 17 17 17 16 16 16 14 13 13 12 13 13 12 12 12 11 10 10 10 10 10 10 10 10 10 10 10 10 10 9 9 10 10 10 10 10 10 10 10 11 11
18 17 17 17 17 17 17 16 14 13 12 13 13 13 12 11 11 10 9 9 9 10 10 10 10 10 10 10 10 10 9 9 10 10 10 10 11 11 10 11 11 11
19 18 18 17 17 17 17 17 16 14 13 12 12 12 11 11 11 10 10 9 9 9 10 10 10 10 10 10 10 10 10 9 9 9 9 9 10 10 10 11 12 12
20 19 19 19 18 18 17 17 17 16 14 13 12 12 12 11 11 11 11 11 10 9 9 9 9 9 9 10 10 10 9 9 8 9 9 9 9 10 10 11 12 13
20 20 21 20 19 19 18 17 17 17 16 14 13 13 13 12 12 12 12 12 11 10 9 8 8 8 9 9 10 9 9 8 9 9 9 10 10 11 11 12 13 13
20 20 21 21 20 20 19 18 17 17 16 16 15 14 13 13 13 13 13 13 12 10 10 9 9 9 9 9 9 10 9 9 9 10 10 10 11 11 12 13 13 14
20 20 21 21 20 20 19 18 17 17 17 16 16 15 14 14 13 13 13 13 13 12 11 10 10 10 10 10 10 10 10 10 10 11 11 11 12 12 13 14 14 15
21 20 20 20 20 19 19 19 18 17 16 16 16 16 16 15 14 14 13 14 14 14 12 12 12 12 12 11 11 11 12 12 12 12 13 13 13 13 13 14 14 15
20 20 20 20 20 19 20 19 18 17 17 16 16 16 16 16 15 14 14 14 14 14 13 13 13 13 13 13 13 14 14 14 14 14 15 15 15 14 14 14 15 15
20 20 19 20 21 20 20 20 19 18 17 17 16 16 16 16 15 15 14 14 14 14 14 14 14 14 14 14 15 16 16 16 16 16 17 17 17 16 16 16 16 16
24 21 20 20 21 20 20 20 20 19 18 17 16 16 16 17 17 16 16 15 15 14 14 14 14 14 15 15 16 17 18 19 19 18 19 19 19 19 18 18 18 18
25 23 22 20 20 20 19 19 19 18 18 17 17 17 18 18 18 18 17 16 16 16 16 16 16 16 15 16 17 17 18 20 20 20 20 21 21 21 20 20 20 20
27 24 22 20 20 19 19 18 19 20 20 19 18 18 19 19 19 18 19 18 18 18 18 19 19 19 19 19 20 20 20 20 20 21 21 22 23 23 23 23 22 22
28 26 22 20 21 20 18 19 21 21 21 20 18 18 18 17 16 17 19 19 19 19 20 21 22 22 22 22 23 23 23 23 23 23 23 23 24 24 24 25 24 24
25 26 23 21 22 21 18 17 17 17 18 19 17 16 16 16 15 16 18 19 19 19 20 22 23 23 23 24 24 24 24 24 25 25 25 26 26 25 25 26 26 26
23 24 23 21 19 19 17 15 14 14 16 17 16 16 15 15 14 16 17 18 18 18 20 21 22 23 23 24 24 24 24 24 24 24 25 26 27 27 27 28 28 28
24 23 22 20 16 15 15 14 13 13 14 15 16 15 14 13 13 15 17 18 19 19 20 21 23 24 25 25 25 25 25 25 25 26 26 27 28 28 28 29 28 29
22 20 17 15 13 12 13 14 14 12 11 12 13 14 14 14 14 16 17 18 20 20 21 22 23 24 25 26 26 26 26 26 27 27 27 28 29 30 30 30 31 31
14 13 13 13 13 12 12 13 12 10 9 9 11 13 14 14 14 15 16 18 19 19 20 20 21 22 23 24 24 25 25 25 26 27 27 28 29 31 31 31 32 33
11 10 10 10 8 7 7 8 8 8 7 7 8 10 11 12 14 15 16 18 18 17 16 16 16 17 18 18 18 18 18 18 19 20 21 22 24 25 26 27 27 28